<?xml version="1.0" encoding="UTF-8" standalone="no" ?>
<gpx xmlns="http://www.topografix.com/GPX/1/1" xmlns:xsi="http://www.w3.org/2001/XMLSchema-instance" xsi:schemaLocation="http://www.topografix.com/GPX/1/1 http://www.topografix.com/GPX/1/1/gpx.xsd" version="1.1" creator="VisuGPX - https://www.visugpx.com">
  <metadata>
    <name>170201HR3ROBJeunes</name>
    <desc><![CDATA[excellente sortie de ce jour par beau temps]]></desc>
  </metadata>
  <trk>
    <name><![CDATA[170201HR3ROBJeunes]]></name>
    <trkseg>
      <trkpt lat="43.41579" lon="6.07035">
        <ele>214</ele>
        <time>2017-02-01T13:05:46Z</time>
      </trkpt>
      <trkpt lat="43.41579" lon="6.07035">
        <ele>202</ele>
        <time>2017-02-01T13:05:47Z</time>
      </trkpt>
      <trkpt lat="43.41579" lon="6.07036">
        <ele>202.39999389648</ele>
        <time>2017-02-01T13:05:51Z</time>
      </trkpt>
      <trkpt lat="43.41579" lon="6.07037">
        <ele>202.39999389648</ele>
        <time>2017-02-01T13:05:57Z</time>
      </trkpt>
      <trkpt lat="43.4158" lon="6.07037">
        <ele>202.60000610352</ele>
        <time>2017-02-01T13:06:01Z</time>
      </trkpt>
      <trkpt lat="43.4158" lon="6.07038">
        <ele>202</ele>
        <time>2017-02-01T13:06:11Z</time>
      </trkpt>
      <trkpt lat="43.4158" lon="6.0704">
        <ele>202.19999694824</ele>
        <time>2017-02-01T13:06:21Z</time>
      </trkpt>
      <trkpt lat="43.4158" lon="6.0704">
        <ele>202</ele>
        <time>2017-02-01T13:06:31Z</time>
      </trkpt>
      <trkpt lat="43.4158" lon="6.07046">
        <ele>202</ele>
        <time>2017-02-01T13:06:36Z</time>
      </trkpt>
      <trkpt lat="43.41581" lon="6.07059">
        <ele>202</ele>
        <time>2017-02-01T13:06:41Z</time>
      </trkpt>
      <trkpt lat="43.41586" lon="6.07093">
        <ele>201.60000610352</ele>
        <time>2017-02-01T13:06:51Z</time>
      </trkpt>
      <trkpt lat="43.41582" lon="6.07097">
        <ele>202</ele>
        <time>2017-02-01T13:06:58Z</time>
      </trkpt>
      <trkpt lat="43.41578" lon="6.07102">
        <ele>202</ele>
        <time>2017-02-01T13:07:01Z</time>
      </trkpt>
      <trkpt lat="43.41552" lon="6.0711">
        <ele>201.60000610352</ele>
        <time>2017-02-01T13:07:11Z</time>
      </trkpt>
      <trkpt lat="43.4155" lon="6.07108">
        <ele>201.39999389648</ele>
        <time>2017-02-01T13:07:12Z</time>
      </trkpt>
      <trkpt lat="43.41541" lon="6.07074">
        <ele>201.39999389648</ele>
        <time>2017-02-01T13:07:21Z</time>
      </trkpt>
      <trkpt lat="43.41538" lon="6.07072">
        <ele>201.39999389648</ele>
        <time>2017-02-01T13:07:22Z</time>
      </trkpt>
      <trkpt lat="43.41531" lon="6.07071">
        <ele>201.19999694824</ele>
        <time>2017-02-01T13:07:24Z</time>
      </trkpt>
      <trkpt lat="43.41526" lon="6.07072">
        <ele>201</ele>
        <time>2017-02-01T13:07:25Z</time>
      </trkpt>
      <trkpt lat="43.41518" lon="6.07075">
        <ele>200.39999389648</ele>
        <time>2017-02-01T13:07:27Z</time>
      </trkpt>
      <trkpt lat="43.4151" lon="6.07076">
        <ele>200.19999694824</ele>
        <time>2017-02-01T13:07:29Z</time>
      </trkpt>
      <trkpt lat="43.41502" lon="6.07078">
        <ele>200</ele>
        <time>2017-02-01T13:07:31Z</time>
      </trkpt>
      <trkpt lat="43.41498" lon="6.07077">
        <ele>200</ele>
        <time>2017-02-01T13:07:32Z</time>
      </trkpt>
      <trkpt lat="43.41491" lon="6.07075">
        <ele>199.80000305176</ele>
        <time>2017-02-01T13:07:34Z</time>
      </trkpt>
      <trkpt lat="43.41477" lon="6.07068">
        <ele>199.39999389648</ele>
        <time>2017-02-01T13:07:38Z</time>
      </trkpt>
      <trkpt lat="43.41475" lon="6.07068">
        <ele>199.19999694824</ele>
        <time>2017-02-01T13:07:39Z</time>
      </trkpt>
      <trkpt lat="43.41472" lon="6.07067">
        <ele>199.39999389648</ele>
        <time>2017-02-01T13:07:40Z</time>
      </trkpt>
      <trkpt lat="43.4147" lon="6.07065">
        <ele>199.19999694824</ele>
        <time>2017-02-01T13:07:42Z</time>
      </trkpt>
      <trkpt lat="43.41469" lon="6.07062">
        <ele>199</ele>
        <time>2017-02-01T13:07:44Z</time>
      </trkpt>
      <trkpt lat="43.41469" lon="6.0706">
        <ele>199.19999694824</ele>
        <time>2017-02-01T13:07:45Z</time>
      </trkpt>
      <trkpt lat="43.4147" lon="6.07056">
        <ele>199</ele>
        <time>2017-02-01T13:07:47Z</time>
      </trkpt>
      <trkpt lat="43.41471" lon="6.07053">
        <ele>199.19999694824</ele>
        <time>2017-02-01T13:07:49Z</time>
      </trkpt>
      <trkpt lat="43.41473" lon="6.07049">
        <ele>199.19999694824</ele>
        <time>2017-02-01T13:07:51Z</time>
      </trkpt>
      <trkpt lat="43.41487" lon="6.07014">
        <ele>199.60000610352</ele>
        <time>2017-02-01T13:08:02Z</time>
      </trkpt>
      <trkpt lat="43.4149" lon="6.06975">
        <ele>199.80000305176</ele>
        <time>2017-02-01T13:08:12Z</time>
      </trkpt>
      <trkpt lat="43.41473" lon="6.06943">
        <ele>201</ele>
        <time>2017-02-01T13:08:23Z</time>
      </trkpt>
      <trkpt lat="43.41463" lon="6.06924">
        <ele>201.19999694824</ele>
        <time>2017-02-01T13:08:31Z</time>
      </trkpt>
      <trkpt lat="43.4146" lon="6.0692">
        <ele>201.19999694824</ele>
        <time>2017-02-01T13:08:33Z</time>
      </trkpt>
      <trkpt lat="43.41459" lon="6.06916">
        <ele>201.39999389648</ele>
        <time>2017-02-01T13:08:34Z</time>
      </trkpt>
      <trkpt lat="43.4146" lon="6.06907">
        <ele>201.39999389648</ele>
        <time>2017-02-01T13:08:36Z</time>
      </trkpt>
      <trkpt lat="43.41462" lon="6.06895">
        <ele>201.80000305176</ele>
        <time>2017-02-01T13:08:38Z</time>
      </trkpt>
      <trkpt lat="43.41462" lon="6.06888">
        <ele>202</ele>
        <time>2017-02-01T13:08:39Z</time>
      </trkpt>
      <trkpt lat="43.41461" lon="6.06882">
        <ele>202</ele>
        <time>2017-02-01T13:08:40Z</time>
      </trkpt>
      <trkpt lat="43.41458" lon="6.0687">
        <ele>202.19999694824</ele>
        <time>2017-02-01T13:08:42Z</time>
      </trkpt>
      <trkpt lat="43.41451" lon="6.06861">
        <ele>202</ele>
        <time>2017-02-01T13:08:44Z</time>
      </trkpt>
      <trkpt lat="43.41441" lon="6.06856">
        <ele>201.80000305176</ele>
        <time>2017-02-01T13:08:46Z</time>
      </trkpt>
      <trkpt lat="43.41431" lon="6.06855">
        <ele>201.60000610352</ele>
        <time>2017-02-01T13:08:48Z</time>
      </trkpt>
      <trkpt lat="43.41414" lon="6.06854">
        <ele>201.60000610352</ele>
        <time>2017-02-01T13:08:51Z</time>
      </trkpt>
      <trkpt lat="43.41409" lon="6.06851">
        <ele>201.39999389648</ele>
        <time>2017-02-01T13:08:52Z</time>
      </trkpt>
      <trkpt lat="43.41404" lon="6.06847">
        <ele>201.39999389648</ele>
        <time>2017-02-01T13:08:53Z</time>
      </trkpt>
      <trkpt lat="43.4138" lon="6.06827">
        <ele>202</ele>
        <time>2017-02-01T13:08:58Z</time>
      </trkpt>
      <trkpt lat="43.4136" lon="6.06816">
        <ele>202.19999694824</ele>
        <time>2017-02-01T13:09:02Z</time>
      </trkpt>
      <trkpt lat="43.41308" lon="6.06786">
        <ele>201</ele>
        <time>2017-02-01T13:09:12Z</time>
      </trkpt>
      <trkpt lat="43.41302" lon="6.06781">
        <ele>200.60000610352</ele>
        <time>2017-02-01T13:09:13Z</time>
      </trkpt>
      <trkpt lat="43.41292" lon="6.0677">
        <ele>200.39999389648</ele>
        <time>2017-02-01T13:09:15Z</time>
      </trkpt>
      <trkpt lat="43.41279" lon="6.06749">
        <ele>199.80000305176</ele>
        <time>2017-02-01T13:09:18Z</time>
      </trkpt>
      <trkpt lat="43.41276" lon="6.06741">
        <ele>199.39999389648</ele>
        <time>2017-02-01T13:09:19Z</time>
      </trkpt>
      <trkpt lat="43.41274" lon="6.06732">
        <ele>199</ele>
        <time>2017-02-01T13:09:20Z</time>
      </trkpt>
      <trkpt lat="43.41271" lon="6.06716">
        <ele>199</ele>
        <time>2017-02-01T13:09:22Z</time>
      </trkpt>
      <trkpt lat="43.41266" lon="6.06682">
        <ele>200.60000610352</ele>
        <time>2017-02-01T13:09:28Z</time>
      </trkpt>
      <trkpt lat="43.41255" lon="6.0668">
        <ele>200.60000610352</ele>
        <time>2017-02-01T13:09:31Z</time>
      </trkpt>
      <trkpt lat="43.41248" lon="6.06685">
        <ele>200</ele>
        <time>2017-02-01T13:09:33Z</time>
      </trkpt>
      <trkpt lat="43.41244" lon="6.06688">
        <ele>199.39999389648</ele>
        <time>2017-02-01T13:09:35Z</time>
      </trkpt>
      <trkpt lat="43.41243" lon="6.0669">
        <ele>199</ele>
        <time>2017-02-01T13:09:36Z</time>
      </trkpt>
      <trkpt lat="43.41243" lon="6.06692">
        <ele>198.60000610352</ele>
        <time>2017-02-01T13:09:39Z</time>
      </trkpt>
      <trkpt lat="43.41243" lon="6.06692">
        <ele>198.80000305176</ele>
        <time>2017-02-01T13:09:42Z</time>
      </trkpt>
      <trkpt lat="43.41243" lon="6.067">
        <ele>198.80000305176</ele>
        <time>2017-02-01T13:09:47Z</time>
      </trkpt>
      <trkpt lat="43.41246" lon="6.0671">
        <ele>198.80000305176</ele>
        <time>2017-02-01T13:09:53Z</time>
      </trkpt>
      <trkpt lat="43.41228" lon="6.06713">
        <ele>198</ele>
        <time>2017-02-01T13:09:58Z</time>
      </trkpt>
      <trkpt lat="43.41208" lon="6.06716">
        <ele>196.80000305176</ele>
        <time>2017-02-01T13:10:02Z</time>
      </trkpt>
      <trkpt lat="43.41204" lon="6.06715">
        <ele>196.60000610352</ele>
        <time>2017-02-01T13:10:03Z</time>
      </trkpt>
      <trkpt lat="43.41196" lon="6.06714">
        <ele>196.19999694824</ele>
        <time>2017-02-01T13:10:05Z</time>
      </trkpt>
      <trkpt lat="43.41154" lon="6.06713">
        <ele>196.19999694824</ele>
        <time>2017-02-01T13:10:13Z</time>
      </trkpt>
      <trkpt lat="43.41145" lon="6.06717">
        <ele>196</ele>
        <time>2017-02-01T13:10:15Z</time>
      </trkpt>
      <trkpt lat="43.41136" lon="6.06721">
        <ele>196</ele>
        <time>2017-02-01T13:10:17Z</time>
      </trkpt>
      <trkpt lat="43.41109" lon="6.06735">
        <ele>195.80000305176</ele>
        <time>2017-02-01T13:10:23Z</time>
      </trkpt>
      <trkpt lat="43.411" lon="6.06741">
        <ele>195.80000305176</ele>
        <time>2017-02-01T13:10:26Z</time>
      </trkpt>
      <trkpt lat="43.41087" lon="6.06747">
        <ele>196</ele>
        <time>2017-02-01T13:10:33Z</time>
      </trkpt>
      <trkpt lat="43.41081" lon="6.0678">
        <ele>195.80000305176</ele>
        <time>2017-02-01T13:10:41Z</time>
      </trkpt>
      <trkpt lat="43.4108" lon="6.06785">
        <ele>195.80000305176</ele>
        <time>2017-02-01T13:10:42Z</time>
      </trkpt>
      <trkpt lat="43.41079" lon="6.06796">
        <ele>195.80000305176</ele>
        <time>2017-02-01T13:10:44Z</time>
      </trkpt>
      <trkpt lat="43.41075" lon="6.06807">
        <ele>195.80000305176</ele>
        <time>2017-02-01T13:10:46Z</time>
      </trkpt>
      <trkpt lat="43.41069" lon="6.06824">
        <ele>195.39999389648</ele>
        <time>2017-02-01T13:10:49Z</time>
      </trkpt>
      <trkpt lat="43.41067" lon="6.06836">
        <ele>195.60000610352</ele>
        <time>2017-02-01T13:10:51Z</time>
      </trkpt>
      <trkpt lat="43.41066" lon="6.06842">
        <ele>195.60000610352</ele>
        <time>2017-02-01T13:10:52Z</time>
      </trkpt>
      <trkpt lat="43.41063" lon="6.06866">
        <ele>196.39999389648</ele>
        <time>2017-02-01T13:10:57Z</time>
      </trkpt>
      <trkpt lat="43.41056" lon="6.0687">
        <ele>197</ele>
        <time>2017-02-01T13:11:00Z</time>
      </trkpt>
      <trkpt lat="43.41046" lon="6.06873">
        <ele>197.39999389648</ele>
        <time>2017-02-01T13:11:03Z</time>
      </trkpt>
      <trkpt lat="43.41021" lon="6.06887">
        <ele>195.80000305176</ele>
        <time>2017-02-01T13:11:09Z</time>
      </trkpt>
      <trkpt lat="43.41016" lon="6.06892">
        <ele>195.80000305176</ele>
        <time>2017-02-01T13:11:12Z</time>
      </trkpt>
      <trkpt lat="43.40997" lon="6.06914">
        <ele>195.39999389648</ele>
        <time>2017-02-01T13:11:22Z</time>
      </trkpt>
      <trkpt lat="43.40966" lon="6.0693">
        <ele>195.39999389648</ele>
        <time>2017-02-01T13:11:31Z</time>
      </trkpt>
      <trkpt lat="43.40958" lon="6.06933">
        <ele>195.39999389648</ele>
        <time>2017-02-01T13:11:33Z</time>
      </trkpt>
      <trkpt lat="43.40918" lon="6.06944">
        <ele>195.39999389648</ele>
        <time>2017-02-01T13:11:43Z</time>
      </trkpt>
      <trkpt lat="43.4091" lon="6.06946">
        <ele>195.19999694824</ele>
        <time>2017-02-01T13:11:45Z</time>
      </trkpt>
      <trkpt lat="43.40902" lon="6.06952">
        <ele>195.39999389648</ele>
        <time>2017-02-01T13:11:47Z</time>
      </trkpt>
      <trkpt lat="43.40899" lon="6.06962">
        <ele>195.39999389648</ele>
        <time>2017-02-01T13:11:49Z</time>
      </trkpt>
      <trkpt lat="43.40898" lon="6.06975">
        <ele>195.39999389648</ele>
        <time>2017-02-01T13:11:51Z</time>
      </trkpt>
      <trkpt lat="43.40894" lon="6.06987">
        <ele>195.39999389648</ele>
        <time>2017-02-01T13:11:53Z</time>
      </trkpt>
      <trkpt lat="43.4089" lon="6.0699">
        <ele>195.39999389648</ele>
        <time>2017-02-01T13:11:54Z</time>
      </trkpt>
      <trkpt lat="43.40886" lon="6.06993">
        <ele>195.39999389648</ele>
        <time>2017-02-01T13:11:55Z</time>
      </trkpt>
      <trkpt lat="43.40851" lon="6.07003">
        <ele>196.19999694824</ele>
        <time>2017-02-01T13:12:04Z</time>
      </trkpt>
      <trkpt lat="43.40845" lon="6.07005">
        <ele>196.39999389648</ele>
        <time>2017-02-01T13:12:07Z</time>
      </trkpt>
      <trkpt lat="43.40839" lon="6.07009">
        <ele>196.39999389648</ele>
        <time>2017-02-01T13:12:12Z</time>
      </trkpt>
      <trkpt lat="43.40839" lon="6.07014">
        <ele>196.39999389648</ele>
        <time>2017-02-01T13:12:14Z</time>
      </trkpt>
      <trkpt lat="43.40844" lon="6.07057">
        <ele>195.80000305176</ele>
        <time>2017-02-01T13:12:24Z</time>
      </trkpt>
      <trkpt lat="43.40843" lon="6.07105">
        <ele>195.60000610352</ele>
        <time>2017-02-01T13:12:33Z</time>
      </trkpt>
      <trkpt lat="43.40831" lon="6.07158">
        <ele>196</ele>
        <time>2017-02-01T13:12:43Z</time>
      </trkpt>
      <trkpt lat="43.40805" lon="6.07209">
        <ele>196</ele>
        <time>2017-02-01T13:12:54Z</time>
      </trkpt>
      <trkpt lat="43.40769" lon="6.07242">
        <ele>196</ele>
        <time>2017-02-01T13:13:04Z</time>
      </trkpt>
      <trkpt lat="43.40735" lon="6.07262">
        <ele>196.39999389648</ele>
        <time>2017-02-01T13:13:12Z</time>
      </trkpt>
      <trkpt lat="43.40726" lon="6.07266">
        <ele>196.39999389648</ele>
        <time>2017-02-01T13:13:14Z</time>
      </trkpt>
      <trkpt lat="43.40708" lon="6.07277">
        <ele>197</ele>
        <time>2017-02-01T13:13:18Z</time>
      </trkpt>
      <trkpt lat="43.40691" lon="6.07286">
        <ele>198</ele>
        <time>2017-02-01T13:13:22Z</time>
      </trkpt>
      <trkpt lat="43.40683" lon="6.07291">
        <ele>198</ele>
        <time>2017-02-01T13:13:24Z</time>
      </trkpt>
      <trkpt lat="43.40679" lon="6.07293">
        <ele>198</ele>
        <time>2017-02-01T13:13:25Z</time>
      </trkpt>
      <trkpt lat="43.40666" lon="6.073">
        <ele>198.19999694824</ele>
        <time>2017-02-01T13:13:28Z</time>
      </trkpt>
      <trkpt lat="43.4065" lon="6.0731">
        <ele>198.60000610352</ele>
        <time>2017-02-01T13:13:32Z</time>
      </trkpt>
      <trkpt lat="43.40643" lon="6.07314">
        <ele>199</ele>
        <time>2017-02-01T13:13:34Z</time>
      </trkpt>
      <trkpt lat="43.40639" lon="6.07316">
        <ele>199.19999694824</ele>
        <time>2017-02-01T13:13:35Z</time>
      </trkpt>
      <trkpt lat="43.40615" lon="6.0731">
        <ele>200.19999694824</ele>
        <time>2017-02-01T13:13:43Z</time>
      </trkpt>
      <trkpt lat="43.40609" lon="6.07304">
        <ele>200.60000610352</ele>
        <time>2017-02-01T13:13:45Z</time>
      </trkpt>
      <trkpt lat="43.40593" lon="6.07289">
        <ele>201.39999389648</ele>
        <time>2017-02-01T13:13:50Z</time>
      </trkpt>
      <trkpt lat="43.4059" lon="6.07288">
        <ele>201.60000610352</ele>
        <time>2017-02-01T13:13:51Z</time>
      </trkpt>
      <trkpt lat="43.40575" lon="6.07296">
        <ele>201.80000305176</ele>
        <time>2017-02-01T13:13:55Z</time>
      </trkpt>
      <trkpt lat="43.40567" lon="6.07297">
        <ele>201.60000610352</ele>
        <time>2017-02-01T13:13:57Z</time>
      </trkpt>
      <trkpt lat="43.40533" lon="6.07291">
        <ele>202.60000610352</ele>
        <time>2017-02-01T13:14:05Z</time>
      </trkpt>
      <trkpt lat="43.40525" lon="6.07288">
        <ele>202.60000610352</ele>
        <time>2017-02-01T13:14:07Z</time>
      </trkpt>
      <trkpt lat="43.40485" lon="6.07272">
        <ele>203.39999389648</ele>
        <time>2017-02-01T13:14:17Z</time>
      </trkpt>
      <trkpt lat="43.40481" lon="6.07272">
        <ele>203.39999389648</ele>
        <time>2017-02-01T13:14:18Z</time>
      </trkpt>
      <trkpt lat="43.40468" lon="6.07273">
        <ele>203.60000610352</ele>
        <time>2017-02-01T13:14:21Z</time>
      </trkpt>
      <trkpt lat="43.40438" lon="6.07275">
        <ele>204.60000610352</ele>
        <time>2017-02-01T13:14:29Z</time>
      </trkpt>
      <trkpt lat="43.40417" lon="6.07277">
        <ele>205.80000305176</ele>
        <time>2017-02-01T13:14:35Z</time>
      </trkpt>
      <trkpt lat="43.40406" lon="6.07276">
        <ele>206.39999389648</ele>
        <time>2017-02-01T13:14:38Z</time>
      </trkpt>
      <trkpt lat="43.40396" lon="6.07267">
        <ele>206.80000305176</ele>
        <time>2017-02-01T13:14:41Z</time>
      </trkpt>
      <trkpt lat="43.40374" lon="6.07246">
        <ele>207.60000610352</ele>
        <time>2017-02-01T13:14:48Z</time>
      </trkpt>
      <trkpt lat="43.40353" lon="6.07231">
        <ele>208</ele>
        <time>2017-02-01T13:14:54Z</time>
      </trkpt>
      <trkpt lat="43.4034" lon="6.07222">
        <ele>208.80000305176</ele>
        <time>2017-02-01T13:14:58Z</time>
      </trkpt>
      <trkpt lat="43.40303" lon="6.07206">
        <ele>210.19999694824</ele>
        <time>2017-02-01T13:15:08Z</time>
      </trkpt>
      <trkpt lat="43.40279" lon="6.0718">
        <ele>210.80000305176</ele>
        <time>2017-02-01T13:15:16Z</time>
      </trkpt>
      <trkpt lat="43.40275" lon="6.07176">
        <ele>210.80000305176</ele>
        <time>2017-02-01T13:15:17Z</time>
      </trkpt>
      <trkpt lat="43.40268" lon="6.0717">
        <ele>210.80000305176</ele>
        <time>2017-02-01T13:15:19Z</time>
      </trkpt>
      <trkpt lat="43.4026" lon="6.07166">
        <ele>210.80000305176</ele>
        <time>2017-02-01T13:15:21Z</time>
      </trkpt>
      <trkpt lat="43.40235" lon="6.07165">
        <ele>210.80000305176</ele>
        <time>2017-02-01T13:15:28Z</time>
      </trkpt>
      <trkpt lat="43.40226" lon="6.07167">
        <ele>211.39999389648</ele>
        <time>2017-02-01T13:15:31Z</time>
      </trkpt>
      <trkpt lat="43.40213" lon="6.07171">
        <ele>212.60000610352</ele>
        <time>2017-02-01T13:15:35Z</time>
      </trkpt>
      <trkpt lat="43.40202" lon="6.07178">
        <ele>213.80000305176</ele>
        <time>2017-02-01T13:15:39Z</time>
      </trkpt>
      <trkpt lat="43.40186" lon="6.07188">
        <ele>215</ele>
        <time>2017-02-01T13:15:45Z</time>
      </trkpt>
      <trkpt lat="43.40182" lon="6.0719">
        <ele>215.19999694824</ele>
        <time>2017-02-01T13:15:46Z</time>
      </trkpt>
      <trkpt lat="43.40177" lon="6.07193">
        <ele>216</ele>
        <time>2017-02-01T13:15:48Z</time>
      </trkpt>
      <trkpt lat="43.40175" lon="6.07195">
        <ele>216.19999694824</ele>
        <time>2017-02-01T13:15:49Z</time>
      </trkpt>
      <trkpt lat="43.40168" lon="6.072">
        <ele>217.19999694824</ele>
        <time>2017-02-01T13:15:52Z</time>
      </trkpt>
      <trkpt lat="43.40158" lon="6.07208">
        <ele>218.39999389648</ele>
        <time>2017-02-01T13:15:56Z</time>
      </trkpt>
      <trkpt lat="43.4015" lon="6.07217">
        <ele>219</ele>
        <time>2017-02-01T13:16:00Z</time>
      </trkpt>
      <trkpt lat="43.40145" lon="6.07224">
        <ele>219.60000610352</ele>
        <time>2017-02-01T13:16:03Z</time>
      </trkpt>
      <trkpt lat="43.40141" lon="6.07244">
        <ele>220.39999389648</ele>
        <time>2017-02-01T13:16:09Z</time>
      </trkpt>
      <trkpt lat="43.40141" lon="6.07248">
        <ele>220.39999389648</ele>
        <time>2017-02-01T13:16:10Z</time>
      </trkpt>
      <trkpt lat="43.40142" lon="6.07262">
        <ele>220.39999389648</ele>
        <time>2017-02-01T13:16:14Z</time>
      </trkpt>
      <trkpt lat="43.40144" lon="6.07285">
        <ele>220.60000610352</ele>
        <time>2017-02-01T13:16:20Z</time>
      </trkpt>
      <trkpt lat="43.40143" lon="6.07294">
        <ele>220.60000610352</ele>
        <time>2017-02-01T13:16:22Z</time>
      </trkpt>
      <trkpt lat="43.40142" lon="6.0731">
        <ele>220.80000305176</ele>
        <time>2017-02-01T13:16:26Z</time>
      </trkpt>
      <trkpt lat="43.40141" lon="6.07322">
        <ele>221</ele>
        <time>2017-02-01T13:16:29Z</time>
      </trkpt>
      <trkpt lat="43.40136" lon="6.07368">
        <ele>221.39999389648</ele>
        <time>2017-02-01T13:16:40Z</time>
      </trkpt>
      <trkpt lat="43.40135" lon="6.07383">
        <ele>221.60000610352</ele>
        <time>2017-02-01T13:16:44Z</time>
      </trkpt>
      <trkpt lat="43.40139" lon="6.07412">
        <ele>222</ele>
        <time>2017-02-01T13:16:51Z</time>
      </trkpt>
      <trkpt lat="43.40144" lon="6.07448">
        <ele>222.60000610352</ele>
        <time>2017-02-01T13:17:00Z</time>
      </trkpt>
      <trkpt lat="43.40144" lon="6.07452">
        <ele>222.80000305176</ele>
        <time>2017-02-01T13:17:01Z</time>
      </trkpt>
      <trkpt lat="43.40141" lon="6.07483">
        <ele>223.19999694824</ele>
        <time>2017-02-01T13:17:08Z</time>
      </trkpt>
      <trkpt lat="43.40138" lon="6.07495">
        <ele>224</ele>
        <time>2017-02-01T13:17:11Z</time>
      </trkpt>
      <trkpt lat="43.40134" lon="6.0751">
        <ele>225.19999694824</ele>
        <time>2017-02-01T13:17:15Z</time>
      </trkpt>
      <trkpt lat="43.40125" lon="6.07531">
        <ele>226.19999694824</ele>
        <time>2017-02-01T13:17:21Z</time>
      </trkpt>
      <trkpt lat="43.40109" lon="6.07561">
        <ele>226.80000305176</ele>
        <time>2017-02-01T13:17:30Z</time>
      </trkpt>
      <trkpt lat="43.40092" lon="6.07594">
        <ele>227.19999694824</ele>
        <time>2017-02-01T13:17:40Z</time>
      </trkpt>
      <trkpt lat="43.40088" lon="6.07637">
        <ele>229.19999694824</ele>
        <time>2017-02-01T13:17:51Z</time>
      </trkpt>
      <trkpt lat="43.40087" lon="6.07644">
        <ele>229.39999389648</ele>
        <time>2017-02-01T13:17:53Z</time>
      </trkpt>
      <trkpt lat="43.40086" lon="6.07651">
        <ele>229.80000305176</ele>
        <time>2017-02-01T13:17:55Z</time>
      </trkpt>
      <trkpt lat="43.40083" lon="6.07662">
        <ele>230.80000305176</ele>
        <time>2017-02-01T13:17:58Z</time>
      </trkpt>
      <trkpt lat="43.40079" lon="6.07673">
        <ele>231.60000610352</ele>
        <time>2017-02-01T13:18:01Z</time>
      </trkpt>
      <trkpt lat="43.40077" lon="6.07676">
        <ele>232</ele>
        <time>2017-02-01T13:18:02Z</time>
      </trkpt>
      <trkpt lat="43.4007" lon="6.07686">
        <ele>232.80000305176</ele>
        <time>2017-02-01T13:18:06Z</time>
      </trkpt>
      <trkpt lat="43.40067" lon="6.07692">
        <ele>233</ele>
        <time>2017-02-01T13:18:08Z</time>
      </trkpt>
      <trkpt lat="43.4006" lon="6.07703">
        <ele>233.80000305176</ele>
        <time>2017-02-01T13:18:12Z</time>
      </trkpt>
      <trkpt lat="43.40056" lon="6.07707">
        <ele>234.19999694824</ele>
        <time>2017-02-01T13:18:14Z</time>
      </trkpt>
      <trkpt lat="43.40043" lon="6.07724">
        <ele>234.19999694824</ele>
        <time>2017-02-01T13:18:21Z</time>
      </trkpt>
      <trkpt lat="43.40042" lon="6.07727">
        <ele>234.39999389648</ele>
        <time>2017-02-01T13:18:22Z</time>
      </trkpt>
      <trkpt lat="43.40034" lon="6.07741">
        <ele>234.80000305176</ele>
        <time>2017-02-01T13:18:27Z</time>
      </trkpt>
      <trkpt lat="43.40031" lon="6.07747">
        <ele>234.80000305176</ele>
        <time>2017-02-01T13:18:29Z</time>
      </trkpt>
      <trkpt lat="43.40028" lon="6.07758">
        <ele>235</ele>
        <time>2017-02-01T13:18:32Z</time>
      </trkpt>
      <trkpt lat="43.40025" lon="6.07771">
        <ele>235.19999694824</ele>
        <time>2017-02-01T13:18:35Z</time>
      </trkpt>
      <trkpt lat="43.4002" lon="6.07787">
        <ele>235.39999389648</ele>
        <time>2017-02-01T13:18:39Z</time>
      </trkpt>
      <trkpt lat="43.40017" lon="6.07798">
        <ele>235.39999389648</ele>
        <time>2017-02-01T13:18:42Z</time>
      </trkpt>
      <trkpt lat="43.40005" lon="6.07836">
        <ele>236</ele>
        <time>2017-02-01T13:18:52Z</time>
      </trkpt>
      <trkpt lat="43.39999" lon="6.07859">
        <ele>236</ele>
        <time>2017-02-01T13:18:57Z</time>
      </trkpt>
      <trkpt lat="43.39991" lon="6.07886">
        <ele>236.19999694824</ele>
        <time>2017-02-01T13:19:03Z</time>
      </trkpt>
      <trkpt lat="43.39984" lon="6.07916">
        <ele>237.19999694824</ele>
        <time>2017-02-01T13:19:10Z</time>
      </trkpt>
      <trkpt lat="43.39981" lon="6.07929">
        <ele>238</ele>
        <time>2017-02-01T13:19:13Z</time>
      </trkpt>
      <trkpt lat="43.39978" lon="6.07941">
        <ele>238.39999389648</ele>
        <time>2017-02-01T13:19:16Z</time>
      </trkpt>
      <trkpt lat="43.39974" lon="6.07957">
        <ele>239.39999389648</ele>
        <time>2017-02-01T13:19:20Z</time>
      </trkpt>
      <trkpt lat="43.39968" lon="6.07968">
        <ele>240.39999389648</ele>
        <time>2017-02-01T13:19:24Z</time>
      </trkpt>
      <trkpt lat="43.39967" lon="6.0797">
        <ele>240.39999389648</ele>
        <time>2017-02-01T13:19:25Z</time>
      </trkpt>
      <trkpt lat="43.39959" lon="6.07977">
        <ele>241.60000610352</ele>
        <time>2017-02-01T13:19:31Z</time>
      </trkpt>
      <trkpt lat="43.39952" lon="6.07981">
        <ele>242.39999389648</ele>
        <time>2017-02-01T13:19:35Z</time>
      </trkpt>
      <trkpt lat="43.39947" lon="6.07984">
        <ele>242.60000610352</ele>
        <time>2017-02-01T13:19:37Z</time>
      </trkpt>
      <trkpt lat="43.39928" lon="6.07992">
        <ele>243</ele>
        <time>2017-02-01T13:19:46Z</time>
      </trkpt>
      <trkpt lat="43.39915" lon="6.08">
        <ele>243</ele>
        <time>2017-02-01T13:19:51Z</time>
      </trkpt>
      <trkpt lat="43.39908" lon="6.08008">
        <ele>242.39999389648</ele>
        <time>2017-02-01T13:19:54Z</time>
      </trkpt>
      <trkpt lat="43.39903" lon="6.08014">
        <ele>242.19999694824</ele>
        <time>2017-02-01T13:19:56Z</time>
      </trkpt>
      <trkpt lat="43.39896" lon="6.08023">
        <ele>242</ele>
        <time>2017-02-01T13:19:59Z</time>
      </trkpt>
      <trkpt lat="43.39888" lon="6.08026">
        <ele>241.80000305176</ele>
        <time>2017-02-01T13:20:02Z</time>
      </trkpt>
      <trkpt lat="43.39882" lon="6.08026">
        <ele>241.39999389648</ele>
        <time>2017-02-01T13:20:04Z</time>
      </trkpt>
      <trkpt lat="43.39876" lon="6.08023">
        <ele>241</ele>
        <time>2017-02-01T13:20:06Z</time>
      </trkpt>
      <trkpt lat="43.39866" lon="6.08018">
        <ele>240.80000305176</ele>
        <time>2017-02-01T13:20:09Z</time>
      </trkpt>
      <trkpt lat="43.39846" lon="6.08008">
        <ele>240.39999389648</ele>
        <time>2017-02-01T13:20:14Z</time>
      </trkpt>
      <trkpt lat="43.39839" lon="6.08003">
        <ele>240.19999694824</ele>
        <time>2017-02-01T13:20:16Z</time>
      </trkpt>
      <trkpt lat="43.39824" lon="6.07994">
        <ele>240.39999389648</ele>
        <time>2017-02-01T13:20:21Z</time>
      </trkpt>
      <trkpt lat="43.39811" lon="6.07989">
        <ele>240.39999389648</ele>
        <time>2017-02-01T13:20:25Z</time>
      </trkpt>
      <trkpt lat="43.39777" lon="6.07974">
        <ele>241.39999389648</ele>
        <time>2017-02-01T13:20:36Z</time>
      </trkpt>
      <trkpt lat="43.39771" lon="6.07972">
        <ele>242</ele>
        <time>2017-02-01T13:20:39Z</time>
      </trkpt>
      <trkpt lat="43.39769" lon="6.07971">
        <ele>242.19999694824</ele>
        <time>2017-02-01T13:20:40Z</time>
      </trkpt>
      <trkpt lat="43.39767" lon="6.0797">
        <ele>242.39999389648</ele>
        <time>2017-02-01T13:20:41Z</time>
      </trkpt>
      <trkpt lat="43.39756" lon="6.07966">
        <ele>243.19999694824</ele>
        <time>2017-02-01T13:20:46Z</time>
      </trkpt>
      <trkpt lat="43.3975" lon="6.07962">
        <ele>243.60000610352</ele>
        <time>2017-02-01T13:20:49Z</time>
      </trkpt>
      <trkpt lat="43.39734" lon="6.07952">
        <ele>244.60000610352</ele>
        <time>2017-02-01T13:20:56Z</time>
      </trkpt>
      <trkpt lat="43.39732" lon="6.07951">
        <ele>244.80000305176</ele>
        <time>2017-02-01T13:20:57Z</time>
      </trkpt>
      <trkpt lat="43.39719" lon="6.07936">
        <ele>245.39999389648</ele>
        <time>2017-02-01T13:21:05Z</time>
      </trkpt>
      <trkpt lat="43.39716" lon="6.07932">
        <ele>245.80000305176</ele>
        <time>2017-02-01T13:21:07Z</time>
      </trkpt>
      <trkpt lat="43.39706" lon="6.07917">
        <ele>247.60000610352</ele>
        <time>2017-02-01T13:21:16Z</time>
      </trkpt>
      <trkpt lat="43.39704" lon="6.07914">
        <ele>248</ele>
        <time>2017-02-01T13:21:18Z</time>
      </trkpt>
      <trkpt lat="43.39699" lon="6.07908">
        <ele>249.19999694824</ele>
        <time>2017-02-01T13:21:21Z</time>
      </trkpt>
      <trkpt lat="43.39693" lon="6.07901">
        <ele>249.80000305176</ele>
        <time>2017-02-01T13:21:25Z</time>
      </trkpt>
      <trkpt lat="43.3969" lon="6.07897">
        <ele>250.19999694824</ele>
        <time>2017-02-01T13:21:27Z</time>
      </trkpt>
      <trkpt lat="43.39683" lon="6.07892">
        <ele>251.39999389648</ele>
        <time>2017-02-01T13:21:32Z</time>
      </trkpt>
      <trkpt lat="43.39673" lon="6.07888">
        <ele>251.80000305176</ele>
        <time>2017-02-01T13:21:37Z</time>
      </trkpt>
      <trkpt lat="43.3966" lon="6.07886">
        <ele>252.39999389648</ele>
        <time>2017-02-01T13:21:44Z</time>
      </trkpt>
      <trkpt lat="43.39652" lon="6.07886">
        <ele>252.80000305176</ele>
        <time>2017-02-01T13:21:48Z</time>
      </trkpt>
      <trkpt lat="43.39631" lon="6.07889">
        <ele>253.39999389648</ele>
        <time>2017-02-01T13:21:58Z</time>
      </trkpt>
      <trkpt lat="43.39624" lon="6.07891">
        <ele>253.39999389648</ele>
        <time>2017-02-01T13:22:01Z</time>
      </trkpt>
      <trkpt lat="43.39613" lon="6.07894">
        <ele>253.60000610352</ele>
        <time>2017-02-01T13:22:06Z</time>
      </trkpt>
      <trkpt lat="43.3961" lon="6.07897">
        <ele>253.80000305176</ele>
        <time>2017-02-01T13:22:08Z</time>
      </trkpt>
      <trkpt lat="43.39598" lon="6.079">
        <ele>254.60000610352</ele>
        <time>2017-02-01T13:22:14Z</time>
      </trkpt>
      <trkpt lat="43.39593" lon="6.07902">
        <ele>255.19999694824</ele>
        <time>2017-02-01T13:22:17Z</time>
      </trkpt>
      <trkpt lat="43.39589" lon="6.07902">
        <ele>255.80000305176</ele>
        <time>2017-02-01T13:22:20Z</time>
      </trkpt>
      <trkpt lat="43.39583" lon="6.07902">
        <ele>257.20001220703</ele>
        <time>2017-02-01T13:22:24Z</time>
      </trkpt>
      <trkpt lat="43.39579" lon="6.07903">
        <ele>258.39999389648</ele>
        <time>2017-02-01T13:22:27Z</time>
      </trkpt>
      <trkpt lat="43.39571" lon="6.07923">
        <ele>258.39999389648</ele>
        <time>2017-02-01T13:22:37Z</time>
      </trkpt>
      <trkpt lat="43.39563" lon="6.07931">
        <ele>259.79998779297</ele>
        <time>2017-02-01T13:22:44Z</time>
      </trkpt>
      <trkpt lat="43.3956" lon="6.07931">
        <ele>260.60000610352</ele>
        <time>2017-02-01T13:22:47Z</time>
      </trkpt>
      <trkpt lat="43.39557" lon="6.07932">
        <ele>261</ele>
        <time>2017-02-01T13:22:49Z</time>
      </trkpt>
      <trkpt lat="43.39546" lon="6.07935">
        <ele>262.39999389648</ele>
        <time>2017-02-01T13:22:57Z</time>
      </trkpt>
      <trkpt lat="43.39532" lon="6.07942">
        <ele>263.79998779297</ele>
        <time>2017-02-01T13:23:07Z</time>
      </trkpt>
      <trkpt lat="43.39528" lon="6.07944">
        <ele>264.39999389648</ele>
        <time>2017-02-01T13:23:10Z</time>
      </trkpt>
      <trkpt lat="43.39501" lon="6.07951">
        <ele>266.60000610352</ele>
        <time>2017-02-01T13:23:27Z</time>
      </trkpt>
      <trkpt lat="43.39495" lon="6.07954">
        <ele>267</ele>
        <time>2017-02-01T13:23:31Z</time>
      </trkpt>
      <trkpt lat="43.39484" lon="6.07958">
        <ele>267.60000610352</ele>
        <time>2017-02-01T13:23:37Z</time>
      </trkpt>
      <trkpt lat="43.39482" lon="6.07959">
        <ele>267.60000610352</ele>
        <time>2017-02-01T13:23:38Z</time>
      </trkpt>
      <trkpt lat="43.39468" lon="6.07965">
        <ele>268.39999389648</ele>
        <time>2017-02-01T13:23:47Z</time>
      </trkpt>
      <trkpt lat="43.3945" lon="6.07973">
        <ele>269.39999389648</ele>
        <time>2017-02-01T13:23:57Z</time>
      </trkpt>
      <trkpt lat="43.39442" lon="6.07977">
        <ele>269.79998779297</ele>
        <time>2017-02-01T13:24:01Z</time>
      </trkpt>
      <trkpt lat="43.39432" lon="6.07982">
        <ele>270.39999389648</ele>
        <time>2017-02-01T13:24:07Z</time>
      </trkpt>
      <trkpt lat="43.3942" lon="6.07988">
        <ele>270.60000610352</ele>
        <time>2017-02-01T13:24:14Z</time>
      </trkpt>
      <trkpt lat="43.39415" lon="6.0799">
        <ele>271.20001220703</ele>
        <time>2017-02-01T13:24:17Z</time>
      </trkpt>
      <trkpt lat="43.39404" lon="6.07995">
        <ele>272</ele>
        <time>2017-02-01T13:24:23Z</time>
      </trkpt>
      <trkpt lat="43.39398" lon="6.07998">
        <ele>272.60000610352</ele>
        <time>2017-02-01T13:24:27Z</time>
      </trkpt>
      <trkpt lat="43.39391" lon="6.08002">
        <ele>273</ele>
        <time>2017-02-01T13:24:32Z</time>
      </trkpt>
      <trkpt lat="43.39384" lon="6.08005">
        <ele>273.79998779297</ele>
        <time>2017-02-01T13:24:36Z</time>
      </trkpt>
      <trkpt lat="43.39383" lon="6.08007">
        <ele>274</ele>
        <time>2017-02-01T13:24:37Z</time>
      </trkpt>
      <trkpt lat="43.39381" lon="6.08009">
        <ele>274.20001220703</ele>
        <time>2017-02-01T13:24:39Z</time>
      </trkpt>
      <trkpt lat="43.39373" lon="6.08024">
        <ele>275.39999389648</ele>
        <time>2017-02-01T13:24:47Z</time>
      </trkpt>
      <trkpt lat="43.39369" lon="6.08032">
        <ele>276.20001220703</ele>
        <time>2017-02-01T13:24:52Z</time>
      </trkpt>
      <trkpt lat="43.39363" lon="6.0804">
        <ele>276.60000610352</ele>
        <time>2017-02-01T13:24:57Z</time>
      </trkpt>
      <trkpt lat="43.39359" lon="6.08046">
        <ele>277</ele>
        <time>2017-02-01T13:25:01Z</time>
      </trkpt>
      <trkpt lat="43.39356" lon="6.08051">
        <ele>277.39999389648</ele>
        <time>2017-02-01T13:25:04Z</time>
      </trkpt>
      <trkpt lat="43.39353" lon="6.08056">
        <ele>277.79998779297</ele>
        <time>2017-02-01T13:25:07Z</time>
      </trkpt>
      <trkpt lat="43.39343" lon="6.08072">
        <ele>278.20001220703</ele>
        <time>2017-02-01T13:25:17Z</time>
      </trkpt>
      <trkpt lat="43.39342" lon="6.08074">
        <ele>278.39999389648</ele>
        <time>2017-02-01T13:25:18Z</time>
      </trkpt>
      <trkpt lat="43.39333" lon="6.08087">
        <ele>279.60000610352</ele>
        <time>2017-02-01T13:25:27Z</time>
      </trkpt>
      <trkpt lat="43.39327" lon="6.08096">
        <ele>280.60000610352</ele>
        <time>2017-02-01T13:25:33Z</time>
      </trkpt>
      <trkpt lat="43.39322" lon="6.08102">
        <ele>280.79998779297</ele>
        <time>2017-02-01T13:25:37Z</time>
      </trkpt>
      <trkpt lat="43.39313" lon="6.0812">
        <ele>282.39999389648</ele>
        <time>2017-02-01T13:25:47Z</time>
      </trkpt>
      <trkpt lat="43.3931" lon="6.08128">
        <ele>282.79998779297</ele>
        <time>2017-02-01T13:25:51Z</time>
      </trkpt>
      <trkpt lat="43.39307" lon="6.08139">
        <ele>283.79998779297</ele>
        <time>2017-02-01T13:25:57Z</time>
      </trkpt>
      <trkpt lat="43.39306" lon="6.08142">
        <ele>284</ele>
        <time>2017-02-01T13:25:59Z</time>
      </trkpt>
      <trkpt lat="43.39302" lon="6.08158">
        <ele>284.79998779297</ele>
        <time>2017-02-01T13:26:07Z</time>
      </trkpt>
      <trkpt lat="43.39302" lon="6.08162">
        <ele>284.79998779297</ele>
        <time>2017-02-01T13:26:09Z</time>
      </trkpt>
      <trkpt lat="43.39297" lon="6.08173">
        <ele>286</ele>
        <time>2017-02-01T13:26:15Z</time>
      </trkpt>
      <trkpt lat="43.39291" lon="6.08189">
        <ele>287</ele>
        <time>2017-02-01T13:26:24Z</time>
      </trkpt>
      <trkpt lat="43.39289" lon="6.08195">
        <ele>287.20001220703</ele>
        <time>2017-02-01T13:26:27Z</time>
      </trkpt>
      <trkpt lat="43.39285" lon="6.0821">
        <ele>288.20001220703</ele>
        <time>2017-02-01T13:26:34Z</time>
      </trkpt>
      <trkpt lat="43.39284" lon="6.08217">
        <ele>288.60000610352</ele>
        <time>2017-02-01T13:26:37Z</time>
      </trkpt>
      <trkpt lat="43.39282" lon="6.08226">
        <ele>289.39999389648</ele>
        <time>2017-02-01T13:26:42Z</time>
      </trkpt>
      <trkpt lat="43.39282" lon="6.08228">
        <ele>289.39999389648</ele>
        <time>2017-02-01T13:26:43Z</time>
      </trkpt>
      <trkpt lat="43.3928" lon="6.08236">
        <ele>289.60000610352</ele>
        <time>2017-02-01T13:26:47Z</time>
      </trkpt>
      <trkpt lat="43.39275" lon="6.08249">
        <ele>290.39999389648</ele>
        <time>2017-02-01T13:26:54Z</time>
      </trkpt>
      <trkpt lat="43.39268" lon="6.0826">
        <ele>291.39999389648</ele>
        <time>2017-02-01T13:27:01Z</time>
      </trkpt>
      <trkpt lat="43.39261" lon="6.08275">
        <ele>292.60000610352</ele>
        <time>2017-02-01T13:27:10Z</time>
      </trkpt>
      <trkpt lat="43.39257" lon="6.08285">
        <ele>293.60000610352</ele>
        <time>2017-02-01T13:27:16Z</time>
      </trkpt>
      <trkpt lat="43.39256" lon="6.08288">
        <ele>293.60000610352</ele>
        <time>2017-02-01T13:27:18Z</time>
      </trkpt>
      <trkpt lat="43.39251" lon="6.08305">
        <ele>294.60000610352</ele>
        <time>2017-02-01T13:27:27Z</time>
      </trkpt>
      <trkpt lat="43.3925" lon="6.08311">
        <ele>295.60000610352</ele>
        <time>2017-02-01T13:27:31Z</time>
      </trkpt>
      <trkpt lat="43.39248" lon="6.08324">
        <ele>296.79998779297</ele>
        <time>2017-02-01T13:27:38Z</time>
      </trkpt>
      <trkpt lat="43.39245" lon="6.08336">
        <ele>297.79998779297</ele>
        <time>2017-02-01T13:27:44Z</time>
      </trkpt>
      <trkpt lat="43.39243" lon="6.08344">
        <ele>298.20001220703</ele>
        <time>2017-02-01T13:27:48Z</time>
      </trkpt>
      <trkpt lat="43.39238" lon="6.08359">
        <ele>299</ele>
        <time>2017-02-01T13:27:57Z</time>
      </trkpt>
      <trkpt lat="43.39232" lon="6.08374">
        <ele>300</ele>
        <time>2017-02-01T13:28:07Z</time>
      </trkpt>
      <trkpt lat="43.3923" lon="6.08383">
        <ele>300.60000610352</ele>
        <time>2017-02-01T13:28:13Z</time>
      </trkpt>
      <trkpt lat="43.39228" lon="6.0839">
        <ele>301.39999389648</ele>
        <time>2017-02-01T13:28:17Z</time>
      </trkpt>
      <trkpt lat="43.39223" lon="6.08405">
        <ele>302.79998779297</ele>
        <time>2017-02-01T13:28:27Z</time>
      </trkpt>
      <trkpt lat="43.39223" lon="6.08413">
        <ele>303.39999389648</ele>
        <time>2017-02-01T13:28:32Z</time>
      </trkpt>
      <trkpt lat="43.39221" lon="6.0842">
        <ele>304.39999389648</ele>
        <time>2017-02-01T13:28:37Z</time>
      </trkpt>
      <trkpt lat="43.39221" lon="6.08423">
        <ele>304.39999389648</ele>
        <time>2017-02-01T13:28:39Z</time>
      </trkpt>
      <trkpt lat="43.39218" lon="6.08437">
        <ele>305.60000610352</ele>
        <time>2017-02-01T13:28:47Z</time>
      </trkpt>
      <trkpt lat="43.39215" lon="6.08451">
        <ele>306.79998779297</ele>
        <time>2017-02-01T13:28:55Z</time>
      </trkpt>
      <trkpt lat="43.39213" lon="6.08462">
        <ele>307.79998779297</ele>
        <time>2017-02-01T13:29:02Z</time>
      </trkpt>
      <trkpt lat="43.39211" lon="6.08468">
        <ele>308.39999389648</ele>
        <time>2017-02-01T13:29:07Z</time>
      </trkpt>
      <trkpt lat="43.3921" lon="6.08472">
        <ele>309</ele>
        <time>2017-02-01T13:29:10Z</time>
      </trkpt>
      <trkpt lat="43.39207" lon="6.08481">
        <ele>310</ele>
        <time>2017-02-01T13:29:16Z</time>
      </trkpt>
      <trkpt lat="43.39207" lon="6.08483">
        <ele>310.20001220703</ele>
        <time>2017-02-01T13:29:17Z</time>
      </trkpt>
      <trkpt lat="43.39203" lon="6.0849">
        <ele>310.39999389648</ele>
        <time>2017-02-01T13:29:23Z</time>
      </trkpt>
      <trkpt lat="43.39202" lon="6.08493">
        <ele>310.60000610352</ele>
        <time>2017-02-01T13:29:26Z</time>
      </trkpt>
      <trkpt lat="43.39202" lon="6.08495">
        <ele>310.60000610352</ele>
        <time>2017-02-01T13:29:28Z</time>
      </trkpt>
      <trkpt lat="43.39202" lon="6.08494">
        <ele>310.60000610352</ele>
        <time>2017-02-01T13:29:31Z</time>
      </trkpt>
      <trkpt lat="43.39201" lon="6.08495">
        <ele>310.60000610352</ele>
        <time>2017-02-01T13:29:34Z</time>
      </trkpt>
      <trkpt lat="43.39201" lon="6.08494">
        <ele>310.60000610352</ele>
        <time>2017-02-01T13:29:38Z</time>
      </trkpt>
      <trkpt lat="43.39201" lon="6.08494">
        <ele>311</ele>
        <time>2017-02-01T13:29:46Z</time>
      </trkpt>
      <trkpt lat="43.39201" lon="6.08494">
        <ele>311</ele>
        <time>2017-02-01T13:29:48Z</time>
      </trkpt>
      <trkpt lat="43.39201" lon="6.08494">
        <ele>310.79998779297</ele>
        <time>2017-02-01T13:29:52Z</time>
      </trkpt>
      <trkpt lat="43.39201" lon="6.08494">
        <ele>310.39999389648</ele>
        <time>2017-02-01T13:29:57Z</time>
      </trkpt>
      <trkpt lat="43.39201" lon="6.08494">
        <ele>310.20001220703</ele>
        <time>2017-02-01T13:30:01Z</time>
      </trkpt>
      <trkpt lat="43.39201" lon="6.08494">
        <ele>310.39999389648</ele>
        <time>2017-02-01T13:30:04Z</time>
      </trkpt>
      <trkpt lat="43.39201" lon="6.08494">
        <ele>310.20001220703</ele>
        <time>2017-02-01T13:30:18Z</time>
      </trkpt>
      <trkpt lat="43.39201" lon="6.08494">
        <ele>310.39999389648</ele>
        <time>2017-02-01T13:30:21Z</time>
      </trkpt>
      <trkpt lat="43.39201" lon="6.08493">
        <ele>311</ele>
        <time>2017-02-01T13:30:26Z</time>
      </trkpt>
      <trkpt lat="43.392" lon="6.0849">
        <ele>311.20001220703</ele>
        <time>2017-02-01T13:30:38Z</time>
      </trkpt>
      <trkpt lat="43.39201" lon="6.08488">
        <ele>311</ele>
        <time>2017-02-01T13:30:48Z</time>
      </trkpt>
      <trkpt lat="43.392" lon="6.08486">
        <ele>311</ele>
        <time>2017-02-01T13:30:58Z</time>
      </trkpt>
      <trkpt lat="43.392" lon="6.08486">
        <ele>311.20001220703</ele>
        <time>2017-02-01T13:31:08Z</time>
      </trkpt>
      <trkpt lat="43.39196" lon="6.08488">
        <ele>311</ele>
        <time>2017-02-01T13:31:28Z</time>
      </trkpt>
      <trkpt lat="43.39194" lon="6.08491">
        <ele>310.79998779297</ele>
        <time>2017-02-01T13:31:49Z</time>
      </trkpt>
      <trkpt lat="43.39193" lon="6.0849">
        <ele>310.79998779297</ele>
        <time>2017-02-01T13:31:53Z</time>
      </trkpt>
      <trkpt lat="43.39192" lon="6.0849">
        <ele>310.79998779297</ele>
        <time>2017-02-01T13:31:59Z</time>
      </trkpt>
      <trkpt lat="43.39191" lon="6.08489">
        <ele>310.79998779297</ele>
        <time>2017-02-01T13:32:09Z</time>
      </trkpt>
      <trkpt lat="43.3919" lon="6.08486">
        <ele>310.60000610352</ele>
        <time>2017-02-01T13:32:19Z</time>
      </trkpt>
      <trkpt lat="43.3919" lon="6.08486">
        <ele>310.60000610352</ele>
        <time>2017-02-01T13:32:29Z</time>
      </trkpt>
      <trkpt lat="43.39191" lon="6.08488">
        <ele>310.79998779297</ele>
        <time>2017-02-01T13:32:39Z</time>
      </trkpt>
      <trkpt lat="43.39192" lon="6.08489">
        <ele>310.79998779297</ele>
        <time>2017-02-01T13:32:43Z</time>
      </trkpt>
      <trkpt lat="43.39193" lon="6.08489">
        <ele>310.79998779297</ele>
        <time>2017-02-01T13:32:49Z</time>
      </trkpt>
      <trkpt lat="43.39193" lon="6.08489">
        <ele>310.79998779297</ele>
        <time>2017-02-01T13:32:59Z</time>
      </trkpt>
      <trkpt lat="43.39193" lon="6.0849">
        <ele>310.79998779297</ele>
        <time>2017-02-01T13:33:09Z</time>
      </trkpt>
      <trkpt lat="43.39193" lon="6.08491">
        <ele>310.79998779297</ele>
        <time>2017-02-01T13:33:20Z</time>
      </trkpt>
      <trkpt lat="43.39191" lon="6.08492">
        <ele>310.79998779297</ele>
        <time>2017-02-01T13:33:24Z</time>
      </trkpt>
      <trkpt lat="43.3919" lon="6.08495">
        <ele>310.79998779297</ele>
        <time>2017-02-01T13:33:26Z</time>
      </trkpt>
      <trkpt lat="43.3919" lon="6.08497">
        <ele>310</ele>
        <time>2017-02-01T13:33:27Z</time>
      </trkpt>
      <trkpt lat="43.39189" lon="6.08499">
        <ele>309.79998779297</ele>
        <time>2017-02-01T13:33:28Z</time>
      </trkpt>
      <trkpt lat="43.39187" lon="6.08505">
        <ele>309.79998779297</ele>
        <time>2017-02-01T13:33:31Z</time>
      </trkpt>
      <trkpt lat="43.39177" lon="6.08533">
        <ele>309.39999389648</ele>
        <time>2017-02-01T13:33:41Z</time>
      </trkpt>
      <trkpt lat="43.39173" lon="6.08549">
        <ele>308.79998779297</ele>
        <time>2017-02-01T13:33:45Z</time>
      </trkpt>
      <trkpt lat="43.39167" lon="6.08578">
        <ele>308.20001220703</ele>
        <time>2017-02-01T13:33:51Z</time>
      </trkpt>
      <trkpt lat="43.39157" lon="6.08626">
        <ele>307.60000610352</ele>
        <time>2017-02-01T13:34:00Z</time>
      </trkpt>
      <trkpt lat="43.39148" lon="6.08673">
        <ele>307.20001220703</ele>
        <time>2017-02-01T13:34:09Z</time>
      </trkpt>
      <trkpt lat="43.39147" lon="6.08684">
        <ele>307</ele>
        <time>2017-02-01T13:34:11Z</time>
      </trkpt>
      <trkpt lat="43.39143" lon="6.08717">
        <ele>307.79998779297</ele>
        <time>2017-02-01T13:34:17Z</time>
      </trkpt>
      <trkpt lat="43.39136" lon="6.08756">
        <ele>308</ele>
        <time>2017-02-01T13:34:25Z</time>
      </trkpt>
      <trkpt lat="43.3913" lon="6.08775">
        <ele>308.60000610352</ele>
        <time>2017-02-01T13:34:29Z</time>
      </trkpt>
      <trkpt lat="43.39118" lon="6.08819">
        <ele>308.60000610352</ele>
        <time>2017-02-01T13:34:38Z</time>
      </trkpt>
      <trkpt lat="43.39114" lon="6.08839">
        <ele>309.20001220703</ele>
        <time>2017-02-01T13:34:42Z</time>
      </trkpt>
      <trkpt lat="43.39113" lon="6.08848">
        <ele>309.79998779297</ele>
        <time>2017-02-01T13:34:44Z</time>
      </trkpt>
      <trkpt lat="43.39104" lon="6.08882">
        <ele>310.79998779297</ele>
        <time>2017-02-01T13:34:53Z</time>
      </trkpt>
      <trkpt lat="43.39104" lon="6.08886">
        <ele>311</ele>
        <time>2017-02-01T13:34:54Z</time>
      </trkpt>
      <trkpt lat="43.39098" lon="6.08924">
        <ele>310.79998779297</ele>
        <time>2017-02-01T13:35:03Z</time>
      </trkpt>
      <trkpt lat="43.3909" lon="6.08959">
        <ele>311.39999389648</ele>
        <time>2017-02-01T13:35:12Z</time>
      </trkpt>
      <trkpt lat="43.39076" lon="6.08994">
        <ele>311.60000610352</ele>
        <time>2017-02-01T13:35:22Z</time>
      </trkpt>
      <trkpt lat="43.39071" lon="6.09002">
        <ele>312.20001220703</ele>
        <time>2017-02-01T13:35:25Z</time>
      </trkpt>
      <trkpt lat="43.3906" lon="6.09026">
        <ele>312.79998779297</ele>
        <time>2017-02-01T13:35:32Z</time>
      </trkpt>
      <trkpt lat="43.39049" lon="6.09052">
        <ele>313.20001220703</ele>
        <time>2017-02-01T13:35:40Z</time>
      </trkpt>
      <trkpt lat="43.39045" lon="6.09062">
        <ele>313.60000610352</ele>
        <time>2017-02-01T13:35:43Z</time>
      </trkpt>
      <trkpt lat="43.3903" lon="6.09096">
        <ele>314.20001220703</ele>
        <time>2017-02-01T13:35:53Z</time>
      </trkpt>
      <trkpt lat="43.3903" lon="6.09099">
        <ele>314.20001220703</ele>
        <time>2017-02-01T13:35:54Z</time>
      </trkpt>
      <trkpt lat="43.39029" lon="6.09104">
        <ele>314.39999389648</ele>
        <time>2017-02-01T13:35:56Z</time>
      </trkpt>
      <trkpt lat="43.3902" lon="6.0913">
        <ele>314.79998779297</ele>
        <time>2017-02-01T13:36:04Z</time>
      </trkpt>
      <trkpt lat="43.39016" lon="6.09149">
        <ele>314.79998779297</ele>
        <time>2017-02-01T13:36:09Z</time>
      </trkpt>
      <trkpt lat="43.39011" lon="6.09163">
        <ele>315.79998779297</ele>
        <time>2017-02-01T13:36:13Z</time>
      </trkpt>
      <trkpt lat="43.39007" lon="6.09176">
        <ele>316.60000610352</ele>
        <time>2017-02-01T13:36:17Z</time>
      </trkpt>
      <trkpt lat="43.39003" lon="6.09197">
        <ele>316.79998779297</ele>
        <time>2017-02-01T13:36:23Z</time>
      </trkpt>
      <trkpt lat="43.38996" lon="6.09236">
        <ele>316.60000610352</ele>
        <time>2017-02-01T13:36:33Z</time>
      </trkpt>
      <trkpt lat="43.38986" lon="6.09271">
        <ele>317.60000610352</ele>
        <time>2017-02-01T13:36:42Z</time>
      </trkpt>
      <trkpt lat="43.38984" lon="6.09279">
        <ele>318</ele>
        <time>2017-02-01T13:36:44Z</time>
      </trkpt>
      <trkpt lat="43.38981" lon="6.09284">
        <ele>318.20001220703</ele>
        <time>2017-02-01T13:36:46Z</time>
      </trkpt>
      <trkpt lat="43.38969" lon="6.09302">
        <ele>318.79998779297</ele>
        <time>2017-02-01T13:36:53Z</time>
      </trkpt>
      <trkpt lat="43.38957" lon="6.09323">
        <ele>320</ele>
        <time>2017-02-01T13:37:00Z</time>
      </trkpt>
      <trkpt lat="43.38949" lon="6.09337">
        <ele>320.20001220703</ele>
        <time>2017-02-01T13:37:05Z</time>
      </trkpt>
      <trkpt lat="43.38943" lon="6.09342">
        <ele>320.39999389648</ele>
        <time>2017-02-01T13:37:08Z</time>
      </trkpt>
      <trkpt lat="43.38927" lon="6.09359">
        <ele>320.79998779297</ele>
        <time>2017-02-01T13:37:15Z</time>
      </trkpt>
      <trkpt lat="43.38917" lon="6.0937">
        <ele>321</ele>
        <time>2017-02-01T13:37:20Z</time>
      </trkpt>
      <trkpt lat="43.3891" lon="6.09377">
        <ele>321.60000610352</ele>
        <time>2017-02-01T13:37:24Z</time>
      </trkpt>
      <trkpt lat="43.38907" lon="6.09381">
        <ele>321.79998779297</ele>
        <time>2017-02-01T13:37:26Z</time>
      </trkpt>
      <trkpt lat="43.38904" lon="6.09383">
        <ele>322</ele>
        <time>2017-02-01T13:37:28Z</time>
      </trkpt>
      <trkpt lat="43.38902" lon="6.09387">
        <ele>323</ele>
        <time>2017-02-01T13:37:30Z</time>
      </trkpt>
      <trkpt lat="43.38901" lon="6.09389">
        <ele>323.39999389648</ele>
        <time>2017-02-01T13:37:31Z</time>
      </trkpt>
      <trkpt lat="43.38897" lon="6.09393">
        <ele>324.20001220703</ele>
        <time>2017-02-01T13:37:34Z</time>
      </trkpt>
      <trkpt lat="43.38895" lon="6.09395">
        <ele>324.20001220703</ele>
        <time>2017-02-01T13:37:35Z</time>
      </trkpt>
      <trkpt lat="43.38892" lon="6.09399">
        <ele>324.39999389648</ele>
        <time>2017-02-01T13:37:38Z</time>
      </trkpt>
      <trkpt lat="43.38889" lon="6.09405">
        <ele>325.39999389648</ele>
        <time>2017-02-01T13:37:42Z</time>
      </trkpt>
      <trkpt lat="43.38888" lon="6.0941">
        <ele>325.60000610352</ele>
        <time>2017-02-01T13:37:45Z</time>
      </trkpt>
      <trkpt lat="43.38887" lon="6.09416">
        <ele>325.60000610352</ele>
        <time>2017-02-01T13:37:48Z</time>
      </trkpt>
      <trkpt lat="43.38885" lon="6.09418">
        <ele>326.39999389648</ele>
        <time>2017-02-01T13:37:54Z</time>
      </trkpt>
      <trkpt lat="43.38885" lon="6.09418">
        <ele>326.60000610352</ele>
        <time>2017-02-01T13:37:56Z</time>
      </trkpt>
      <trkpt lat="43.38883" lon="6.09418">
        <ele>326.79998779297</ele>
        <time>2017-02-01T13:38:02Z</time>
      </trkpt>
      <trkpt lat="43.38878" lon="6.09419">
        <ele>327</ele>
        <time>2017-02-01T13:38:17Z</time>
      </trkpt>
      <trkpt lat="43.38877" lon="6.09419">
        <ele>327.39999389648</ele>
        <time>2017-02-01T13:38:20Z</time>
      </trkpt>
      <trkpt lat="43.38876" lon="6.09421">
        <ele>327.79998779297</ele>
        <time>2017-02-01T13:38:22Z</time>
      </trkpt>
      <trkpt lat="43.38875" lon="6.0942">
        <ele>327.39999389648</ele>
        <time>2017-02-01T13:38:27Z</time>
      </trkpt>
      <trkpt lat="43.38873" lon="6.09423">
        <ele>327.79998779297</ele>
        <time>2017-02-01T13:38:36Z</time>
      </trkpt>
      <trkpt lat="43.38872" lon="6.09424">
        <ele>327.79998779297</ele>
        <time>2017-02-01T13:38:37Z</time>
      </trkpt>
      <trkpt lat="43.38872" lon="6.09426">
        <ele>328</ele>
        <time>2017-02-01T13:38:39Z</time>
      </trkpt>
      <trkpt lat="43.38872" lon="6.09427">
        <ele>328.39999389648</ele>
        <time>2017-02-01T13:38:41Z</time>
      </trkpt>
      <trkpt lat="43.38872" lon="6.09427">
        <ele>328.60000610352</ele>
        <time>2017-02-01T13:38:42Z</time>
      </trkpt>
      <trkpt lat="43.38872" lon="6.09427">
        <ele>328.60000610352</ele>
        <time>2017-02-01T13:38:45Z</time>
      </trkpt>
      <trkpt lat="43.38872" lon="6.09427">
        <ele>328.60000610352</ele>
        <time>2017-02-01T13:38:47Z</time>
      </trkpt>
      <trkpt lat="43.38872" lon="6.0943">
        <ele>328.79998779297</ele>
        <time>2017-02-01T13:38:56Z</time>
      </trkpt>
      <trkpt lat="43.38873" lon="6.0943">
        <ele>328.60000610352</ele>
        <time>2017-02-01T13:38:59Z</time>
      </trkpt>
      <trkpt lat="43.38873" lon="6.09429">
        <ele>328.60000610352</ele>
        <time>2017-02-01T13:39:05Z</time>
      </trkpt>
      <trkpt lat="43.3887" lon="6.09431">
        <ele>328.20001220703</ele>
        <time>2017-02-01T13:39:17Z</time>
      </trkpt>
      <trkpt lat="43.38871" lon="6.09436">
        <ele>328</ele>
        <time>2017-02-01T13:39:23Z</time>
      </trkpt>
      <trkpt lat="43.38875" lon="6.09446">
        <ele>328</ele>
        <time>2017-02-01T13:39:27Z</time>
      </trkpt>
      <trkpt lat="43.38876" lon="6.09459">
        <ele>328</ele>
        <time>2017-02-01T13:39:31Z</time>
      </trkpt>
      <trkpt lat="43.38873" lon="6.09472">
        <ele>327.60000610352</ele>
        <time>2017-02-01T13:39:35Z</time>
      </trkpt>
      <trkpt lat="43.38871" lon="6.09479">
        <ele>327.20001220703</ele>
        <time>2017-02-01T13:39:37Z</time>
      </trkpt>
      <trkpt lat="43.3887" lon="6.09513">
        <ele>326.60000610352</ele>
        <time>2017-02-01T13:39:47Z</time>
      </trkpt>
      <trkpt lat="43.38873" lon="6.09558">
        <ele>326.39999389648</ele>
        <time>2017-02-01T13:39:58Z</time>
      </trkpt>
      <trkpt lat="43.38873" lon="6.09562">
        <ele>326.39999389648</ele>
        <time>2017-02-01T13:39:59Z</time>
      </trkpt>
      <trkpt lat="43.38874" lon="6.09578">
        <ele>325.60000610352</ele>
        <time>2017-02-01T13:40:02Z</time>
      </trkpt>
      <trkpt lat="43.38876" lon="6.09589">
        <ele>325.20001220703</ele>
        <time>2017-02-01T13:40:04Z</time>
      </trkpt>
      <trkpt lat="43.38882" lon="6.09611">
        <ele>324.79998779297</ele>
        <time>2017-02-01T13:40:08Z</time>
      </trkpt>
      <trkpt lat="43.38884" lon="6.09615">
        <ele>324.60000610352</ele>
        <time>2017-02-01T13:40:09Z</time>
      </trkpt>
      <trkpt lat="43.38895" lon="6.09637">
        <ele>324</ele>
        <time>2017-02-01T13:40:15Z</time>
      </trkpt>
      <trkpt lat="43.38896" lon="6.09653">
        <ele>323.39999389648</ele>
        <time>2017-02-01T13:40:18Z</time>
      </trkpt>
      <trkpt lat="43.38896" lon="6.09671">
        <ele>322.79998779297</ele>
        <time>2017-02-01T13:40:21Z</time>
      </trkpt>
      <trkpt lat="43.38898" lon="6.09705">
        <ele>321.79998779297</ele>
        <time>2017-02-01T13:40:27Z</time>
      </trkpt>
      <trkpt lat="43.389" lon="6.09717">
        <ele>320.79998779297</ele>
        <time>2017-02-01T13:40:29Z</time>
      </trkpt>
      <trkpt lat="43.38901" lon="6.09723">
        <ele>320.39999389648</ele>
        <time>2017-02-01T13:40:30Z</time>
      </trkpt>
      <trkpt lat="43.38901" lon="6.09749">
        <ele>319.79998779297</ele>
        <time>2017-02-01T13:40:34Z</time>
      </trkpt>
      <trkpt lat="43.38898" lon="6.09772">
        <ele>319.20001220703</ele>
        <time>2017-02-01T13:40:37Z</time>
      </trkpt>
      <trkpt lat="43.38895" lon="6.09788">
        <ele>318</ele>
        <time>2017-02-01T13:40:39Z</time>
      </trkpt>
      <trkpt lat="43.38891" lon="6.09805">
        <ele>317</ele>
        <time>2017-02-01T13:40:41Z</time>
      </trkpt>
      <trkpt lat="43.38888" lon="6.09832">
        <ele>315.39999389648</ele>
        <time>2017-02-01T13:40:44Z</time>
      </trkpt>
      <trkpt lat="43.38887" lon="6.09841">
        <ele>314</ele>
        <time>2017-02-01T13:40:45Z</time>
      </trkpt>
      <trkpt lat="43.38885" lon="6.0986">
        <ele>311.79998779297</ele>
        <time>2017-02-01T13:40:47Z</time>
      </trkpt>
      <trkpt lat="43.38884" lon="6.0987">
        <ele>310.79998779297</ele>
        <time>2017-02-01T13:40:48Z</time>
      </trkpt>
      <trkpt lat="43.38882" lon="6.09879">
        <ele>309.60000610352</ele>
        <time>2017-02-01T13:40:49Z</time>
      </trkpt>
      <trkpt lat="43.38879" lon="6.09889">
        <ele>308.60000610352</ele>
        <time>2017-02-01T13:40:50Z</time>
      </trkpt>
      <trkpt lat="43.38874" lon="6.09909">
        <ele>307</ele>
        <time>2017-02-01T13:40:52Z</time>
      </trkpt>
      <trkpt lat="43.38869" lon="6.0993">
        <ele>305.39999389648</ele>
        <time>2017-02-01T13:40:54Z</time>
      </trkpt>
      <trkpt lat="43.38866" lon="6.0994">
        <ele>304.20001220703</ele>
        <time>2017-02-01T13:40:55Z</time>
      </trkpt>
      <trkpt lat="43.38865" lon="6.09949">
        <ele>303.20001220703</ele>
        <time>2017-02-01T13:40:56Z</time>
      </trkpt>
      <trkpt lat="43.38864" lon="6.09959">
        <ele>302.60000610352</ele>
        <time>2017-02-01T13:40:57Z</time>
      </trkpt>
      <trkpt lat="43.38862" lon="6.09981">
        <ele>301.79998779297</ele>
        <time>2017-02-01T13:40:59Z</time>
      </trkpt>
      <trkpt lat="43.38861" lon="6.09992">
        <ele>301.39999389648</ele>
        <time>2017-02-01T13:41:00Z</time>
      </trkpt>
      <trkpt lat="43.38857" lon="6.10013">
        <ele>299.60000610352</ele>
        <time>2017-02-01T13:41:02Z</time>
      </trkpt>
      <trkpt lat="43.38851" lon="6.10036">
        <ele>297.79998779297</ele>
        <time>2017-02-01T13:41:04Z</time>
      </trkpt>
      <trkpt lat="43.38845" lon="6.10058">
        <ele>296.60000610352</ele>
        <time>2017-02-01T13:41:06Z</time>
      </trkpt>
      <trkpt lat="43.38839" lon="6.1008">
        <ele>295</ele>
        <time>2017-02-01T13:41:08Z</time>
      </trkpt>
      <trkpt lat="43.38836" lon="6.1009">
        <ele>294</ele>
        <time>2017-02-01T13:41:09Z</time>
      </trkpt>
      <trkpt lat="43.38834" lon="6.101">
        <ele>293.20001220703</ele>
        <time>2017-02-01T13:41:10Z</time>
      </trkpt>
      <trkpt lat="43.38828" lon="6.10119">
        <ele>292.20001220703</ele>
        <time>2017-02-01T13:41:12Z</time>
      </trkpt>
      <trkpt lat="43.3882" lon="6.10151">
        <ele>291.20001220703</ele>
        <time>2017-02-01T13:41:19Z</time>
      </trkpt>
      <trkpt lat="43.3882" lon="6.10151">
        <ele>291.20001220703</ele>
        <time>2017-02-01T13:41:20Z</time>
      </trkpt>
      <trkpt lat="43.38821" lon="6.10153">
        <ele>291</ele>
        <time>2017-02-01T13:41:27Z</time>
      </trkpt>
      <trkpt lat="43.38822" lon="6.10157">
        <ele>291</ele>
        <time>2017-02-01T13:41:29Z</time>
      </trkpt>
      <trkpt lat="43.38822" lon="6.10166">
        <ele>290.79998779297</ele>
        <time>2017-02-01T13:41:32Z</time>
      </trkpt>
      <trkpt lat="43.38823" lon="6.10171">
        <ele>290.79998779297</ele>
        <time>2017-02-01T13:41:33Z</time>
      </trkpt>
      <trkpt lat="43.38823" lon="6.10181">
        <ele>290.79998779297</ele>
        <time>2017-02-01T13:41:35Z</time>
      </trkpt>
      <trkpt lat="43.38817" lon="6.10194">
        <ele>290.79998779297</ele>
        <time>2017-02-01T13:41:38Z</time>
      </trkpt>
      <trkpt lat="43.38815" lon="6.10208">
        <ele>292.39999389648</ele>
        <time>2017-02-01T13:41:42Z</time>
      </trkpt>
      <trkpt lat="43.38815" lon="6.10219">
        <ele>293.20001220703</ele>
        <time>2017-02-01T13:41:45Z</time>
      </trkpt>
      <trkpt lat="43.38815" lon="6.10223">
        <ele>293.39999389648</ele>
        <time>2017-02-01T13:41:46Z</time>
      </trkpt>
      <trkpt lat="43.38819" lon="6.10232">
        <ele>293.60000610352</ele>
        <time>2017-02-01T13:41:49Z</time>
      </trkpt>
      <trkpt lat="43.38823" lon="6.10252">
        <ele>292</ele>
        <time>2017-02-01T13:41:54Z</time>
      </trkpt>
      <trkpt lat="43.38826" lon="6.10275">
        <ele>291</ele>
        <time>2017-02-01T13:41:58Z</time>
      </trkpt>
      <trkpt lat="43.38826" lon="6.10281">
        <ele>290.79998779297</ele>
        <time>2017-02-01T13:41:59Z</time>
      </trkpt>
      <trkpt lat="43.38828" lon="6.103">
        <ele>290.20001220703</ele>
        <time>2017-02-01T13:42:02Z</time>
      </trkpt>
      <trkpt lat="43.38827" lon="6.10313">
        <ele>289.79998779297</ele>
        <time>2017-02-01T13:42:04Z</time>
      </trkpt>
      <trkpt lat="43.38827" lon="6.10344">
        <ele>289.60000610352</ele>
        <time>2017-02-01T13:42:09Z</time>
      </trkpt>
      <trkpt lat="43.38828" lon="6.10382">
        <ele>288.60000610352</ele>
        <time>2017-02-01T13:42:14Z</time>
      </trkpt>
      <trkpt lat="43.38828" lon="6.10406">
        <ele>287.60000610352</ele>
        <time>2017-02-01T13:42:17Z</time>
      </trkpt>
      <trkpt lat="43.38826" lon="6.10423">
        <ele>287.20001220703</ele>
        <time>2017-02-01T13:42:19Z</time>
      </trkpt>
      <trkpt lat="43.38823" lon="6.10439">
        <ele>286.79998779297</ele>
        <time>2017-02-01T13:42:21Z</time>
      </trkpt>
      <trkpt lat="43.38823" lon="6.10448">
        <ele>286.60000610352</ele>
        <time>2017-02-01T13:42:22Z</time>
      </trkpt>
      <trkpt lat="43.38822" lon="6.10465">
        <ele>285.39999389648</ele>
        <time>2017-02-01T13:42:24Z</time>
      </trkpt>
      <trkpt lat="43.38821" lon="6.10473">
        <ele>284.79998779297</ele>
        <time>2017-02-01T13:42:25Z</time>
      </trkpt>
      <trkpt lat="43.38818" lon="6.10489">
        <ele>283.79998779297</ele>
        <time>2017-02-01T13:42:27Z</time>
      </trkpt>
      <trkpt lat="43.38816" lon="6.10496">
        <ele>283.20001220703</ele>
        <time>2017-02-01T13:42:28Z</time>
      </trkpt>
      <trkpt lat="43.38815" lon="6.10503">
        <ele>282.79998779297</ele>
        <time>2017-02-01T13:42:29Z</time>
      </trkpt>
      <trkpt lat="43.38812" lon="6.10511">
        <ele>282.60000610352</ele>
        <time>2017-02-01T13:42:30Z</time>
      </trkpt>
      <trkpt lat="43.3881" lon="6.10517">
        <ele>282.20001220703</ele>
        <time>2017-02-01T13:42:31Z</time>
      </trkpt>
      <trkpt lat="43.38809" lon="6.10523">
        <ele>282</ele>
        <time>2017-02-01T13:42:32Z</time>
      </trkpt>
      <trkpt lat="43.38807" lon="6.10549">
        <ele>281.60000610352</ele>
        <time>2017-02-01T13:42:38Z</time>
      </trkpt>
      <trkpt lat="43.38804" lon="6.10555">
        <ele>281.79998779297</ele>
        <time>2017-02-01T13:42:40Z</time>
      </trkpt>
      <trkpt lat="43.38802" lon="6.10559">
        <ele>281.60000610352</ele>
        <time>2017-02-01T13:42:41Z</time>
      </trkpt>
      <trkpt lat="43.388" lon="6.10584">
        <ele>281</ele>
        <time>2017-02-01T13:42:46Z</time>
      </trkpt>
      <trkpt lat="43.38799" lon="6.1059">
        <ele>280.79998779297</ele>
        <time>2017-02-01T13:42:47Z</time>
      </trkpt>
      <trkpt lat="43.38795" lon="6.10608">
        <ele>279.79998779297</ele>
        <time>2017-02-01T13:42:50Z</time>
      </trkpt>
      <trkpt lat="43.38793" lon="6.10613">
        <ele>279.39999389648</ele>
        <time>2017-02-01T13:42:51Z</time>
      </trkpt>
      <trkpt lat="43.38792" lon="6.10619">
        <ele>279</ele>
        <time>2017-02-01T13:42:52Z</time>
      </trkpt>
      <trkpt lat="43.38792" lon="6.10625">
        <ele>278.79998779297</ele>
        <time>2017-02-01T13:42:53Z</time>
      </trkpt>
      <trkpt lat="43.38789" lon="6.10648">
        <ele>277.79998779297</ele>
        <time>2017-02-01T13:43:01Z</time>
      </trkpt>
      <trkpt lat="43.38788" lon="6.10651">
        <ele>277.60000610352</ele>
        <time>2017-02-01T13:43:02Z</time>
      </trkpt>
      <trkpt lat="43.38785" lon="6.10661">
        <ele>277.39999389648</ele>
        <time>2017-02-01T13:43:05Z</time>
      </trkpt>
      <trkpt lat="43.38781" lon="6.10681">
        <ele>277.20001220703</ele>
        <time>2017-02-01T13:43:11Z</time>
      </trkpt>
      <trkpt lat="43.38778" lon="6.10693">
        <ele>276.60000610352</ele>
        <time>2017-02-01T13:43:14Z</time>
      </trkpt>
      <trkpt lat="43.38773" lon="6.10718">
        <ele>276.39999389648</ele>
        <time>2017-02-01T13:43:20Z</time>
      </trkpt>
      <trkpt lat="43.38773" lon="6.10722">
        <ele>276.20001220703</ele>
        <time>2017-02-01T13:43:21Z</time>
      </trkpt>
      <trkpt lat="43.38771" lon="6.10726">
        <ele>276</ele>
        <time>2017-02-01T13:43:22Z</time>
      </trkpt>
      <trkpt lat="43.3877" lon="6.10737">
        <ele>275.60000610352</ele>
        <time>2017-02-01T13:43:25Z</time>
      </trkpt>
      <trkpt lat="43.3877" lon="6.10744">
        <ele>275.20001220703</ele>
        <time>2017-02-01T13:43:28Z</time>
      </trkpt>
      <trkpt lat="43.3877" lon="6.10744">
        <ele>275</ele>
        <time>2017-02-01T13:43:31Z</time>
      </trkpt>
      <trkpt lat="43.38769" lon="6.10745">
        <ele>274.79998779297</ele>
        <time>2017-02-01T13:43:39Z</time>
      </trkpt>
      <trkpt lat="43.38769" lon="6.10745">
        <ele>274.60000610352</ele>
        <time>2017-02-01T13:43:42Z</time>
      </trkpt>
      <trkpt lat="43.38769" lon="6.10746">
        <ele>274.79998779297</ele>
        <time>2017-02-01T13:43:49Z</time>
      </trkpt>
      <trkpt lat="43.38767" lon="6.10752">
        <ele>274.60000610352</ele>
        <time>2017-02-01T13:44:01Z</time>
      </trkpt>
      <trkpt lat="43.38766" lon="6.10754">
        <ele>274.60000610352</ele>
        <time>2017-02-01T13:44:02Z</time>
      </trkpt>
      <trkpt lat="43.38763" lon="6.10757">
        <ele>274.60000610352</ele>
        <time>2017-02-01T13:44:04Z</time>
      </trkpt>
      <trkpt lat="43.38745" lon="6.10765">
        <ele>276</ele>
        <time>2017-02-01T13:44:12Z</time>
      </trkpt>
      <trkpt lat="43.38734" lon="6.1077">
        <ele>276.39999389648</ele>
        <time>2017-02-01T13:44:16Z</time>
      </trkpt>
      <trkpt lat="43.38733" lon="6.10772">
        <ele>276.39999389648</ele>
        <time>2017-02-01T13:44:17Z</time>
      </trkpt>
      <trkpt lat="43.38727" lon="6.10787">
        <ele>276.60000610352</ele>
        <time>2017-02-01T13:44:22Z</time>
      </trkpt>
      <trkpt lat="43.38712" lon="6.10802">
        <ele>276.20001220703</ele>
        <time>2017-02-01T13:44:30Z</time>
      </trkpt>
      <trkpt lat="43.38705" lon="6.10804">
        <ele>276.79998779297</ele>
        <time>2017-02-01T13:44:33Z</time>
      </trkpt>
      <trkpt lat="43.38699" lon="6.10808">
        <ele>277.20001220703</ele>
        <time>2017-02-01T13:44:36Z</time>
      </trkpt>
      <trkpt lat="43.38692" lon="6.10818">
        <ele>277.79998779297</ele>
        <time>2017-02-01T13:44:40Z</time>
      </trkpt>
      <trkpt lat="43.38688" lon="6.10827">
        <ele>278</ele>
        <time>2017-02-01T13:44:43Z</time>
      </trkpt>
      <trkpt lat="43.38681" lon="6.10868">
        <ele>277.20001220703</ele>
        <time>2017-02-01T13:44:54Z</time>
      </trkpt>
      <trkpt lat="43.38676" lon="6.10891">
        <ele>276.79998779297</ele>
        <time>2017-02-01T13:45:00Z</time>
      </trkpt>
      <trkpt lat="43.38671" lon="6.10907">
        <ele>277</ele>
        <time>2017-02-01T13:45:04Z</time>
      </trkpt>
      <trkpt lat="43.38663" lon="6.10946">
        <ele>277.60000610352</ele>
        <time>2017-02-01T13:45:14Z</time>
      </trkpt>
      <trkpt lat="43.3866" lon="6.10968">
        <ele>277.79998779297</ele>
        <time>2017-02-01T13:45:20Z</time>
      </trkpt>
      <trkpt lat="43.38659" lon="6.10983">
        <ele>277.60000610352</ele>
        <time>2017-02-01T13:45:24Z</time>
      </trkpt>
      <trkpt lat="43.38655" lon="6.10999">
        <ele>277.60000610352</ele>
        <time>2017-02-01T13:45:29Z</time>
      </trkpt>
      <trkpt lat="43.38646" lon="6.11001">
        <ele>278</ele>
        <time>2017-02-01T13:45:34Z</time>
      </trkpt>
      <trkpt lat="43.3864" lon="6.11001">
        <ele>279</ele>
        <time>2017-02-01T13:45:37Z</time>
      </trkpt>
      <trkpt lat="43.38634" lon="6.11007">
        <ele>280</ele>
        <time>2017-02-01T13:45:42Z</time>
      </trkpt>
      <trkpt lat="43.38631" lon="6.11008">
        <ele>280</ele>
        <time>2017-02-01T13:45:44Z</time>
      </trkpt>
      <trkpt lat="43.38628" lon="6.11006">
        <ele>280.60000610352</ele>
        <time>2017-02-01T13:45:49Z</time>
      </trkpt>
      <trkpt lat="43.38626" lon="6.11006">
        <ele>281</ele>
        <time>2017-02-01T13:45:53Z</time>
      </trkpt>
      <trkpt lat="43.38626" lon="6.11006">
        <ele>281</ele>
        <time>2017-02-01T13:45:55Z</time>
      </trkpt>
      <trkpt lat="43.38627" lon="6.11006">
        <ele>281</ele>
        <time>2017-02-01T13:46:02Z</time>
      </trkpt>
      <trkpt lat="43.38627" lon="6.11006">
        <ele>280.79998779297</ele>
        <time>2017-02-01T13:46:10Z</time>
      </trkpt>
      <trkpt lat="43.38627" lon="6.11006">
        <ele>280.79998779297</ele>
        <time>2017-02-01T13:46:16Z</time>
      </trkpt>
      <trkpt lat="43.38627" lon="6.11005">
        <ele>281</ele>
        <time>2017-02-01T13:46:20Z</time>
      </trkpt>
      <trkpt lat="43.38625" lon="6.11002">
        <ele>281.20001220703</ele>
        <time>2017-02-01T13:46:23Z</time>
      </trkpt>
      <trkpt lat="43.38622" lon="6.10997">
        <ele>281.60000610352</ele>
        <time>2017-02-01T13:46:26Z</time>
      </trkpt>
      <trkpt lat="43.3862" lon="6.10996">
        <ele>281.79998779297</ele>
        <time>2017-02-01T13:46:27Z</time>
      </trkpt>
      <trkpt lat="43.38614" lon="6.10993">
        <ele>282</ele>
        <time>2017-02-01T13:46:31Z</time>
      </trkpt>
      <trkpt lat="43.38609" lon="6.10989">
        <ele>281.39999389648</ele>
        <time>2017-02-01T13:46:34Z</time>
      </trkpt>
      <trkpt lat="43.38604" lon="6.10987">
        <ele>281.20001220703</ele>
        <time>2017-02-01T13:46:36Z</time>
      </trkpt>
      <trkpt lat="43.38581" lon="6.10988">
        <ele>281</ele>
        <time>2017-02-01T13:46:44Z</time>
      </trkpt>
      <trkpt lat="43.38564" lon="6.10989">
        <ele>280</ele>
        <time>2017-02-01T13:46:48Z</time>
      </trkpt>
      <trkpt lat="43.38559" lon="6.10988">
        <ele>279.60000610352</ele>
        <time>2017-02-01T13:46:49Z</time>
      </trkpt>
      <trkpt lat="43.38554" lon="6.10986">
        <ele>279</ele>
        <time>2017-02-01T13:46:50Z</time>
      </trkpt>
      <trkpt lat="43.38537" lon="6.10978">
        <ele>278</ele>
        <time>2017-02-01T13:46:53Z</time>
      </trkpt>
      <trkpt lat="43.38525" lon="6.10972">
        <ele>276.79998779297</ele>
        <time>2017-02-01T13:46:55Z</time>
      </trkpt>
      <trkpt lat="43.38512" lon="6.10968">
        <ele>275.60000610352</ele>
        <time>2017-02-01T13:46:57Z</time>
      </trkpt>
      <trkpt lat="43.38493" lon="6.10963">
        <ele>274.39999389648</ele>
        <time>2017-02-01T13:47:00Z</time>
      </trkpt>
      <trkpt lat="43.38482" lon="6.1096">
        <ele>273.20001220703</ele>
        <time>2017-02-01T13:47:02Z</time>
      </trkpt>
      <trkpt lat="43.38473" lon="6.10959">
        <ele>272.20001220703</ele>
        <time>2017-02-01T13:47:05Z</time>
      </trkpt>
      <trkpt lat="43.38472" lon="6.10959">
        <ele>272</ele>
        <time>2017-02-01T13:47:06Z</time>
      </trkpt>
      <trkpt lat="43.38443" lon="6.10954">
        <ele>271.60000610352</ele>
        <time>2017-02-01T13:47:16Z</time>
      </trkpt>
      <trkpt lat="43.38432" lon="6.10952">
        <ele>271</ele>
        <time>2017-02-01T13:47:19Z</time>
      </trkpt>
      <trkpt lat="43.38417" lon="6.10948">
        <ele>270.60000610352</ele>
        <time>2017-02-01T13:47:23Z</time>
      </trkpt>
      <trkpt lat="43.38403" lon="6.10945">
        <ele>270</ele>
        <time>2017-02-01T13:47:26Z</time>
      </trkpt>
      <trkpt lat="43.3838" lon="6.10939">
        <ele>269.20001220703</ele>
        <time>2017-02-01T13:47:31Z</time>
      </trkpt>
      <trkpt lat="43.38375" lon="6.10938">
        <ele>269</ele>
        <time>2017-02-01T13:47:32Z</time>
      </trkpt>
      <trkpt lat="43.38361" lon="6.10935">
        <ele>268.60000610352</ele>
        <time>2017-02-01T13:47:35Z</time>
      </trkpt>
      <trkpt lat="43.38353" lon="6.10933">
        <ele>268.39999389648</ele>
        <time>2017-02-01T13:47:37Z</time>
      </trkpt>
      <trkpt lat="43.38348" lon="6.10932">
        <ele>268.20001220703</ele>
        <time>2017-02-01T13:47:38Z</time>
      </trkpt>
      <trkpt lat="43.38308" lon="6.10919">
        <ele>268</ele>
        <time>2017-02-01T13:47:47Z</time>
      </trkpt>
      <trkpt lat="43.38299" lon="6.10916">
        <ele>267.79998779297</ele>
        <time>2017-02-01T13:47:49Z</time>
      </trkpt>
      <trkpt lat="43.38294" lon="6.10915">
        <ele>267.79998779297</ele>
        <time>2017-02-01T13:47:50Z</time>
      </trkpt>
      <trkpt lat="43.38289" lon="6.10913">
        <ele>267.60000610352</ele>
        <time>2017-02-01T13:47:51Z</time>
      </trkpt>
      <trkpt lat="43.38271" lon="6.10908">
        <ele>267.39999389648</ele>
        <time>2017-02-01T13:47:55Z</time>
      </trkpt>
      <trkpt lat="43.38263" lon="6.10905">
        <ele>267.39999389648</ele>
        <time>2017-02-01T13:47:57Z</time>
      </trkpt>
      <trkpt lat="43.3823" lon="6.10894">
        <ele>267.60000610352</ele>
        <time>2017-02-01T13:48:05Z</time>
      </trkpt>
      <trkpt lat="43.38223" lon="6.10891">
        <ele>267.79998779297</ele>
        <time>2017-02-01T13:48:07Z</time>
      </trkpt>
      <trkpt lat="43.38215" lon="6.10889">
        <ele>267.79998779297</ele>
        <time>2017-02-01T13:48:09Z</time>
      </trkpt>
      <trkpt lat="43.38208" lon="6.10887">
        <ele>268</ele>
        <time>2017-02-01T13:48:11Z</time>
      </trkpt>
      <trkpt lat="43.38201" lon="6.10885">
        <ele>268.20001220703</ele>
        <time>2017-02-01T13:48:13Z</time>
      </trkpt>
      <trkpt lat="43.38195" lon="6.10882">
        <ele>268.60000610352</ele>
        <time>2017-02-01T13:48:16Z</time>
      </trkpt>
      <trkpt lat="43.38194" lon="6.10883">
        <ele>268.60000610352</ele>
        <time>2017-02-01T13:48:17Z</time>
      </trkpt>
      <trkpt lat="43.38193" lon="6.10885">
        <ele>268.79998779297</ele>
        <time>2017-02-01T13:48:18Z</time>
      </trkpt>
      <trkpt lat="43.3819" lon="6.10916">
        <ele>269</ele>
        <time>2017-02-01T13:48:26Z</time>
      </trkpt>
      <trkpt lat="43.38189" lon="6.1092">
        <ele>269</ele>
        <time>2017-02-01T13:48:27Z</time>
      </trkpt>
      <trkpt lat="43.38187" lon="6.10931">
        <ele>269.20001220703</ele>
        <time>2017-02-01T13:48:30Z</time>
      </trkpt>
      <trkpt lat="43.38182" lon="6.10951">
        <ele>269.60000610352</ele>
        <time>2017-02-01T13:48:35Z</time>
      </trkpt>
      <trkpt lat="43.38181" lon="6.1096">
        <ele>270</ele>
        <time>2017-02-01T13:48:37Z</time>
      </trkpt>
      <trkpt lat="43.38174" lon="6.10993">
        <ele>271</ele>
        <time>2017-02-01T13:48:45Z</time>
      </trkpt>
      <trkpt lat="43.38171" lon="6.11005">
        <ele>271.20001220703</ele>
        <time>2017-02-01T13:48:48Z</time>
      </trkpt>
      <trkpt lat="43.38163" lon="6.11047">
        <ele>272.60000610352</ele>
        <time>2017-02-01T13:48:58Z</time>
      </trkpt>
      <trkpt lat="43.38155" lon="6.11078">
        <ele>273.20001220703</ele>
        <time>2017-02-01T13:49:06Z</time>
      </trkpt>
      <trkpt lat="43.38152" lon="6.11086">
        <ele>273.39999389648</ele>
        <time>2017-02-01T13:49:08Z</time>
      </trkpt>
      <trkpt lat="43.38142" lon="6.11109">
        <ele>274.39999389648</ele>
        <time>2017-02-01T13:49:15Z</time>
      </trkpt>
      <trkpt lat="43.38136" lon="6.11116">
        <ele>274.60000610352</ele>
        <time>2017-02-01T13:49:18Z</time>
      </trkpt>
      <trkpt lat="43.38129" lon="6.11125">
        <ele>275.39999389648</ele>
        <time>2017-02-01T13:49:26Z</time>
      </trkpt>
      <trkpt lat="43.38128" lon="6.11127">
        <ele>275.60000610352</ele>
        <time>2017-02-01T13:49:28Z</time>
      </trkpt>
      <trkpt lat="43.38126" lon="6.11128">
        <ele>275.60000610352</ele>
        <time>2017-02-01T13:49:31Z</time>
      </trkpt>
      <trkpt lat="43.38126" lon="6.11128">
        <ele>275.79998779297</ele>
        <time>2017-02-01T13:49:38Z</time>
      </trkpt>
      <trkpt lat="43.38126" lon="6.11128">
        <ele>275.79998779297</ele>
        <time>2017-02-01T13:49:48Z</time>
      </trkpt>
      <trkpt lat="43.38126" lon="6.11128">
        <ele>275.79998779297</ele>
        <time>2017-02-01T13:49:57Z</time>
      </trkpt>
      <trkpt lat="43.38126" lon="6.11128">
        <ele>275.79998779297</ele>
        <time>2017-02-01T13:49:58Z</time>
      </trkpt>
      <trkpt lat="43.38126" lon="6.11127">
        <ele>275.79998779297</ele>
        <time>2017-02-01T13:50:08Z</time>
      </trkpt>
      <trkpt lat="43.38126" lon="6.11127">
        <ele>275.79998779297</ele>
        <time>2017-02-01T13:50:15Z</time>
      </trkpt>
      <trkpt lat="43.38126" lon="6.11127">
        <ele>275.79998779297</ele>
        <time>2017-02-01T13:50:18Z</time>
      </trkpt>
      <trkpt lat="43.38126" lon="6.11128">
        <ele>275.79998779297</ele>
        <time>2017-02-01T13:50:35Z</time>
      </trkpt>
      <trkpt lat="43.38126" lon="6.11128">
        <ele>275.79998779297</ele>
        <time>2017-02-01T13:50:39Z</time>
      </trkpt>
      <trkpt lat="43.38126" lon="6.11128">
        <ele>275.79998779297</ele>
        <time>2017-02-01T13:50:49Z</time>
      </trkpt>
      <trkpt lat="43.38126" lon="6.11129">
        <ele>275.79998779297</ele>
        <time>2017-02-01T13:51:09Z</time>
      </trkpt>
      <trkpt lat="43.38125" lon="6.1113">
        <ele>275.79998779297</ele>
        <time>2017-02-01T13:51:25Z</time>
      </trkpt>
      <trkpt lat="43.38123" lon="6.11132">
        <ele>275.79998779297</ele>
        <time>2017-02-01T13:51:27Z</time>
      </trkpt>
      <trkpt lat="43.38121" lon="6.11135">
        <ele>275.79998779297</ele>
        <time>2017-02-01T13:51:29Z</time>
      </trkpt>
      <trkpt lat="43.38117" lon="6.11164">
        <ele>276.20001220703</ele>
        <time>2017-02-01T13:51:39Z</time>
      </trkpt>
      <trkpt lat="43.38119" lon="6.11187">
        <ele>276.39999389648</ele>
        <time>2017-02-01T13:51:45Z</time>
      </trkpt>
      <trkpt lat="43.38119" lon="6.11194">
        <ele>276.79998779297</ele>
        <time>2017-02-01T13:51:47Z</time>
      </trkpt>
      <trkpt lat="43.38119" lon="6.11201">
        <ele>277.20001220703</ele>
        <time>2017-02-01T13:51:49Z</time>
      </trkpt>
      <trkpt lat="43.38117" lon="6.11222">
        <ele>277.39999389648</ele>
        <time>2017-02-01T13:51:55Z</time>
      </trkpt>
      <trkpt lat="43.38114" lon="6.11252">
        <ele>278.60000610352</ele>
        <time>2017-02-01T13:52:03Z</time>
      </trkpt>
      <trkpt lat="43.38114" lon="6.1127">
        <ele>279.39999389648</ele>
        <time>2017-02-01T13:52:08Z</time>
      </trkpt>
      <trkpt lat="43.38113" lon="6.11278">
        <ele>279.60000610352</ele>
        <time>2017-02-01T13:52:10Z</time>
      </trkpt>
      <trkpt lat="43.38112" lon="6.11307">
        <ele>280.39999389648</ele>
        <time>2017-02-01T13:52:17Z</time>
      </trkpt>
      <trkpt lat="43.3811" lon="6.11315">
        <ele>280.39999389648</ele>
        <time>2017-02-01T13:52:19Z</time>
      </trkpt>
      <trkpt lat="43.38108" lon="6.11342">
        <ele>280.60000610352</ele>
        <time>2017-02-01T13:52:25Z</time>
      </trkpt>
      <trkpt lat="43.38106" lon="6.11355">
        <ele>281.39999389648</ele>
        <time>2017-02-01T13:52:28Z</time>
      </trkpt>
      <trkpt lat="43.38105" lon="6.11368">
        <ele>281.79998779297</ele>
        <time>2017-02-01T13:52:31Z</time>
      </trkpt>
      <trkpt lat="43.38101" lon="6.11398">
        <ele>282.20001220703</ele>
        <time>2017-02-01T13:52:39Z</time>
      </trkpt>
      <trkpt lat="43.38098" lon="6.11413">
        <ele>282.79998779297</ele>
        <time>2017-02-01T13:52:43Z</time>
      </trkpt>
      <trkpt lat="43.38092" lon="6.11434">
        <ele>283.60000610352</ele>
        <time>2017-02-01T13:52:49Z</time>
      </trkpt>
      <trkpt lat="43.3809" lon="6.11445">
        <ele>283.79998779297</ele>
        <time>2017-02-01T13:52:52Z</time>
      </trkpt>
      <trkpt lat="43.38086" lon="6.11464">
        <ele>284.39999389648</ele>
        <time>2017-02-01T13:52:58Z</time>
      </trkpt>
      <trkpt lat="43.38084" lon="6.11477">
        <ele>285</ele>
        <time>2017-02-01T13:53:02Z</time>
      </trkpt>
      <trkpt lat="43.38083" lon="6.11497">
        <ele>285.79998779297</ele>
        <time>2017-02-01T13:53:08Z</time>
      </trkpt>
      <trkpt lat="43.38082" lon="6.11531">
        <ele>286.79998779297</ele>
        <time>2017-02-01T13:53:19Z</time>
      </trkpt>
      <trkpt lat="43.38082" lon="6.11549">
        <ele>287</ele>
        <time>2017-02-01T13:53:25Z</time>
      </trkpt>
      <trkpt lat="43.38081" lon="6.1156">
        <ele>287.39999389648</ele>
        <time>2017-02-01T13:53:29Z</time>
      </trkpt>
      <trkpt lat="43.3808" lon="6.11577">
        <ele>288.20001220703</ele>
        <time>2017-02-01T13:53:34Z</time>
      </trkpt>
      <trkpt lat="43.38078" lon="6.11594">
        <ele>288.79998779297</ele>
        <time>2017-02-01T13:53:39Z</time>
      </trkpt>
      <trkpt lat="43.38076" lon="6.11622">
        <ele>289.20001220703</ele>
        <time>2017-02-01T13:53:47Z</time>
      </trkpt>
      <trkpt lat="43.38076" lon="6.11628">
        <ele>289.39999389648</ele>
        <time>2017-02-01T13:53:49Z</time>
      </trkpt>
      <trkpt lat="43.38074" lon="6.11657">
        <ele>290.20001220703</ele>
        <time>2017-02-01T13:53:59Z</time>
      </trkpt>
      <trkpt lat="43.38073" lon="6.11659">
        <ele>290.39999389648</ele>
        <time>2017-02-01T13:54:00Z</time>
      </trkpt>
      <trkpt lat="43.38067" lon="6.11716">
        <ele>292</ele>
        <time>2017-02-01T13:54:19Z</time>
      </trkpt>
      <trkpt lat="43.38066" lon="6.11725">
        <ele>292.60000610352</ele>
        <time>2017-02-01T13:54:22Z</time>
      </trkpt>
      <trkpt lat="43.38066" lon="6.11743">
        <ele>293.39999389648</ele>
        <time>2017-02-01T13:54:28Z</time>
      </trkpt>
      <trkpt lat="43.38066" lon="6.11749">
        <ele>293.79998779297</ele>
        <time>2017-02-01T13:54:30Z</time>
      </trkpt>
      <trkpt lat="43.38068" lon="6.11772">
        <ele>294.39999389648</ele>
        <time>2017-02-01T13:54:38Z</time>
      </trkpt>
      <trkpt lat="43.3807" lon="6.11777">
        <ele>295</ele>
        <time>2017-02-01T13:54:40Z</time>
      </trkpt>
      <trkpt lat="43.38075" lon="6.11797">
        <ele>295.79998779297</ele>
        <time>2017-02-01T13:54:48Z</time>
      </trkpt>
      <trkpt lat="43.38075" lon="6.11802">
        <ele>296</ele>
        <time>2017-02-01T13:54:50Z</time>
      </trkpt>
      <trkpt lat="43.38076" lon="6.11825">
        <ele>296.79998779297</ele>
        <time>2017-02-01T13:54:58Z</time>
      </trkpt>
      <trkpt lat="43.38076" lon="6.1184">
        <ele>297.20001220703</ele>
        <time>2017-02-01T13:55:03Z</time>
      </trkpt>
      <trkpt lat="43.38075" lon="6.11855">
        <ele>298</ele>
        <time>2017-02-01T13:55:09Z</time>
      </trkpt>
      <trkpt lat="43.38075" lon="6.11858">
        <ele>298.20001220703</ele>
        <time>2017-02-01T13:55:10Z</time>
      </trkpt>
      <trkpt lat="43.38077" lon="6.11878">
        <ele>298.79998779297</ele>
        <time>2017-02-01T13:55:18Z</time>
      </trkpt>
      <trkpt lat="43.38077" lon="6.11889">
        <ele>299.39999389648</ele>
        <time>2017-02-01T13:55:23Z</time>
      </trkpt>
      <trkpt lat="43.38075" lon="6.11902">
        <ele>300.20001220703</ele>
        <time>2017-02-01T13:55:29Z</time>
      </trkpt>
      <trkpt lat="43.38074" lon="6.11907">
        <ele>300.39999389648</ele>
        <time>2017-02-01T13:55:31Z</time>
      </trkpt>
      <trkpt lat="43.38074" lon="6.11916">
        <ele>300.60000610352</ele>
        <time>2017-02-01T13:55:35Z</time>
      </trkpt>
      <trkpt lat="43.38074" lon="6.11924">
        <ele>301.20001220703</ele>
        <time>2017-02-01T13:55:39Z</time>
      </trkpt>
      <trkpt lat="43.38074" lon="6.11939">
        <ele>302</ele>
        <time>2017-02-01T13:55:46Z</time>
      </trkpt>
      <trkpt lat="43.38073" lon="6.1195">
        <ele>302.60000610352</ele>
        <time>2017-02-01T13:55:51Z</time>
      </trkpt>
      <trkpt lat="43.38073" lon="6.11957">
        <ele>303.39999389648</ele>
        <time>2017-02-01T13:55:54Z</time>
      </trkpt>
      <trkpt lat="43.38073" lon="6.1196">
        <ele>303.60000610352</ele>
        <time>2017-02-01T13:55:55Z</time>
      </trkpt>
      <trkpt lat="43.38073" lon="6.11974">
        <ele>304.60000610352</ele>
        <time>2017-02-01T13:56:01Z</time>
      </trkpt>
      <trkpt lat="43.3807" lon="6.11984">
        <ele>305.60000610352</ele>
        <time>2017-02-01T13:56:06Z</time>
      </trkpt>
      <trkpt lat="43.38068" lon="6.11992">
        <ele>306.60000610352</ele>
        <time>2017-02-01T13:56:09Z</time>
      </trkpt>
      <trkpt lat="43.38066" lon="6.12003">
        <ele>307.60000610352</ele>
        <time>2017-02-01T13:56:15Z</time>
      </trkpt>
      <trkpt lat="43.38065" lon="6.12006">
        <ele>308</ele>
        <time>2017-02-01T13:56:17Z</time>
      </trkpt>
      <trkpt lat="43.38065" lon="6.12018">
        <ele>309</ele>
        <time>2017-02-01T13:56:23Z</time>
      </trkpt>
      <trkpt lat="43.38064" lon="6.12028">
        <ele>310.20001220703</ele>
        <time>2017-02-01T13:56:29Z</time>
      </trkpt>
      <trkpt lat="43.38062" lon="6.12038">
        <ele>311.20001220703</ele>
        <time>2017-02-01T13:56:35Z</time>
      </trkpt>
      <trkpt lat="43.38061" lon="6.12046">
        <ele>311.79998779297</ele>
        <time>2017-02-01T13:56:39Z</time>
      </trkpt>
      <trkpt lat="43.38061" lon="6.12053">
        <ele>312</ele>
        <time>2017-02-01T13:56:42Z</time>
      </trkpt>
      <trkpt lat="43.38062" lon="6.12056">
        <ele>312.20001220703</ele>
        <time>2017-02-01T13:56:44Z</time>
      </trkpt>
      <trkpt lat="43.38061" lon="6.1206">
        <ele>312.39999389648</ele>
        <time>2017-02-01T13:56:46Z</time>
      </trkpt>
      <trkpt lat="43.38058" lon="6.12066">
        <ele>312.60000610352</ele>
        <time>2017-02-01T13:56:50Z</time>
      </trkpt>
      <trkpt lat="43.38055" lon="6.12073">
        <ele>312.60000610352</ele>
        <time>2017-02-01T13:56:55Z</time>
      </trkpt>
      <trkpt lat="43.38055" lon="6.12083">
        <ele>313.39999389648</ele>
        <time>2017-02-01T13:57:01Z</time>
      </trkpt>
      <trkpt lat="43.38056" lon="6.12099">
        <ele>313.79998779297</ele>
        <time>2017-02-01T13:57:10Z</time>
      </trkpt>
      <trkpt lat="43.38049" lon="6.12115">
        <ele>314.39999389648</ele>
        <time>2017-02-01T13:57:17Z</time>
      </trkpt>
      <trkpt lat="43.38047" lon="6.12119">
        <ele>314.39999389648</ele>
        <time>2017-02-01T13:57:19Z</time>
      </trkpt>
      <trkpt lat="43.38041" lon="6.12134">
        <ele>315.60000610352</ele>
        <time>2017-02-01T13:57:28Z</time>
      </trkpt>
      <trkpt lat="43.38039" lon="6.12136">
        <ele>316</ele>
        <time>2017-02-01T13:57:30Z</time>
      </trkpt>
      <trkpt lat="43.38037" lon="6.12138">
        <ele>316.79998779297</ele>
        <time>2017-02-01T13:57:32Z</time>
      </trkpt>
      <trkpt lat="43.38034" lon="6.12149">
        <ele>317.79998779297</ele>
        <time>2017-02-01T13:57:39Z</time>
      </trkpt>
      <trkpt lat="43.38033" lon="6.12152">
        <ele>318</ele>
        <time>2017-02-01T13:57:41Z</time>
      </trkpt>
      <trkpt lat="43.38033" lon="6.1217">
        <ele>318.60000610352</ele>
        <time>2017-02-01T13:57:51Z</time>
      </trkpt>
      <trkpt lat="43.38033" lon="6.12182">
        <ele>319</ele>
        <time>2017-02-01T13:57:57Z</time>
      </trkpt>
      <trkpt lat="43.38032" lon="6.1219">
        <ele>319.20001220703</ele>
        <time>2017-02-01T13:58:01Z</time>
      </trkpt>
      <trkpt lat="43.38033" lon="6.12206">
        <ele>320</ele>
        <time>2017-02-01T13:58:08Z</time>
      </trkpt>
      <trkpt lat="43.38034" lon="6.12209">
        <ele>320.20001220703</ele>
        <time>2017-02-01T13:58:10Z</time>
      </trkpt>
      <trkpt lat="43.38041" lon="6.12233">
        <ele>320.60000610352</ele>
        <time>2017-02-01T13:58:21Z</time>
      </trkpt>
      <trkpt lat="43.38044" lon="6.12245">
        <ele>320.79998779297</ele>
        <time>2017-02-01T13:58:27Z</time>
      </trkpt>
      <trkpt lat="43.38045" lon="6.12252">
        <ele>320.79998779297</ele>
        <time>2017-02-01T13:58:30Z</time>
      </trkpt>
      <trkpt lat="43.38048" lon="6.12272">
        <ele>322.20001220703</ele>
        <time>2017-02-01T13:58:40Z</time>
      </trkpt>
      <trkpt lat="43.38048" lon="6.12279">
        <ele>322.79998779297</ele>
        <time>2017-02-01T13:58:44Z</time>
      </trkpt>
      <trkpt lat="43.38048" lon="6.12283">
        <ele>323.39999389648</ele>
        <time>2017-02-01T13:58:46Z</time>
      </trkpt>
      <trkpt lat="43.38049" lon="6.1229">
        <ele>324</ele>
        <time>2017-02-01T13:58:50Z</time>
      </trkpt>
      <trkpt lat="43.38049" lon="6.12298">
        <ele>324.60000610352</ele>
        <time>2017-02-01T13:58:54Z</time>
      </trkpt>
      <trkpt lat="43.38048" lon="6.12306">
        <ele>325.20001220703</ele>
        <time>2017-02-01T13:58:58Z</time>
      </trkpt>
      <trkpt lat="43.38048" lon="6.12309">
        <ele>325.39999389648</ele>
        <time>2017-02-01T13:59:00Z</time>
      </trkpt>
      <trkpt lat="43.38048" lon="6.1231">
        <ele>325.60000610352</ele>
        <time>2017-02-01T13:59:01Z</time>
      </trkpt>
      <trkpt lat="43.38048" lon="6.12324">
        <ele>326.39999389648</ele>
        <time>2017-02-01T13:59:09Z</time>
      </trkpt>
      <trkpt lat="43.38047" lon="6.12327">
        <ele>326.39999389648</ele>
        <time>2017-02-01T13:59:10Z</time>
      </trkpt>
      <trkpt lat="43.38046" lon="6.1233">
        <ele>326.60000610352</ele>
        <time>2017-02-01T13:59:11Z</time>
      </trkpt>
      <trkpt lat="43.38043" lon="6.12347">
        <ele>327.20001220703</ele>
        <time>2017-02-01T13:59:21Z</time>
      </trkpt>
      <trkpt lat="43.38044" lon="6.12355">
        <ele>327.60000610352</ele>
        <time>2017-02-01T13:59:25Z</time>
      </trkpt>
      <trkpt lat="43.38044" lon="6.12363">
        <ele>327.60000610352</ele>
        <time>2017-02-01T13:59:30Z</time>
      </trkpt>
      <trkpt lat="43.38045" lon="6.12365">
        <ele>327.60000610352</ele>
        <time>2017-02-01T13:59:31Z</time>
      </trkpt>
      <trkpt lat="43.38047" lon="6.12376">
        <ele>328.60000610352</ele>
        <time>2017-02-01T13:59:37Z</time>
      </trkpt>
      <trkpt lat="43.38049" lon="6.12381">
        <ele>329</ele>
        <time>2017-02-01T13:59:40Z</time>
      </trkpt>
      <trkpt lat="43.3805" lon="6.12387">
        <ele>329.20001220703</ele>
        <time>2017-02-01T13:59:43Z</time>
      </trkpt>
      <trkpt lat="43.38052" lon="6.12395">
        <ele>329.79998779297</ele>
        <time>2017-02-01T13:59:48Z</time>
      </trkpt>
      <trkpt lat="43.38054" lon="6.124">
        <ele>330.39999389648</ele>
        <time>2017-02-01T13:59:51Z</time>
      </trkpt>
      <trkpt lat="43.38055" lon="6.12402">
        <ele>330.79998779297</ele>
        <time>2017-02-01T13:59:52Z</time>
      </trkpt>
      <trkpt lat="43.38055" lon="6.12406">
        <ele>331.60000610352</ele>
        <time>2017-02-01T13:59:55Z</time>
      </trkpt>
      <trkpt lat="43.38056" lon="6.12407">
        <ele>332</ele>
        <time>2017-02-01T13:59:56Z</time>
      </trkpt>
      <trkpt lat="43.38057" lon="6.12419">
        <ele>333</ele>
        <time>2017-02-01T14:00:03Z</time>
      </trkpt>
      <trkpt lat="43.38058" lon="6.12423">
        <ele>333.39999389648</ele>
        <time>2017-02-01T14:00:06Z</time>
      </trkpt>
      <trkpt lat="43.38058" lon="6.12428">
        <ele>334</ele>
        <time>2017-02-01T14:00:09Z</time>
      </trkpt>
      <trkpt lat="43.3806" lon="6.12444">
        <ele>335.20001220703</ele>
        <time>2017-02-01T14:00:19Z</time>
      </trkpt>
      <trkpt lat="43.3806" lon="6.1245">
        <ele>335.79998779297</ele>
        <time>2017-02-01T14:00:23Z</time>
      </trkpt>
      <trkpt lat="43.38061" lon="6.12458">
        <ele>336.20001220703</ele>
        <time>2017-02-01T14:00:28Z</time>
      </trkpt>
      <trkpt lat="43.38062" lon="6.1246">
        <ele>336.60000610352</ele>
        <time>2017-02-01T14:00:31Z</time>
      </trkpt>
      <trkpt lat="43.38062" lon="6.12462">
        <ele>336.60000610352</ele>
        <time>2017-02-01T14:00:35Z</time>
      </trkpt>
      <trkpt lat="43.38062" lon="6.12462">
        <ele>336.39999389648</ele>
        <time>2017-02-01T14:00:38Z</time>
      </trkpt>
      <trkpt lat="43.38062" lon="6.12462">
        <ele>336.39999389648</ele>
        <time>2017-02-01T14:00:41Z</time>
      </trkpt>
      <trkpt lat="43.38062" lon="6.12462">
        <ele>336.60000610352</ele>
        <time>2017-02-01T14:00:45Z</time>
      </trkpt>
      <trkpt lat="43.38062" lon="6.12462">
        <ele>336.60000610352</ele>
        <time>2017-02-01T14:00:50Z</time>
      </trkpt>
      <trkpt lat="43.38062" lon="6.12461">
        <ele>336.39999389648</ele>
        <time>2017-02-01T14:00:53Z</time>
      </trkpt>
      <trkpt lat="43.38063" lon="6.12462">
        <ele>336.60000610352</ele>
        <time>2017-02-01T14:01:01Z</time>
      </trkpt>
      <trkpt lat="43.38062" lon="6.12463">
        <ele>336.39999389648</ele>
        <time>2017-02-01T14:01:16Z</time>
      </trkpt>
      <trkpt lat="43.38062" lon="6.12463">
        <ele>336.60000610352</ele>
        <time>2017-02-01T14:01:26Z</time>
      </trkpt>
      <trkpt lat="43.38062" lon="6.12464">
        <ele>336.60000610352</ele>
        <time>2017-02-01T14:01:40Z</time>
      </trkpt>
      <trkpt lat="43.38062" lon="6.12464">
        <ele>336.60000610352</ele>
        <time>2017-02-01T14:01:59Z</time>
      </trkpt>
      <trkpt lat="43.38062" lon="6.12464">
        <ele>336.60000610352</ele>
        <time>2017-02-01T14:02:02Z</time>
      </trkpt>
      <trkpt lat="43.38062" lon="6.12464">
        <ele>336.60000610352</ele>
        <time>2017-02-01T14:02:11Z</time>
      </trkpt>
      <trkpt lat="43.38062" lon="6.12465">
        <ele>336.60000610352</ele>
        <time>2017-02-01T14:02:23Z</time>
      </trkpt>
      <trkpt lat="43.38062" lon="6.1247">
        <ele>336.79998779297</ele>
        <time>2017-02-01T14:02:31Z</time>
      </trkpt>
      <trkpt lat="43.38062" lon="6.12475">
        <ele>337</ele>
        <time>2017-02-01T14:02:33Z</time>
      </trkpt>
      <trkpt lat="43.38062" lon="6.12482">
        <ele>337.20001220703</ele>
        <time>2017-02-01T14:02:37Z</time>
      </trkpt>
      <trkpt lat="43.38062" lon="6.12498">
        <ele>337.79998779297</ele>
        <time>2017-02-01T14:02:43Z</time>
      </trkpt>
      <trkpt lat="43.38062" lon="6.12506">
        <ele>338.20001220703</ele>
        <time>2017-02-01T14:02:46Z</time>
      </trkpt>
      <trkpt lat="43.38061" lon="6.12524">
        <ele>338.60000610352</ele>
        <time>2017-02-01T14:02:53Z</time>
      </trkpt>
      <trkpt lat="43.38061" lon="6.1253">
        <ele>338.79998779297</ele>
        <time>2017-02-01T14:02:55Z</time>
      </trkpt>
      <trkpt lat="43.3806" lon="6.12541">
        <ele>339.39999389648</ele>
        <time>2017-02-01T14:03:00Z</time>
      </trkpt>
      <trkpt lat="43.3806" lon="6.12546">
        <ele>339.79998779297</ele>
        <time>2017-02-01T14:03:03Z</time>
      </trkpt>
      <trkpt lat="43.3806" lon="6.12552">
        <ele>340.39999389648</ele>
        <time>2017-02-01T14:03:06Z</time>
      </trkpt>
      <trkpt lat="43.38057" lon="6.12565">
        <ele>341.39999389648</ele>
        <time>2017-02-01T14:03:12Z</time>
      </trkpt>
      <trkpt lat="43.38054" lon="6.12572">
        <ele>342</ele>
        <time>2017-02-01T14:03:16Z</time>
      </trkpt>
      <trkpt lat="43.38053" lon="6.12576">
        <ele>342.39999389648</ele>
        <time>2017-02-01T14:03:18Z</time>
      </trkpt>
      <trkpt lat="43.3805" lon="6.12583">
        <ele>343.20001220703</ele>
        <time>2017-02-01T14:03:22Z</time>
      </trkpt>
      <trkpt lat="43.38049" lon="6.12586">
        <ele>343.20001220703</ele>
        <time>2017-02-01T14:03:23Z</time>
      </trkpt>
      <trkpt lat="43.38048" lon="6.1259">
        <ele>343.39999389648</ele>
        <time>2017-02-01T14:03:25Z</time>
      </trkpt>
      <trkpt lat="43.38047" lon="6.12599">
        <ele>344.20001220703</ele>
        <time>2017-02-01T14:03:30Z</time>
      </trkpt>
      <trkpt lat="43.38047" lon="6.12605">
        <ele>344.39999389648</ele>
        <time>2017-02-01T14:03:33Z</time>
      </trkpt>
      <trkpt lat="43.38047" lon="6.12607">
        <ele>344.39999389648</ele>
        <time>2017-02-01T14:03:34Z</time>
      </trkpt>
      <trkpt lat="43.38043" lon="6.12625">
        <ele>345.60000610352</ele>
        <time>2017-02-01T14:03:43Z</time>
      </trkpt>
      <trkpt lat="43.38039" lon="6.12639">
        <ele>346.60000610352</ele>
        <time>2017-02-01T14:03:52Z</time>
      </trkpt>
      <trkpt lat="43.38034" lon="6.12657">
        <ele>347.60000610352</ele>
        <time>2017-02-01T14:04:01Z</time>
      </trkpt>
      <trkpt lat="43.38034" lon="6.12662">
        <ele>348</ele>
        <time>2017-02-01T14:04:03Z</time>
      </trkpt>
      <trkpt lat="43.38029" lon="6.12674">
        <ele>348.79998779297</ele>
        <time>2017-02-01T14:04:10Z</time>
      </trkpt>
      <trkpt lat="43.38026" lon="6.1268">
        <ele>349.20001220703</ele>
        <time>2017-02-01T14:04:13Z</time>
      </trkpt>
      <trkpt lat="43.38024" lon="6.1269">
        <ele>349.79998779297</ele>
        <time>2017-02-01T14:04:18Z</time>
      </trkpt>
      <trkpt lat="43.38018" lon="6.12707">
        <ele>350.79998779297</ele>
        <time>2017-02-01T14:04:27Z</time>
      </trkpt>
      <trkpt lat="43.38014" lon="6.12722">
        <ele>351.60000610352</ele>
        <time>2017-02-01T14:04:34Z</time>
      </trkpt>
      <trkpt lat="43.38007" lon="6.12747">
        <ele>353</ele>
        <time>2017-02-01T14:04:46Z</time>
      </trkpt>
      <trkpt lat="43.38006" lon="6.12751">
        <ele>353</ele>
        <time>2017-02-01T14:04:48Z</time>
      </trkpt>
      <trkpt lat="43.38005" lon="6.1276">
        <ele>353.39999389648</ele>
        <time>2017-02-01T14:04:54Z</time>
      </trkpt>
      <trkpt lat="43.38004" lon="6.1277">
        <ele>354</ele>
        <time>2017-02-01T14:04:59Z</time>
      </trkpt>
      <trkpt lat="43.37999" lon="6.12789">
        <ele>355</ele>
        <time>2017-02-01T14:05:09Z</time>
      </trkpt>
      <trkpt lat="43.37996" lon="6.12801">
        <ele>355.60000610352</ele>
        <time>2017-02-01T14:05:15Z</time>
      </trkpt>
      <trkpt lat="43.37992" lon="6.12819">
        <ele>356.60000610352</ele>
        <time>2017-02-01T14:05:25Z</time>
      </trkpt>
      <trkpt lat="43.37991" lon="6.1283">
        <ele>357.20001220703</ele>
        <time>2017-02-01T14:05:31Z</time>
      </trkpt>
      <trkpt lat="43.37989" lon="6.12837">
        <ele>357.60000610352</ele>
        <time>2017-02-01T14:05:35Z</time>
      </trkpt>
      <trkpt lat="43.37986" lon="6.1285">
        <ele>358.39999389648</ele>
        <time>2017-02-01T14:05:42Z</time>
      </trkpt>
      <trkpt lat="43.37983" lon="6.12862">
        <ele>359.20001220703</ele>
        <time>2017-02-01T14:05:49Z</time>
      </trkpt>
      <trkpt lat="43.3798" lon="6.12876">
        <ele>360.39999389648</ele>
        <time>2017-02-01T14:05:58Z</time>
      </trkpt>
      <trkpt lat="43.37978" lon="6.12886">
        <ele>361.60000610352</ele>
        <time>2017-02-01T14:06:03Z</time>
      </trkpt>
      <trkpt lat="43.37977" lon="6.12889">
        <ele>361.79998779297</ele>
        <time>2017-02-01T14:06:05Z</time>
      </trkpt>
      <trkpt lat="43.37975" lon="6.12911">
        <ele>362.60000610352</ele>
        <time>2017-02-01T14:06:17Z</time>
      </trkpt>
      <trkpt lat="43.37973" lon="6.12923">
        <ele>363.39999389648</ele>
        <time>2017-02-01T14:06:24Z</time>
      </trkpt>
      <trkpt lat="43.37972" lon="6.12925">
        <ele>363.60000610352</ele>
        <time>2017-02-01T14:06:26Z</time>
      </trkpt>
      <trkpt lat="43.37971" lon="6.12926">
        <ele>363.60000610352</ele>
        <time>2017-02-01T14:06:27Z</time>
      </trkpt>
      <trkpt lat="43.37965" lon="6.12935">
        <ele>364.39999389648</ele>
        <time>2017-02-01T14:06:36Z</time>
      </trkpt>
      <trkpt lat="43.37962" lon="6.12941">
        <ele>364.79998779297</ele>
        <time>2017-02-01T14:06:40Z</time>
      </trkpt>
      <trkpt lat="43.37959" lon="6.12952">
        <ele>365.39999389648</ele>
        <time>2017-02-01T14:06:46Z</time>
      </trkpt>
      <trkpt lat="43.37957" lon="6.12958">
        <ele>365.79998779297</ele>
        <time>2017-02-01T14:06:49Z</time>
      </trkpt>
      <trkpt lat="43.37955" lon="6.12964">
        <ele>366.39999389648</ele>
        <time>2017-02-01T14:06:54Z</time>
      </trkpt>
      <trkpt lat="43.37956" lon="6.12973">
        <ele>367</ele>
        <time>2017-02-01T14:07:00Z</time>
      </trkpt>
      <trkpt lat="43.37954" lon="6.12982">
        <ele>367.39999389648</ele>
        <time>2017-02-01T14:07:06Z</time>
      </trkpt>
      <trkpt lat="43.37946" lon="6.12999">
        <ele>368.60000610352</ele>
        <time>2017-02-01T14:07:17Z</time>
      </trkpt>
      <trkpt lat="43.37937" lon="6.13015">
        <ele>369.20001220703</ele>
        <time>2017-02-01T14:07:27Z</time>
      </trkpt>
      <trkpt lat="43.37928" lon="6.13027">
        <ele>370.20001220703</ele>
        <time>2017-02-01T14:07:37Z</time>
      </trkpt>
      <trkpt lat="43.37927" lon="6.13028">
        <ele>370.39999389648</ele>
        <time>2017-02-01T14:07:38Z</time>
      </trkpt>
      <trkpt lat="43.37919" lon="6.13041">
        <ele>371</ele>
        <time>2017-02-01T14:07:48Z</time>
      </trkpt>
      <trkpt lat="43.37917" lon="6.13045">
        <ele>371.39999389648</ele>
        <time>2017-02-01T14:07:51Z</time>
      </trkpt>
      <trkpt lat="43.37914" lon="6.13054">
        <ele>372</ele>
        <time>2017-02-01T14:07:58Z</time>
      </trkpt>
      <trkpt lat="43.37911" lon="6.1306">
        <ele>372.39999389648</ele>
        <time>2017-02-01T14:08:03Z</time>
      </trkpt>
      <trkpt lat="43.3791" lon="6.13062">
        <ele>372.60000610352</ele>
        <time>2017-02-01T14:08:08Z</time>
      </trkpt>
      <trkpt lat="43.3791" lon="6.13063">
        <ele>372.79998779297</ele>
        <time>2017-02-01T14:08:15Z</time>
      </trkpt>
      <trkpt lat="43.3791" lon="6.13063">
        <ele>373</ele>
        <time>2017-02-01T14:08:19Z</time>
      </trkpt>
      <trkpt lat="43.3791" lon="6.13065">
        <ele>373</ele>
        <time>2017-02-01T14:08:29Z</time>
      </trkpt>
      <trkpt lat="43.3791" lon="6.13065">
        <ele>373</ele>
        <time>2017-02-01T14:08:39Z</time>
      </trkpt>
      <trkpt lat="43.3791" lon="6.13064">
        <ele>373</ele>
        <time>2017-02-01T14:09:02Z</time>
      </trkpt>
      <trkpt lat="43.3791" lon="6.13065">
        <ele>373</ele>
        <time>2017-02-01T14:09:19Z</time>
      </trkpt>
      <trkpt lat="43.3791" lon="6.13065">
        <ele>372.79998779297</ele>
        <time>2017-02-01T14:09:52Z</time>
      </trkpt>
      <trkpt lat="43.3791" lon="6.13065">
        <ele>372.60000610352</ele>
        <time>2017-02-01T14:10:02Z</time>
      </trkpt>
      <trkpt lat="43.3791" lon="6.13065">
        <ele>372.79998779297</ele>
        <time>2017-02-01T14:10:12Z</time>
      </trkpt>
      <trkpt lat="43.3791" lon="6.13064">
        <ele>372.79998779297</ele>
        <time>2017-02-01T14:10:22Z</time>
      </trkpt>
      <trkpt lat="43.3791" lon="6.13065">
        <ele>372.79998779297</ele>
        <time>2017-02-01T14:10:42Z</time>
      </trkpt>
      <trkpt lat="43.3791" lon="6.13065">
        <ele>372.79998779297</ele>
        <time>2017-02-01T14:10:45Z</time>
      </trkpt>
      <trkpt lat="43.3791" lon="6.13065">
        <ele>372.79998779297</ele>
        <time>2017-02-01T14:10:52Z</time>
      </trkpt>
      <trkpt lat="43.3791" lon="6.13065">
        <ele>372.79998779297</ele>
        <time>2017-02-01T14:11:02Z</time>
      </trkpt>
      <trkpt lat="43.3791" lon="6.13066">
        <ele>372.79998779297</ele>
        <time>2017-02-01T14:11:12Z</time>
      </trkpt>
      <trkpt lat="43.37909" lon="6.13067">
        <ele>372.79998779297</ele>
        <time>2017-02-01T14:11:33Z</time>
      </trkpt>
      <trkpt lat="43.37909" lon="6.13067">
        <ele>372.79998779297</ele>
        <time>2017-02-01T14:11:41Z</time>
      </trkpt>
      <trkpt lat="43.37909" lon="6.13067">
        <ele>372.79998779297</ele>
        <time>2017-02-01T14:11:43Z</time>
      </trkpt>
      <trkpt lat="43.37909" lon="6.13067">
        <ele>372.79998779297</ele>
        <time>2017-02-01T14:11:52Z</time>
      </trkpt>
      <trkpt lat="43.37909" lon="6.13067">
        <ele>372.79998779297</ele>
        <time>2017-02-01T14:12:03Z</time>
      </trkpt>
      <trkpt lat="43.37909" lon="6.13064">
        <ele>372.79998779297</ele>
        <time>2017-02-01T14:12:23Z</time>
      </trkpt>
      <trkpt lat="43.37908" lon="6.13064">
        <ele>372.79998779297</ele>
        <time>2017-02-01T14:12:33Z</time>
      </trkpt>
      <trkpt lat="43.37908" lon="6.13064">
        <ele>372.79998779297</ele>
        <time>2017-02-01T14:12:43Z</time>
      </trkpt>
      <trkpt lat="43.37908" lon="6.13064">
        <ele>372.79998779297</ele>
        <time>2017-02-01T14:12:52Z</time>
      </trkpt>
      <trkpt lat="43.37907" lon="6.13067">
        <ele>372.79998779297</ele>
        <time>2017-02-01T14:13:02Z</time>
      </trkpt>
      <trkpt lat="43.37907" lon="6.13071">
        <ele>372.79998779297</ele>
        <time>2017-02-01T14:13:04Z</time>
      </trkpt>
      <trkpt lat="43.37907" lon="6.13073">
        <ele>372.39999389648</ele>
        <time>2017-02-01T14:13:05Z</time>
      </trkpt>
      <trkpt lat="43.37909" lon="6.13089">
        <ele>373.20001220703</ele>
        <time>2017-02-01T14:13:12Z</time>
      </trkpt>
      <trkpt lat="43.37909" lon="6.13095">
        <ele>373.39999389648</ele>
        <time>2017-02-01T14:13:15Z</time>
      </trkpt>
      <trkpt lat="43.37908" lon="6.13107">
        <ele>374</ele>
        <time>2017-02-01T14:13:21Z</time>
      </trkpt>
      <trkpt lat="43.37909" lon="6.13109">
        <ele>374.20001220703</ele>
        <time>2017-02-01T14:13:22Z</time>
      </trkpt>
      <trkpt lat="43.37907" lon="6.13121">
        <ele>374.39999389648</ele>
        <time>2017-02-01T14:13:27Z</time>
      </trkpt>
      <trkpt lat="43.37906" lon="6.13123">
        <ele>374.60000610352</ele>
        <time>2017-02-01T14:13:28Z</time>
      </trkpt>
      <trkpt lat="43.37904" lon="6.13132">
        <ele>375.39999389648</ele>
        <time>2017-02-01T14:13:32Z</time>
      </trkpt>
      <trkpt lat="43.37903" lon="6.13135">
        <ele>375.79998779297</ele>
        <time>2017-02-01T14:13:33Z</time>
      </trkpt>
      <trkpt lat="43.37902" lon="6.13141">
        <ele>376.20001220703</ele>
        <time>2017-02-01T14:13:36Z</time>
      </trkpt>
      <trkpt lat="43.37901" lon="6.1315">
        <ele>376.79998779297</ele>
        <time>2017-02-01T14:13:40Z</time>
      </trkpt>
      <trkpt lat="43.37901" lon="6.13154">
        <ele>377.20001220703</ele>
        <time>2017-02-01T14:13:42Z</time>
      </trkpt>
      <trkpt lat="43.37899" lon="6.13164">
        <ele>377.79998779297</ele>
        <time>2017-02-01T14:13:46Z</time>
      </trkpt>
      <trkpt lat="43.37899" lon="6.13167">
        <ele>378</ele>
        <time>2017-02-01T14:13:47Z</time>
      </trkpt>
      <trkpt lat="43.37897" lon="6.13177">
        <ele>378.39999389648</ele>
        <time>2017-02-01T14:13:51Z</time>
      </trkpt>
      <trkpt lat="43.37896" lon="6.13184">
        <ele>379</ele>
        <time>2017-02-01T14:13:54Z</time>
      </trkpt>
      <trkpt lat="43.37894" lon="6.132">
        <ele>379.79998779297</ele>
        <time>2017-02-01T14:14:02Z</time>
      </trkpt>
      <trkpt lat="43.37893" lon="6.13206">
        <ele>380</ele>
        <time>2017-02-01T14:14:05Z</time>
      </trkpt>
      <trkpt lat="43.3789" lon="6.13219">
        <ele>380.79998779297</ele>
        <time>2017-02-01T14:14:12Z</time>
      </trkpt>
      <trkpt lat="43.37889" lon="6.13221">
        <ele>381</ele>
        <time>2017-02-01T14:14:13Z</time>
      </trkpt>
      <trkpt lat="43.37885" lon="6.13232">
        <ele>382.20001220703</ele>
        <time>2017-02-01T14:14:20Z</time>
      </trkpt>
      <trkpt lat="43.37884" lon="6.13237">
        <ele>382.60000610352</ele>
        <time>2017-02-01T14:14:23Z</time>
      </trkpt>
      <trkpt lat="43.37883" lon="6.13246">
        <ele>383.20001220703</ele>
        <time>2017-02-01T14:14:28Z</time>
      </trkpt>
      <trkpt lat="43.37884" lon="6.13261">
        <ele>384.39999389648</ele>
        <time>2017-02-01T14:14:36Z</time>
      </trkpt>
      <trkpt lat="43.37883" lon="6.13274">
        <ele>386</ele>
        <time>2017-02-01T14:14:43Z</time>
      </trkpt>
      <trkpt lat="43.37884" lon="6.13281">
        <ele>386.39999389648</ele>
        <time>2017-02-01T14:14:47Z</time>
      </trkpt>
      <trkpt lat="43.37884" lon="6.13286">
        <ele>386.39999389648</ele>
        <time>2017-02-01T14:14:49Z</time>
      </trkpt>
      <trkpt lat="43.37882" lon="6.13295">
        <ele>387.60000610352</ele>
        <time>2017-02-01T14:14:54Z</time>
      </trkpt>
      <trkpt lat="43.37875" lon="6.13313">
        <ele>389.39999389648</ele>
        <time>2017-02-01T14:15:05Z</time>
      </trkpt>
      <trkpt lat="43.37873" lon="6.13324">
        <ele>390.79998779297</ele>
        <time>2017-02-01T14:15:12Z</time>
      </trkpt>
      <trkpt lat="43.37872" lon="6.13327">
        <ele>391</ele>
        <time>2017-02-01T14:15:14Z</time>
      </trkpt>
      <trkpt lat="43.37871" lon="6.13335">
        <ele>391.79998779297</ele>
        <time>2017-02-01T14:15:19Z</time>
      </trkpt>
      <trkpt lat="43.37872" lon="6.13345">
        <ele>392.20001220703</ele>
        <time>2017-02-01T14:15:25Z</time>
      </trkpt>
      <trkpt lat="43.37868" lon="6.13362">
        <ele>392.79998779297</ele>
        <time>2017-02-01T14:15:35Z</time>
      </trkpt>
      <trkpt lat="43.37865" lon="6.13382">
        <ele>393.20001220703</ele>
        <time>2017-02-01T14:15:44Z</time>
      </trkpt>
      <trkpt lat="43.37863" lon="6.134">
        <ele>393.39999389648</ele>
        <time>2017-02-01T14:15:52Z</time>
      </trkpt>
      <trkpt lat="43.37862" lon="6.13408">
        <ele>393.39999389648</ele>
        <time>2017-02-01T14:15:55Z</time>
      </trkpt>
      <trkpt lat="43.37861" lon="6.13416">
        <ele>393.60000610352</ele>
        <time>2017-02-01T14:15:58Z</time>
      </trkpt>
      <trkpt lat="43.3786" lon="6.13428">
        <ele>393.60000610352</ele>
        <time>2017-02-01T14:16:03Z</time>
      </trkpt>
      <trkpt lat="43.37859" lon="6.13439">
        <ele>394</ele>
        <time>2017-02-01T14:16:07Z</time>
      </trkpt>
      <trkpt lat="43.37859" lon="6.1346">
        <ele>395</ele>
        <time>2017-02-01T14:16:15Z</time>
      </trkpt>
      <trkpt lat="43.37859" lon="6.13475">
        <ele>396</ele>
        <time>2017-02-01T14:16:21Z</time>
      </trkpt>
      <trkpt lat="43.37859" lon="6.13483">
        <ele>396.79998779297</ele>
        <time>2017-02-01T14:16:24Z</time>
      </trkpt>
      <trkpt lat="43.37859" lon="6.13489">
        <ele>397.20001220703</ele>
        <time>2017-02-01T14:16:26Z</time>
      </trkpt>
      <trkpt lat="43.37859" lon="6.13505">
        <ele>398.20001220703</ele>
        <time>2017-02-01T14:16:32Z</time>
      </trkpt>
      <trkpt lat="43.37858" lon="6.13513">
        <ele>398.79998779297</ele>
        <time>2017-02-01T14:16:35Z</time>
      </trkpt>
      <trkpt lat="43.37854" lon="6.13529">
        <ele>399.20001220703</ele>
        <time>2017-02-01T14:16:42Z</time>
      </trkpt>
      <trkpt lat="43.37852" lon="6.13533">
        <ele>399.20001220703</ele>
        <time>2017-02-01T14:16:44Z</time>
      </trkpt>
      <trkpt lat="43.37847" lon="6.13552">
        <ele>399.39999389648</ele>
        <time>2017-02-01T14:16:53Z</time>
      </trkpt>
      <trkpt lat="43.37847" lon="6.13553">
        <ele>399.39999389648</ele>
        <time>2017-02-01T14:16:54Z</time>
      </trkpt>
      <trkpt lat="43.37844" lon="6.13555">
        <ele>399.79998779297</ele>
        <time>2017-02-01T14:16:58Z</time>
      </trkpt>
      <trkpt lat="43.37842" lon="6.13556">
        <ele>399.79998779297</ele>
        <time>2017-02-01T14:17:00Z</time>
      </trkpt>
      <trkpt lat="43.37842" lon="6.1356">
        <ele>400.20001220703</ele>
        <time>2017-02-01T14:17:04Z</time>
      </trkpt>
      <trkpt lat="43.37842" lon="6.13561">
        <ele>400.20001220703</ele>
        <time>2017-02-01T14:17:05Z</time>
      </trkpt>
      <trkpt lat="43.3784" lon="6.13565">
        <ele>399.79998779297</ele>
        <time>2017-02-01T14:17:09Z</time>
      </trkpt>
      <trkpt lat="43.3784" lon="6.13567">
        <ele>400</ele>
        <time>2017-02-01T14:17:14Z</time>
      </trkpt>
      <trkpt lat="43.37838" lon="6.13568">
        <ele>399.79998779297</ele>
        <time>2017-02-01T14:17:18Z</time>
      </trkpt>
      <trkpt lat="43.37838" lon="6.13569">
        <ele>399.79998779297</ele>
        <time>2017-02-01T14:17:24Z</time>
      </trkpt>
      <trkpt lat="43.37838" lon="6.13568">
        <ele>399.60000610352</ele>
        <time>2017-02-01T14:17:33Z</time>
      </trkpt>
      <trkpt lat="43.37838" lon="6.13568">
        <ele>399.60000610352</ele>
        <time>2017-02-01T14:17:39Z</time>
      </trkpt>
      <trkpt lat="43.37838" lon="6.13569">
        <ele>399.20001220703</ele>
        <time>2017-02-01T14:18:14Z</time>
      </trkpt>
      <trkpt lat="43.37838" lon="6.13569">
        <ele>399.20001220703</ele>
        <time>2017-02-01T14:18:24Z</time>
      </trkpt>
      <trkpt lat="43.37838" lon="6.13569">
        <ele>399.39999389648</ele>
        <time>2017-02-01T14:18:34Z</time>
      </trkpt>
      <trkpt lat="43.37837" lon="6.1357">
        <ele>399.20001220703</ele>
        <time>2017-02-01T14:19:05Z</time>
      </trkpt>
      <trkpt lat="43.37837" lon="6.1357">
        <ele>399</ele>
        <time>2017-02-01T14:19:16Z</time>
      </trkpt>
      <trkpt lat="43.37837" lon="6.13569">
        <ele>399</ele>
        <time>2017-02-01T14:19:26Z</time>
      </trkpt>
      <trkpt lat="43.37837" lon="6.13568">
        <ele>399</ele>
        <time>2017-02-01T14:19:35Z</time>
      </trkpt>
      <trkpt lat="43.37836" lon="6.13568">
        <ele>399</ele>
        <time>2017-02-01T14:19:41Z</time>
      </trkpt>
      <trkpt lat="43.37836" lon="6.13567">
        <ele>399</ele>
        <time>2017-02-01T14:19:45Z</time>
      </trkpt>
      <trkpt lat="43.37836" lon="6.13568">
        <ele>399</ele>
        <time>2017-02-01T14:19:56Z</time>
      </trkpt>
      <trkpt lat="43.37836" lon="6.13568">
        <ele>399</ele>
        <time>2017-02-01T14:20:03Z</time>
      </trkpt>
      <trkpt lat="43.37836" lon="6.13568">
        <ele>399</ele>
        <time>2017-02-01T14:20:13Z</time>
      </trkpt>
      <trkpt lat="43.37832" lon="6.13568">
        <ele>399.39999389648</ele>
        <time>2017-02-01T14:20:16Z</time>
      </trkpt>
      <trkpt lat="43.3783" lon="6.13568">
        <ele>399.39999389648</ele>
        <time>2017-02-01T14:20:18Z</time>
      </trkpt>
      <trkpt lat="43.37813" lon="6.13568">
        <ele>398.20001220703</ele>
        <time>2017-02-01T14:20:25Z</time>
      </trkpt>
      <trkpt lat="43.37809" lon="6.13568">
        <ele>398</ele>
        <time>2017-02-01T14:20:26Z</time>
      </trkpt>
      <trkpt lat="43.37801" lon="6.1357">
        <ele>397.60000610352</ele>
        <time>2017-02-01T14:20:28Z</time>
      </trkpt>
      <trkpt lat="43.37789" lon="6.13576">
        <ele>397</ele>
        <time>2017-02-01T14:20:31Z</time>
      </trkpt>
      <trkpt lat="43.3777" lon="6.13585">
        <ele>396.20001220703</ele>
        <time>2017-02-01T14:20:37Z</time>
      </trkpt>
      <trkpt lat="43.3777" lon="6.13586">
        <ele>396.20001220703</ele>
        <time>2017-02-01T14:20:38Z</time>
      </trkpt>
      <trkpt lat="43.3777" lon="6.13586">
        <ele>396.20001220703</ele>
        <time>2017-02-01T14:20:39Z</time>
      </trkpt>
      <trkpt lat="43.37768" lon="6.13588">
        <ele>396.39999389648</ele>
        <time>2017-02-01T14:20:42Z</time>
      </trkpt>
      <trkpt lat="43.37766" lon="6.13591">
        <ele>396.39999389648</ele>
        <time>2017-02-01T14:20:45Z</time>
      </trkpt>
      <trkpt lat="43.37764" lon="6.13592">
        <ele>396.20001220703</ele>
        <time>2017-02-01T14:20:48Z</time>
      </trkpt>
      <trkpt lat="43.37764" lon="6.13592">
        <ele>396.39999389648</ele>
        <time>2017-02-01T14:20:50Z</time>
      </trkpt>
      <trkpt lat="43.3776" lon="6.13596">
        <ele>396.39999389648</ele>
        <time>2017-02-01T14:20:53Z</time>
      </trkpt>
      <trkpt lat="43.37753" lon="6.13601">
        <ele>396.20001220703</ele>
        <time>2017-02-01T14:20:58Z</time>
      </trkpt>
      <trkpt lat="43.3775" lon="6.13604">
        <ele>396</ele>
        <time>2017-02-01T14:21:00Z</time>
      </trkpt>
      <trkpt lat="43.37745" lon="6.13609">
        <ele>395.79998779297</ele>
        <time>2017-02-01T14:21:03Z</time>
      </trkpt>
      <trkpt lat="43.37734" lon="6.13617">
        <ele>394.60000610352</ele>
        <time>2017-02-01T14:21:07Z</time>
      </trkpt>
      <trkpt lat="43.3773" lon="6.13621">
        <ele>394.39999389648</ele>
        <time>2017-02-01T14:21:08Z</time>
      </trkpt>
      <trkpt lat="43.37727" lon="6.13625">
        <ele>393.79998779297</ele>
        <time>2017-02-01T14:21:09Z</time>
      </trkpt>
      <trkpt lat="43.37724" lon="6.1363">
        <ele>393.20001220703</ele>
        <time>2017-02-01T14:21:10Z</time>
      </trkpt>
      <trkpt lat="43.37708" lon="6.13654">
        <ele>391.79998779297</ele>
        <time>2017-02-01T14:21:14Z</time>
      </trkpt>
      <trkpt lat="43.37703" lon="6.13659">
        <ele>390.60000610352</ele>
        <time>2017-02-01T14:21:15Z</time>
      </trkpt>
      <trkpt lat="43.37694" lon="6.13669">
        <ele>389.20001220703</ele>
        <time>2017-02-01T14:21:17Z</time>
      </trkpt>
      <trkpt lat="43.37687" lon="6.13675">
        <ele>387.79998779297</ele>
        <time>2017-02-01T14:21:19Z</time>
      </trkpt>
      <trkpt lat="43.37677" lon="6.13673">
        <ele>386.39999389648</ele>
        <time>2017-02-01T14:21:23Z</time>
      </trkpt>
      <trkpt lat="43.37673" lon="6.13666">
        <ele>386.39999389648</ele>
        <time>2017-02-01T14:21:25Z</time>
      </trkpt>
      <trkpt lat="43.37664" lon="6.13653">
        <ele>386</ele>
        <time>2017-02-01T14:21:29Z</time>
      </trkpt>
      <trkpt lat="43.37662" lon="6.13646">
        <ele>384.79998779297</ele>
        <time>2017-02-01T14:21:31Z</time>
      </trkpt>
      <trkpt lat="43.37659" lon="6.13638">
        <ele>382.79998779297</ele>
        <time>2017-02-01T14:21:33Z</time>
      </trkpt>
      <trkpt lat="43.37656" lon="6.1363">
        <ele>381.20001220703</ele>
        <time>2017-02-01T14:21:35Z</time>
      </trkpt>
      <trkpt lat="43.3765" lon="6.13619">
        <ele>380</ele>
        <time>2017-02-01T14:21:39Z</time>
      </trkpt>
      <trkpt lat="43.37646" lon="6.1361">
        <ele>378.39999389648</ele>
        <time>2017-02-01T14:21:42Z</time>
      </trkpt>
      <trkpt lat="43.37642" lon="6.13596">
        <ele>377.39999389648</ele>
        <time>2017-02-01T14:21:45Z</time>
      </trkpt>
      <trkpt lat="43.37638" lon="6.13582">
        <ele>376.39999389648</ele>
        <time>2017-02-01T14:21:48Z</time>
      </trkpt>
      <trkpt lat="43.37636" lon="6.13578">
        <ele>376</ele>
        <time>2017-02-01T14:21:49Z</time>
      </trkpt>
      <trkpt lat="43.37633" lon="6.13569">
        <ele>375.39999389648</ele>
        <time>2017-02-01T14:21:51Z</time>
      </trkpt>
      <trkpt lat="43.37629" lon="6.13557">
        <ele>373.39999389648</ele>
        <time>2017-02-01T14:21:54Z</time>
      </trkpt>
      <trkpt lat="43.37628" lon="6.1355">
        <ele>371.79998779297</ele>
        <time>2017-02-01T14:21:56Z</time>
      </trkpt>
      <trkpt lat="43.37626" lon="6.13544">
        <ele>371</ele>
        <time>2017-02-01T14:21:58Z</time>
      </trkpt>
      <trkpt lat="43.37626" lon="6.13542">
        <ele>370.79998779297</ele>
        <time>2017-02-01T14:21:59Z</time>
      </trkpt>
      <trkpt lat="43.37625" lon="6.1354">
        <ele>370.60000610352</ele>
        <time>2017-02-01T14:22:00Z</time>
      </trkpt>
      <trkpt lat="43.37624" lon="6.1354">
        <ele>370.60000610352</ele>
        <time>2017-02-01T14:22:06Z</time>
      </trkpt>
      <trkpt lat="43.37624" lon="6.1354">
        <ele>370.60000610352</ele>
        <time>2017-02-01T14:22:09Z</time>
      </trkpt>
      <trkpt lat="43.37624" lon="6.13538">
        <ele>370.60000610352</ele>
        <time>2017-02-01T14:22:14Z</time>
      </trkpt>
      <trkpt lat="43.37622" lon="6.1353">
        <ele>370.39999389648</ele>
        <time>2017-02-01T14:22:17Z</time>
      </trkpt>
      <trkpt lat="43.37619" lon="6.13521">
        <ele>370.20001220703</ele>
        <time>2017-02-01T14:22:19Z</time>
      </trkpt>
      <trkpt lat="43.37617" lon="6.13516">
        <ele>369.79998779297</ele>
        <time>2017-02-01T14:22:20Z</time>
      </trkpt>
      <trkpt lat="43.37615" lon="6.1351">
        <ele>369.20001220703</ele>
        <time>2017-02-01T14:22:21Z</time>
      </trkpt>
      <trkpt lat="43.37611" lon="6.13498">
        <ele>367.79998779297</ele>
        <time>2017-02-01T14:22:23Z</time>
      </trkpt>
      <trkpt lat="43.37604" lon="6.13478">
        <ele>366</ele>
        <time>2017-02-01T14:22:27Z</time>
      </trkpt>
      <trkpt lat="43.376" lon="6.1347">
        <ele>363.60000610352</ele>
        <time>2017-02-01T14:22:29Z</time>
      </trkpt>
      <trkpt lat="43.37593" lon="6.13461">
        <ele>362</ele>
        <time>2017-02-01T14:22:33Z</time>
      </trkpt>
      <trkpt lat="43.37587" lon="6.13464">
        <ele>361</ele>
        <time>2017-02-01T14:22:36Z</time>
      </trkpt>
      <trkpt lat="43.37581" lon="6.13478">
        <ele>360</ele>
        <time>2017-02-01T14:22:40Z</time>
      </trkpt>
      <trkpt lat="43.37577" lon="6.13488">
        <ele>359.39999389648</ele>
        <time>2017-02-01T14:22:43Z</time>
      </trkpt>
      <trkpt lat="43.37575" lon="6.13496">
        <ele>359</ele>
        <time>2017-02-01T14:22:45Z</time>
      </trkpt>
      <trkpt lat="43.37569" lon="6.13513">
        <ele>357.39999389648</ele>
        <time>2017-02-01T14:22:49Z</time>
      </trkpt>
      <trkpt lat="43.37567" lon="6.13515">
        <ele>356.79998779297</ele>
        <time>2017-02-01T14:22:50Z</time>
      </trkpt>
      <trkpt lat="43.37566" lon="6.13515">
        <ele>356.39999389648</ele>
        <time>2017-02-01T14:22:51Z</time>
      </trkpt>
      <trkpt lat="43.37562" lon="6.13514">
        <ele>355.60000610352</ele>
        <time>2017-02-01T14:22:53Z</time>
      </trkpt>
      <trkpt lat="43.37561" lon="6.13512">
        <ele>355.20001220703</ele>
        <time>2017-02-01T14:22:54Z</time>
      </trkpt>
      <trkpt lat="43.3756" lon="6.13503">
        <ele>354</ele>
        <time>2017-02-01T14:22:57Z</time>
      </trkpt>
      <trkpt lat="43.37558" lon="6.13491">
        <ele>353.20001220703</ele>
        <time>2017-02-01T14:23:01Z</time>
      </trkpt>
      <trkpt lat="43.37555" lon="6.13483">
        <ele>352.60000610352</ele>
        <time>2017-02-01T14:23:04Z</time>
      </trkpt>
      <trkpt lat="43.37554" lon="6.13481">
        <ele>352</ele>
        <time>2017-02-01T14:23:05Z</time>
      </trkpt>
      <trkpt lat="43.37553" lon="6.13476">
        <ele>350.79998779297</ele>
        <time>2017-02-01T14:23:07Z</time>
      </trkpt>
      <trkpt lat="43.37548" lon="6.13465">
        <ele>349.60000610352</ele>
        <time>2017-02-01T14:23:11Z</time>
      </trkpt>
      <trkpt lat="43.37544" lon="6.1346">
        <ele>348.20001220703</ele>
        <time>2017-02-01T14:23:13Z</time>
      </trkpt>
      <trkpt lat="43.37536" lon="6.13458">
        <ele>346.79998779297</ele>
        <time>2017-02-01T14:23:16Z</time>
      </trkpt>
      <trkpt lat="43.37527" lon="6.1346">
        <ele>345.79998779297</ele>
        <time>2017-02-01T14:23:19Z</time>
      </trkpt>
      <trkpt lat="43.37522" lon="6.13464">
        <ele>344.79998779297</ele>
        <time>2017-02-01T14:23:21Z</time>
      </trkpt>
      <trkpt lat="43.37521" lon="6.13467">
        <ele>344.39999389648</ele>
        <time>2017-02-01T14:23:22Z</time>
      </trkpt>
      <trkpt lat="43.37521" lon="6.13468">
        <ele>343.60000610352</ele>
        <time>2017-02-01T14:23:24Z</time>
      </trkpt>
      <trkpt lat="43.37521" lon="6.13468">
        <ele>343.20001220703</ele>
        <time>2017-02-01T14:23:25Z</time>
      </trkpt>
      <trkpt lat="43.37521" lon="6.13469">
        <ele>343</ele>
        <time>2017-02-01T14:23:31Z</time>
      </trkpt>
      <trkpt lat="43.37521" lon="6.13469">
        <ele>343.20001220703</ele>
        <time>2017-02-01T14:23:41Z</time>
      </trkpt>
      <trkpt lat="43.37521" lon="6.13469">
        <ele>343.20001220703</ele>
        <time>2017-02-01T14:24:21Z</time>
      </trkpt>
      <trkpt lat="43.37521" lon="6.1347">
        <ele>343.79998779297</ele>
        <time>2017-02-01T14:24:41Z</time>
      </trkpt>
      <trkpt lat="43.37521" lon="6.1347">
        <ele>343.79998779297</ele>
        <time>2017-02-01T14:24:51Z</time>
      </trkpt>
      <trkpt lat="43.37522" lon="6.1347">
        <ele>343.79998779297</ele>
        <time>2017-02-01T14:25:02Z</time>
      </trkpt>
      <trkpt lat="43.37522" lon="6.1347">
        <ele>343.79998779297</ele>
        <time>2017-02-01T14:25:13Z</time>
      </trkpt>
      <trkpt lat="43.37521" lon="6.13469">
        <ele>343.79998779297</ele>
        <time>2017-02-01T14:25:21Z</time>
      </trkpt>
      <trkpt lat="43.37521" lon="6.13469">
        <ele>343.79998779297</ele>
        <time>2017-02-01T14:25:33Z</time>
      </trkpt>
      <trkpt lat="43.37521" lon="6.13469">
        <ele>343.79998779297</ele>
        <time>2017-02-01T14:25:43Z</time>
      </trkpt>
      <trkpt lat="43.37521" lon="6.13469">
        <ele>343.79998779297</ele>
        <time>2017-02-01T14:25:48Z</time>
      </trkpt>
      <trkpt lat="43.37521" lon="6.13469">
        <ele>343.79998779297</ele>
        <time>2017-02-01T14:25:58Z</time>
      </trkpt>
      <trkpt lat="43.37521" lon="6.13469">
        <ele>343.79998779297</ele>
        <time>2017-02-01T14:26:39Z</time>
      </trkpt>
      <trkpt lat="43.37521" lon="6.13469">
        <ele>343.79998779297</ele>
        <time>2017-02-01T14:26:43Z</time>
      </trkpt>
      <trkpt lat="43.37521" lon="6.13469">
        <ele>343.79998779297</ele>
        <time>2017-02-01T14:26:53Z</time>
      </trkpt>
      <trkpt lat="43.37521" lon="6.13469">
        <ele>343.79998779297</ele>
        <time>2017-02-01T14:27:13Z</time>
      </trkpt>
      <trkpt lat="43.37521" lon="6.13469">
        <ele>343.79998779297</ele>
        <time>2017-02-01T14:27:23Z</time>
      </trkpt>
      <trkpt lat="43.37521" lon="6.13469">
        <ele>343.79998779297</ele>
        <time>2017-02-01T14:27:45Z</time>
      </trkpt>
      <trkpt lat="43.37521" lon="6.13471">
        <ele>343.79998779297</ele>
        <time>2017-02-01T14:27:52Z</time>
      </trkpt>
      <trkpt lat="43.37521" lon="6.13473">
        <ele>343.79998779297</ele>
        <time>2017-02-01T14:27:54Z</time>
      </trkpt>
      <trkpt lat="43.37521" lon="6.13476">
        <ele>343.79998779297</ele>
        <time>2017-02-01T14:27:55Z</time>
      </trkpt>
      <trkpt lat="43.37521" lon="6.13478">
        <ele>344.20001220703</ele>
        <time>2017-02-01T14:27:56Z</time>
      </trkpt>
      <trkpt lat="43.37522" lon="6.13483">
        <ele>344.20001220703</ele>
        <time>2017-02-01T14:27:58Z</time>
      </trkpt>
      <trkpt lat="43.37523" lon="6.13493">
        <ele>344.39999389648</ele>
        <time>2017-02-01T14:28:02Z</time>
      </trkpt>
      <trkpt lat="43.37525" lon="6.13501">
        <ele>344.60000610352</ele>
        <time>2017-02-01T14:28:05Z</time>
      </trkpt>
      <trkpt lat="43.37528" lon="6.13527">
        <ele>345.79998779297</ele>
        <time>2017-02-01T14:28:15Z</time>
      </trkpt>
      <trkpt lat="43.37529" lon="6.13554">
        <ele>346.39999389648</ele>
        <time>2017-02-01T14:28:25Z</time>
      </trkpt>
      <trkpt lat="43.37533" lon="6.13571">
        <ele>347.60000610352</ele>
        <time>2017-02-01T14:28:32Z</time>
      </trkpt>
      <trkpt lat="43.37539" lon="6.13596">
        <ele>348.60000610352</ele>
        <time>2017-02-01T14:28:43Z</time>
      </trkpt>
      <trkpt lat="43.37546" lon="6.1362">
        <ele>349.60000610352</ele>
        <time>2017-02-01T14:28:54Z</time>
      </trkpt>
      <trkpt lat="43.37546" lon="6.13623">
        <ele>349.79998779297</ele>
        <time>2017-02-01T14:28:55Z</time>
      </trkpt>
      <trkpt lat="43.37551" lon="6.13645">
        <ele>350.39999389648</ele>
        <time>2017-02-01T14:29:05Z</time>
      </trkpt>
      <trkpt lat="43.37553" lon="6.13652">
        <ele>350.60000610352</ele>
        <time>2017-02-01T14:29:08Z</time>
      </trkpt>
      <trkpt lat="43.37554" lon="6.13671">
        <ele>351.39999389648</ele>
        <time>2017-02-01T14:29:15Z</time>
      </trkpt>
      <trkpt lat="43.37555" lon="6.13697">
        <ele>351.39999389648</ele>
        <time>2017-02-01T14:29:25Z</time>
      </trkpt>
      <trkpt lat="43.37556" lon="6.13706">
        <ele>351.60000610352</ele>
        <time>2017-02-01T14:29:29Z</time>
      </trkpt>
      <trkpt lat="43.37563" lon="6.13733">
        <ele>354</ele>
        <time>2017-02-01T14:29:41Z</time>
      </trkpt>
      <trkpt lat="43.37565" lon="6.13753">
        <ele>355</ele>
        <time>2017-02-01T14:29:50Z</time>
      </trkpt>
      <trkpt lat="43.37566" lon="6.13766">
        <ele>355.79998779297</ele>
        <time>2017-02-01T14:29:56Z</time>
      </trkpt>
      <trkpt lat="43.37567" lon="6.13773">
        <ele>356.20001220703</ele>
        <time>2017-02-01T14:29:59Z</time>
      </trkpt>
      <trkpt lat="43.37568" lon="6.13777">
        <ele>356.39999389648</ele>
        <time>2017-02-01T14:30:01Z</time>
      </trkpt>
      <trkpt lat="43.37569" lon="6.138">
        <ele>356.79998779297</ele>
        <time>2017-02-01T14:30:11Z</time>
      </trkpt>
      <trkpt lat="43.37569" lon="6.13813">
        <ele>356.79998779297</ele>
        <time>2017-02-01T14:30:16Z</time>
      </trkpt>
      <trkpt lat="43.37568" lon="6.13822">
        <ele>356.79998779297</ele>
        <time>2017-02-01T14:30:20Z</time>
      </trkpt>
      <trkpt lat="43.37566" lon="6.13829">
        <ele>356.79998779297</ele>
        <time>2017-02-01T14:30:23Z</time>
      </trkpt>
      <trkpt lat="43.37565" lon="6.13837">
        <ele>356.79998779297</ele>
        <time>2017-02-01T14:30:26Z</time>
      </trkpt>
      <trkpt lat="43.37563" lon="6.13854">
        <ele>357.20001220703</ele>
        <time>2017-02-01T14:30:33Z</time>
      </trkpt>
      <trkpt lat="43.37563" lon="6.13864">
        <ele>357.20001220703</ele>
        <time>2017-02-01T14:30:37Z</time>
      </trkpt>
      <trkpt lat="43.37562" lon="6.13885">
        <ele>357.20001220703</ele>
        <time>2017-02-01T14:30:46Z</time>
      </trkpt>
      <trkpt lat="43.37557" lon="6.13907">
        <ele>358</ele>
        <time>2017-02-01T14:30:56Z</time>
      </trkpt>
      <trkpt lat="43.37555" lon="6.1392">
        <ele>358.20001220703</ele>
        <time>2017-02-01T14:31:02Z</time>
      </trkpt>
      <trkpt lat="43.37552" lon="6.1393">
        <ele>358.79998779297</ele>
        <time>2017-02-01T14:31:06Z</time>
      </trkpt>
      <trkpt lat="43.37547" lon="6.13947">
        <ele>359.20001220703</ele>
        <time>2017-02-01T14:31:13Z</time>
      </trkpt>
      <trkpt lat="43.37543" lon="6.13956">
        <ele>359</ele>
        <time>2017-02-01T14:31:17Z</time>
      </trkpt>
      <trkpt lat="43.37542" lon="6.1396">
        <ele>359.20001220703</ele>
        <time>2017-02-01T14:31:19Z</time>
      </trkpt>
      <trkpt lat="43.37539" lon="6.13971">
        <ele>360.20001220703</ele>
        <time>2017-02-01T14:31:24Z</time>
      </trkpt>
      <trkpt lat="43.37537" lon="6.13979">
        <ele>360.60000610352</ele>
        <time>2017-02-01T14:31:27Z</time>
      </trkpt>
      <trkpt lat="43.37536" lon="6.13991">
        <ele>361</ele>
        <time>2017-02-01T14:31:32Z</time>
      </trkpt>
      <trkpt lat="43.37536" lon="6.13996">
        <ele>361.20001220703</ele>
        <time>2017-02-01T14:31:34Z</time>
      </trkpt>
      <trkpt lat="43.37535" lon="6.14003">
        <ele>361.39999389648</ele>
        <time>2017-02-01T14:31:37Z</time>
      </trkpt>
      <trkpt lat="43.37529" lon="6.14026">
        <ele>362.20001220703</ele>
        <time>2017-02-01T14:31:47Z</time>
      </trkpt>
      <trkpt lat="43.37526" lon="6.14035">
        <ele>362.20001220703</ele>
        <time>2017-02-01T14:31:51Z</time>
      </trkpt>
      <trkpt lat="43.37525" lon="6.14037">
        <ele>362.39999389648</ele>
        <time>2017-02-01T14:31:52Z</time>
      </trkpt>
      <trkpt lat="43.37521" lon="6.14046">
        <ele>363</ele>
        <time>2017-02-01T14:31:57Z</time>
      </trkpt>
      <trkpt lat="43.37519" lon="6.14054">
        <ele>363.39999389648</ele>
        <time>2017-02-01T14:32:01Z</time>
      </trkpt>
      <trkpt lat="43.37517" lon="6.14065">
        <ele>364</ele>
        <time>2017-02-01T14:32:07Z</time>
      </trkpt>
      <trkpt lat="43.37515" lon="6.14079">
        <ele>364.60000610352</ele>
        <time>2017-02-01T14:32:14Z</time>
      </trkpt>
      <trkpt lat="43.37515" lon="6.14084">
        <ele>365.39999389648</ele>
        <time>2017-02-01T14:32:17Z</time>
      </trkpt>
      <trkpt lat="43.37514" lon="6.14094">
        <ele>365.60000610352</ele>
        <time>2017-02-01T14:32:22Z</time>
      </trkpt>
      <trkpt lat="43.37514" lon="6.14097">
        <ele>365.79998779297</ele>
        <time>2017-02-01T14:32:24Z</time>
      </trkpt>
      <trkpt lat="43.37514" lon="6.14099">
        <ele>365.79998779297</ele>
        <time>2017-02-01T14:32:25Z</time>
      </trkpt>
      <trkpt lat="43.37509" lon="6.14106">
        <ele>366</ele>
        <time>2017-02-01T14:32:30Z</time>
      </trkpt>
      <trkpt lat="43.37508" lon="6.14107">
        <ele>366</ele>
        <time>2017-02-01T14:32:31Z</time>
      </trkpt>
      <trkpt lat="43.37502" lon="6.14114">
        <ele>366.60000610352</ele>
        <time>2017-02-01T14:32:37Z</time>
      </trkpt>
      <trkpt lat="43.37502" lon="6.14115">
        <ele>366.79998779297</ele>
        <time>2017-02-01T14:32:38Z</time>
      </trkpt>
      <trkpt lat="43.37494" lon="6.14129">
        <ele>367.79998779297</ele>
        <time>2017-02-01T14:32:47Z</time>
      </trkpt>
      <trkpt lat="43.37487" lon="6.14135">
        <ele>368.79998779297</ele>
        <time>2017-02-01T14:32:52Z</time>
      </trkpt>
      <trkpt lat="43.37483" lon="6.14139">
        <ele>369.20001220703</ele>
        <time>2017-02-01T14:32:55Z</time>
      </trkpt>
      <trkpt lat="43.37481" lon="6.14144">
        <ele>370</ele>
        <time>2017-02-01T14:32:58Z</time>
      </trkpt>
      <trkpt lat="43.37473" lon="6.14156">
        <ele>370.39999389648</ele>
        <time>2017-02-01T14:33:06Z</time>
      </trkpt>
      <trkpt lat="43.3746" lon="6.14157">
        <ele>372</ele>
        <time>2017-02-01T14:33:15Z</time>
      </trkpt>
      <trkpt lat="43.37457" lon="6.14158">
        <ele>372.39999389648</ele>
        <time>2017-02-01T14:33:17Z</time>
      </trkpt>
      <trkpt lat="43.3745" lon="6.14165">
        <ele>373.20001220703</ele>
        <time>2017-02-01T14:33:24Z</time>
      </trkpt>
      <trkpt lat="43.37446" lon="6.14167">
        <ele>373.60000610352</ele>
        <time>2017-02-01T14:33:27Z</time>
      </trkpt>
      <trkpt lat="43.37434" lon="6.14173">
        <ele>374.60000610352</ele>
        <time>2017-02-01T14:33:37Z</time>
      </trkpt>
      <trkpt lat="43.37428" lon="6.14176">
        <ele>375.39999389648</ele>
        <time>2017-02-01T14:33:43Z</time>
      </trkpt>
      <trkpt lat="43.37421" lon="6.14179">
        <ele>377</ele>
        <time>2017-02-01T14:33:50Z</time>
      </trkpt>
      <trkpt lat="43.37419" lon="6.14181">
        <ele>377.60000610352</ele>
        <time>2017-02-01T14:33:53Z</time>
      </trkpt>
      <trkpt lat="43.37415" lon="6.14182">
        <ele>378</ele>
        <time>2017-02-01T14:33:57Z</time>
      </trkpt>
      <trkpt lat="43.37412" lon="6.14184">
        <ele>378.60000610352</ele>
        <time>2017-02-01T14:34:00Z</time>
      </trkpt>
      <trkpt lat="43.37408" lon="6.14186">
        <ele>379.39999389648</ele>
        <time>2017-02-01T14:34:05Z</time>
      </trkpt>
      <trkpt lat="43.37408" lon="6.14186">
        <ele>379.60000610352</ele>
        <time>2017-02-01T14:34:07Z</time>
      </trkpt>
      <trkpt lat="43.37408" lon="6.14186">
        <ele>380</ele>
        <time>2017-02-01T14:34:12Z</time>
      </trkpt>
      <trkpt lat="43.37408" lon="6.14186">
        <ele>379.79998779297</ele>
        <time>2017-02-01T14:34:15Z</time>
      </trkpt>
      <trkpt lat="43.37408" lon="6.14186">
        <ele>379.79998779297</ele>
        <time>2017-02-01T14:34:17Z</time>
      </trkpt>
      <trkpt lat="43.37408" lon="6.14186">
        <ele>379.79998779297</ele>
        <time>2017-02-01T14:34:19Z</time>
      </trkpt>
      <trkpt lat="43.37408" lon="6.14186">
        <ele>379.79998779297</ele>
        <time>2017-02-01T14:34:21Z</time>
      </trkpt>
      <trkpt lat="43.37408" lon="6.14186">
        <ele>379.60000610352</ele>
        <time>2017-02-01T14:34:25Z</time>
      </trkpt>
      <trkpt lat="43.37408" lon="6.14185">
        <ele>379.39999389648</ele>
        <time>2017-02-01T14:34:28Z</time>
      </trkpt>
      <trkpt lat="43.37407" lon="6.14184">
        <ele>379.79998779297</ele>
        <time>2017-02-01T14:34:34Z</time>
      </trkpt>
      <trkpt lat="43.37407" lon="6.14184">
        <ele>380</ele>
        <time>2017-02-01T14:34:38Z</time>
      </trkpt>
      <trkpt lat="43.37407" lon="6.14185">
        <ele>379.79998779297</ele>
        <time>2017-02-01T14:34:40Z</time>
      </trkpt>
      <trkpt lat="43.37407" lon="6.14185">
        <ele>379.79998779297</ele>
        <time>2017-02-01T14:34:48Z</time>
      </trkpt>
      <trkpt lat="43.37408" lon="6.14184">
        <ele>379.79998779297</ele>
        <time>2017-02-01T14:34:50Z</time>
      </trkpt>
      <trkpt lat="43.37407" lon="6.14184">
        <ele>380</ele>
        <time>2017-02-01T14:34:58Z</time>
      </trkpt>
      <trkpt lat="43.37405" lon="6.14185">
        <ele>380.39999389648</ele>
        <time>2017-02-01T14:35:08Z</time>
      </trkpt>
      <trkpt lat="43.37404" lon="6.14185">
        <ele>380.60000610352</ele>
        <time>2017-02-01T14:35:12Z</time>
      </trkpt>
      <trkpt lat="43.37403" lon="6.14185">
        <ele>380.60000610352</ele>
        <time>2017-02-01T14:35:14Z</time>
      </trkpt>
      <trkpt lat="43.374" lon="6.14187">
        <ele>380.60000610352</ele>
        <time>2017-02-01T14:35:16Z</time>
      </trkpt>
      <trkpt lat="43.37399" lon="6.14187">
        <ele>380.60000610352</ele>
        <time>2017-02-01T14:35:17Z</time>
      </trkpt>
      <trkpt lat="43.37399" lon="6.14187">
        <ele>380.60000610352</ele>
        <time>2017-02-01T14:35:18Z</time>
      </trkpt>
      <trkpt lat="43.37391" lon="6.14189">
        <ele>381.39999389648</ele>
        <time>2017-02-01T14:35:23Z</time>
      </trkpt>
      <trkpt lat="43.37384" lon="6.1419">
        <ele>382.20001220703</ele>
        <time>2017-02-01T14:35:28Z</time>
      </trkpt>
      <trkpt lat="43.3737" lon="6.14199">
        <ele>382.79998779297</ele>
        <time>2017-02-01T14:35:38Z</time>
      </trkpt>
      <trkpt lat="43.37368" lon="6.14203">
        <ele>383</ele>
        <time>2017-02-01T14:35:41Z</time>
      </trkpt>
      <trkpt lat="43.37364" lon="6.14209">
        <ele>384.20001220703</ele>
        <time>2017-02-01T14:35:46Z</time>
      </trkpt>
      <trkpt lat="43.37361" lon="6.14217">
        <ele>384.79998779297</ele>
        <time>2017-02-01T14:35:51Z</time>
      </trkpt>
      <trkpt lat="43.37355" lon="6.14227">
        <ele>385.20001220703</ele>
        <time>2017-02-01T14:35:58Z</time>
      </trkpt>
      <trkpt lat="43.3735" lon="6.14236">
        <ele>385.20001220703</ele>
        <time>2017-02-01T14:36:06Z</time>
      </trkpt>
      <trkpt lat="43.37349" lon="6.14238">
        <ele>385.20001220703</ele>
        <time>2017-02-01T14:36:08Z</time>
      </trkpt>
      <trkpt lat="43.37349" lon="6.14239">
        <ele>385.39999389648</ele>
        <time>2017-02-01T14:36:13Z</time>
      </trkpt>
      <trkpt lat="43.37349" lon="6.14239">
        <ele>385.39999389648</ele>
        <time>2017-02-01T14:36:18Z</time>
      </trkpt>
      <trkpt lat="43.37349" lon="6.14239">
        <ele>385.39999389648</ele>
        <time>2017-02-01T14:36:23Z</time>
      </trkpt>
      <trkpt lat="43.37349" lon="6.14239">
        <ele>385.79998779297</ele>
        <time>2017-02-01T14:36:30Z</time>
      </trkpt>
      <trkpt lat="43.37349" lon="6.14239">
        <ele>385.79998779297</ele>
        <time>2017-02-01T14:36:34Z</time>
      </trkpt>
      <trkpt lat="43.3735" lon="6.14238">
        <ele>385.79998779297</ele>
        <time>2017-02-01T14:36:36Z</time>
      </trkpt>
      <trkpt lat="43.3735" lon="6.14238">
        <ele>385.79998779297</ele>
        <time>2017-02-01T14:36:37Z</time>
      </trkpt>
      <trkpt lat="43.3735" lon="6.14236">
        <ele>385.79998779297</ele>
        <time>2017-02-01T14:36:42Z</time>
      </trkpt>
      <trkpt lat="43.37349" lon="6.14234">
        <ele>385.79998779297</ele>
        <time>2017-02-01T14:36:47Z</time>
      </trkpt>
      <trkpt lat="43.37349" lon="6.14234">
        <ele>385.79998779297</ele>
        <time>2017-02-01T14:36:48Z</time>
      </trkpt>
      <trkpt lat="43.37349" lon="6.14233">
        <ele>385.79998779297</ele>
        <time>2017-02-01T14:36:57Z</time>
      </trkpt>
      <trkpt lat="43.37348" lon="6.14233">
        <ele>385.79998779297</ele>
        <time>2017-02-01T14:37:05Z</time>
      </trkpt>
      <trkpt lat="43.37348" lon="6.14232">
        <ele>385.60000610352</ele>
        <time>2017-02-01T14:37:18Z</time>
      </trkpt>
      <trkpt lat="43.37348" lon="6.14232">
        <ele>385.60000610352</ele>
        <time>2017-02-01T14:37:35Z</time>
      </trkpt>
      <trkpt lat="43.37348" lon="6.14232">
        <ele>385.60000610352</ele>
        <time>2017-02-01T14:37:38Z</time>
      </trkpt>
      <trkpt lat="43.37348" lon="6.14232">
        <ele>385.60000610352</ele>
        <time>2017-02-01T14:37:47Z</time>
      </trkpt>
      <trkpt lat="43.37349" lon="6.14232">
        <ele>385.60000610352</ele>
        <time>2017-02-01T14:37:57Z</time>
      </trkpt>
      <trkpt lat="43.37349" lon="6.14232">
        <ele>385.60000610352</ele>
        <time>2017-02-01T14:38:00Z</time>
      </trkpt>
      <trkpt lat="43.37349" lon="6.14232">
        <ele>385.60000610352</ele>
        <time>2017-02-01T14:38:08Z</time>
      </trkpt>
      <trkpt lat="43.37349" lon="6.14232">
        <ele>385.60000610352</ele>
        <time>2017-02-01T14:38:18Z</time>
      </trkpt>
      <trkpt lat="43.37348" lon="6.14236">
        <ele>385.60000610352</ele>
        <time>2017-02-01T14:38:27Z</time>
      </trkpt>
      <trkpt lat="43.37348" lon="6.14239">
        <ele>385.60000610352</ele>
        <time>2017-02-01T14:38:33Z</time>
      </trkpt>
      <trkpt lat="43.37347" lon="6.14239">
        <ele>385.60000610352</ele>
        <time>2017-02-01T14:38:38Z</time>
      </trkpt>
      <trkpt lat="43.37347" lon="6.1424">
        <ele>385.60000610352</ele>
        <time>2017-02-01T14:38:48Z</time>
      </trkpt>
      <trkpt lat="43.37347" lon="6.1424">
        <ele>385.60000610352</ele>
        <time>2017-02-01T14:38:58Z</time>
      </trkpt>
      <trkpt lat="43.37347" lon="6.1424">
        <ele>385.60000610352</ele>
        <time>2017-02-01T14:39:18Z</time>
      </trkpt>
      <trkpt lat="43.37347" lon="6.1424">
        <ele>385.60000610352</ele>
        <time>2017-02-01T14:39:22Z</time>
      </trkpt>
      <trkpt lat="43.37346" lon="6.14241">
        <ele>385.60000610352</ele>
        <time>2017-02-01T14:39:24Z</time>
      </trkpt>
      <trkpt lat="43.37343" lon="6.14246">
        <ele>385.39999389648</ele>
        <time>2017-02-01T14:39:28Z</time>
      </trkpt>
      <trkpt lat="43.37338" lon="6.1425">
        <ele>386.39999389648</ele>
        <time>2017-02-01T14:39:31Z</time>
      </trkpt>
      <trkpt lat="43.37326" lon="6.14265">
        <ele>385.60000610352</ele>
        <time>2017-02-01T14:39:36Z</time>
      </trkpt>
      <trkpt lat="43.37323" lon="6.14269">
        <ele>385</ele>
        <time>2017-02-01T14:39:37Z</time>
      </trkpt>
      <trkpt lat="43.37319" lon="6.14273">
        <ele>384.20001220703</ele>
        <time>2017-02-01T14:39:38Z</time>
      </trkpt>
      <trkpt lat="43.37317" lon="6.14276">
        <ele>383.39999389648</ele>
        <time>2017-02-01T14:39:39Z</time>
      </trkpt>
      <trkpt lat="43.37308" lon="6.14284">
        <ele>381.79998779297</ele>
        <time>2017-02-01T14:39:42Z</time>
      </trkpt>
      <trkpt lat="43.37289" lon="6.14293">
        <ele>378.20001220703</ele>
        <time>2017-02-01T14:39:46Z</time>
      </trkpt>
      <trkpt lat="43.37284" lon="6.14297">
        <ele>377.20001220703</ele>
        <time>2017-02-01T14:39:47Z</time>
      </trkpt>
      <trkpt lat="43.3728" lon="6.14301">
        <ele>376.39999389648</ele>
        <time>2017-02-01T14:39:48Z</time>
      </trkpt>
      <trkpt lat="43.3727" lon="6.14311">
        <ele>374.39999389648</ele>
        <time>2017-02-01T14:39:50Z</time>
      </trkpt>
      <trkpt lat="43.37265" lon="6.14315">
        <ele>373.39999389648</ele>
        <time>2017-02-01T14:39:51Z</time>
      </trkpt>
      <trkpt lat="43.3726" lon="6.14318">
        <ele>372.20001220703</ele>
        <time>2017-02-01T14:39:52Z</time>
      </trkpt>
      <trkpt lat="43.37254" lon="6.14321">
        <ele>371.20001220703</ele>
        <time>2017-02-01T14:39:54Z</time>
      </trkpt>
      <trkpt lat="43.37247" lon="6.14319">
        <ele>370.60000610352</ele>
        <time>2017-02-01T14:39:57Z</time>
      </trkpt>
      <trkpt lat="43.3724" lon="6.14317">
        <ele>370.20001220703</ele>
        <time>2017-02-01T14:39:59Z</time>
      </trkpt>
      <trkpt lat="43.37231" lon="6.1432">
        <ele>369.79998779297</ele>
        <time>2017-02-01T14:40:02Z</time>
      </trkpt>
      <trkpt lat="43.37218" lon="6.14326">
        <ele>369.39999389648</ele>
        <time>2017-02-01T14:40:07Z</time>
      </trkpt>
      <trkpt lat="43.37213" lon="6.14329">
        <ele>369</ele>
        <time>2017-02-01T14:40:09Z</time>
      </trkpt>
      <trkpt lat="43.37208" lon="6.14334">
        <ele>368.79998779297</ele>
        <time>2017-02-01T14:40:11Z</time>
      </trkpt>
      <trkpt lat="43.37204" lon="6.14338">
        <ele>368.20001220703</ele>
        <time>2017-02-01T14:40:13Z</time>
      </trkpt>
      <trkpt lat="43.37202" lon="6.14339">
        <ele>368</ele>
        <time>2017-02-01T14:40:14Z</time>
      </trkpt>
      <trkpt lat="43.372" lon="6.14341">
        <ele>367.79998779297</ele>
        <time>2017-02-01T14:40:15Z</time>
      </trkpt>
      <trkpt lat="43.37198" lon="6.14342">
        <ele>367.60000610352</ele>
        <time>2017-02-01T14:40:16Z</time>
      </trkpt>
      <trkpt lat="43.37194" lon="6.14343">
        <ele>367.20001220703</ele>
        <time>2017-02-01T14:40:18Z</time>
      </trkpt>
      <trkpt lat="43.37193" lon="6.14343">
        <ele>367.20001220703</ele>
        <time>2017-02-01T14:40:19Z</time>
      </trkpt>
      <trkpt lat="43.37192" lon="6.14343">
        <ele>366.60000610352</ele>
        <time>2017-02-01T14:40:23Z</time>
      </trkpt>
      <trkpt lat="43.3719" lon="6.14342">
        <ele>366.39999389648</ele>
        <time>2017-02-01T14:40:27Z</time>
      </trkpt>
      <trkpt lat="43.37188" lon="6.14343">
        <ele>366.39999389648</ele>
        <time>2017-02-01T14:40:29Z</time>
      </trkpt>
      <trkpt lat="43.37186" lon="6.14349">
        <ele>366.20001220703</ele>
        <time>2017-02-01T14:40:33Z</time>
      </trkpt>
      <trkpt lat="43.37181" lon="6.14358">
        <ele>366</ele>
        <time>2017-02-01T14:40:38Z</time>
      </trkpt>
      <trkpt lat="43.3718" lon="6.1436">
        <ele>366</ele>
        <time>2017-02-01T14:40:39Z</time>
      </trkpt>
      <trkpt lat="43.37168" lon="6.14373">
        <ele>366.20001220703</ele>
        <time>2017-02-01T14:40:48Z</time>
      </trkpt>
      <trkpt lat="43.37158" lon="6.14368">
        <ele>365.79998779297</ele>
        <time>2017-02-01T14:40:53Z</time>
      </trkpt>
      <trkpt lat="43.3715" lon="6.14369">
        <ele>365.79998779297</ele>
        <time>2017-02-01T14:40:58Z</time>
      </trkpt>
      <trkpt lat="43.37132" lon="6.1437">
        <ele>366</ele>
        <time>2017-02-01T14:41:07Z</time>
      </trkpt>
      <trkpt lat="43.37119" lon="6.14366">
        <ele>366.39999389648</ele>
        <time>2017-02-01T14:41:14Z</time>
      </trkpt>
      <trkpt lat="43.37108" lon="6.1436">
        <ele>366.39999389648</ele>
        <time>2017-02-01T14:41:18Z</time>
      </trkpt>
      <trkpt lat="43.37086" lon="6.14337">
        <ele>365.39999389648</ele>
        <time>2017-02-01T14:41:28Z</time>
      </trkpt>
      <trkpt lat="43.37082" lon="6.14321">
        <ele>364.60000610352</ele>
        <time>2017-02-01T14:41:33Z</time>
      </trkpt>
      <trkpt lat="43.37077" lon="6.14302">
        <ele>363.79998779297</ele>
        <time>2017-02-01T14:41:38Z</time>
      </trkpt>
      <trkpt lat="43.37076" lon="6.14298">
        <ele>363.39999389648</ele>
        <time>2017-02-01T14:41:39Z</time>
      </trkpt>
      <trkpt lat="43.37063" lon="6.14247">
        <ele>362.20001220703</ele>
        <time>2017-02-01T14:41:49Z</time>
      </trkpt>
      <trkpt lat="43.37054" lon="6.14205">
        <ele>361.39999389648</ele>
        <time>2017-02-01T14:41:56Z</time>
      </trkpt>
      <trkpt lat="43.37047" lon="6.1419">
        <ele>361.20001220703</ele>
        <time>2017-02-01T14:41:59Z</time>
      </trkpt>
      <trkpt lat="43.37029" lon="6.1416">
        <ele>360.20001220703</ele>
        <time>2017-02-01T14:42:05Z</time>
      </trkpt>
      <trkpt lat="43.37021" lon="6.14139">
        <ele>359.20001220703</ele>
        <time>2017-02-01T14:42:08Z</time>
      </trkpt>
      <trkpt lat="43.37017" lon="6.14133">
        <ele>359</ele>
        <time>2017-02-01T14:42:09Z</time>
      </trkpt>
      <trkpt lat="43.36993" lon="6.14103">
        <ele>358</ele>
        <time>2017-02-01T14:42:14Z</time>
      </trkpt>
      <trkpt lat="43.36972" lon="6.14095">
        <ele>357.60000610352</ele>
        <time>2017-02-01T14:42:20Z</time>
      </trkpt>
      <trkpt lat="43.36961" lon="6.14097">
        <ele>357.20001220703</ele>
        <time>2017-02-01T14:42:23Z</time>
      </trkpt>
      <trkpt lat="43.36947" lon="6.14102">
        <ele>357.79998779297</ele>
        <time>2017-02-01T14:42:27Z</time>
      </trkpt>
      <trkpt lat="43.36943" lon="6.14106">
        <ele>358.39999389648</ele>
        <time>2017-02-01T14:42:29Z</time>
      </trkpt>
      <trkpt lat="43.36933" lon="6.14116">
        <ele>359</ele>
        <time>2017-02-01T14:42:34Z</time>
      </trkpt>
      <trkpt lat="43.36922" lon="6.14113">
        <ele>360</ele>
        <time>2017-02-01T14:42:39Z</time>
      </trkpt>
      <trkpt lat="43.36919" lon="6.1411">
        <ele>360.39999389648</ele>
        <time>2017-02-01T14:42:41Z</time>
      </trkpt>
      <trkpt lat="43.36914" lon="6.14109">
        <ele>361</ele>
        <time>2017-02-01T14:42:43Z</time>
      </trkpt>
      <trkpt lat="43.36901" lon="6.14117">
        <ele>361</ele>
        <time>2017-02-01T14:42:49Z</time>
      </trkpt>
      <trkpt lat="43.36885" lon="6.14112">
        <ele>359.20001220703</ele>
        <time>2017-02-01T14:42:54Z</time>
      </trkpt>
      <trkpt lat="43.3688" lon="6.14102">
        <ele>358.60000610352</ele>
        <time>2017-02-01T14:42:56Z</time>
      </trkpt>
      <trkpt lat="43.36878" lon="6.14096">
        <ele>358.20001220703</ele>
        <time>2017-02-01T14:42:57Z</time>
      </trkpt>
      <trkpt lat="43.36876" lon="6.14085">
        <ele>357</ele>
        <time>2017-02-01T14:42:59Z</time>
      </trkpt>
      <trkpt lat="43.36874" lon="6.14079">
        <ele>356.39999389648</ele>
        <time>2017-02-01T14:43:00Z</time>
      </trkpt>
      <trkpt lat="43.36872" lon="6.14067">
        <ele>355.79998779297</ele>
        <time>2017-02-01T14:43:02Z</time>
      </trkpt>
      <trkpt lat="43.3687" lon="6.14054">
        <ele>354.79998779297</ele>
        <time>2017-02-01T14:43:04Z</time>
      </trkpt>
      <trkpt lat="43.36868" lon="6.14047">
        <ele>354</ele>
        <time>2017-02-01T14:43:05Z</time>
      </trkpt>
      <trkpt lat="43.36864" lon="6.14031">
        <ele>353</ele>
        <time>2017-02-01T14:43:07Z</time>
      </trkpt>
      <trkpt lat="43.36861" lon="6.14002">
        <ele>352</ele>
        <time>2017-02-01T14:43:10Z</time>
      </trkpt>
      <trkpt lat="43.36861" lon="6.13993">
        <ele>351.39999389648</ele>
        <time>2017-02-01T14:43:11Z</time>
      </trkpt>
      <trkpt lat="43.36859" lon="6.13986">
        <ele>350.79998779297</ele>
        <time>2017-02-01T14:43:12Z</time>
      </trkpt>
      <trkpt lat="43.36853" lon="6.13977">
        <ele>349.39999389648</ele>
        <time>2017-02-01T14:43:14Z</time>
      </trkpt>
      <trkpt lat="43.36847" lon="6.13972">
        <ele>348.20001220703</ele>
        <time>2017-02-01T14:43:16Z</time>
      </trkpt>
      <trkpt lat="43.36844" lon="6.13969">
        <ele>347.39999389648</ele>
        <time>2017-02-01T14:43:18Z</time>
      </trkpt>
      <trkpt lat="43.36845" lon="6.13963">
        <ele>347.20001220703</ele>
        <time>2017-02-01T14:43:21Z</time>
      </trkpt>
      <trkpt lat="43.36844" lon="6.13962">
        <ele>347.20001220703</ele>
        <time>2017-02-01T14:43:22Z</time>
      </trkpt>
      <trkpt lat="43.36838" lon="6.13952">
        <ele>346.60000610352</ele>
        <time>2017-02-01T14:43:29Z</time>
      </trkpt>
      <trkpt lat="43.36837" lon="6.13951">
        <ele>346.39999389648</ele>
        <time>2017-02-01T14:43:30Z</time>
      </trkpt>
      <trkpt lat="43.36833" lon="6.1395">
        <ele>346.39999389648</ele>
        <time>2017-02-01T14:43:32Z</time>
      </trkpt>
      <trkpt lat="43.36824" lon="6.13958">
        <ele>347</ele>
        <time>2017-02-01T14:43:40Z</time>
      </trkpt>
      <trkpt lat="43.36823" lon="6.13971">
        <ele>348</ele>
        <time>2017-02-01T14:43:49Z</time>
      </trkpt>
      <trkpt lat="43.36823" lon="6.13972">
        <ele>348.20001220703</ele>
        <time>2017-02-01T14:43:50Z</time>
      </trkpt>
      <trkpt lat="43.36822" lon="6.13973">
        <ele>348.39999389648</ele>
        <time>2017-02-01T14:43:51Z</time>
      </trkpt>
      <trkpt lat="43.36819" lon="6.13976">
        <ele>348.60000610352</ele>
        <time>2017-02-01T14:43:54Z</time>
      </trkpt>
      <trkpt lat="43.36816" lon="6.13978">
        <ele>349.39999389648</ele>
        <time>2017-02-01T14:43:58Z</time>
      </trkpt>
      <trkpt lat="43.36814" lon="6.1398">
        <ele>349.79998779297</ele>
        <time>2017-02-01T14:44:00Z</time>
      </trkpt>
      <trkpt lat="43.36805" lon="6.13983">
        <ele>350.39999389648</ele>
        <time>2017-02-01T14:44:06Z</time>
      </trkpt>
      <trkpt lat="43.368" lon="6.13985">
        <ele>350.60000610352</ele>
        <time>2017-02-01T14:44:10Z</time>
      </trkpt>
      <trkpt lat="43.3679" lon="6.13992">
        <ele>350.60000610352</ele>
        <time>2017-02-01T14:44:17Z</time>
      </trkpt>
      <trkpt lat="43.36784" lon="6.13996">
        <ele>350.60000610352</ele>
        <time>2017-02-01T14:44:21Z</time>
      </trkpt>
      <trkpt lat="43.36777" lon="6.14002">
        <ele>351.60000610352</ele>
        <time>2017-02-01T14:44:27Z</time>
      </trkpt>
      <trkpt lat="43.36774" lon="6.14007">
        <ele>352.60000610352</ele>
        <time>2017-02-01T14:44:31Z</time>
      </trkpt>
      <trkpt lat="43.36773" lon="6.14009">
        <ele>352.79998779297</ele>
        <time>2017-02-01T14:44:32Z</time>
      </trkpt>
      <trkpt lat="43.3677" lon="6.14011">
        <ele>353.20001220703</ele>
        <time>2017-02-01T14:44:34Z</time>
      </trkpt>
      <trkpt lat="43.36766" lon="6.14014">
        <ele>354</ele>
        <time>2017-02-01T14:44:37Z</time>
      </trkpt>
      <trkpt lat="43.36757" lon="6.14016">
        <ele>355</ele>
        <time>2017-02-01T14:44:43Z</time>
      </trkpt>
      <trkpt lat="43.36747" lon="6.14015">
        <ele>355.20001220703</ele>
        <time>2017-02-01T14:44:51Z</time>
      </trkpt>
      <trkpt lat="43.36742" lon="6.14013">
        <ele>355.20001220703</ele>
        <time>2017-02-01T14:44:55Z</time>
      </trkpt>
      <trkpt lat="43.36734" lon="6.14007">
        <ele>355.20001220703</ele>
        <time>2017-02-01T14:45:01Z</time>
      </trkpt>
      <trkpt lat="43.36726" lon="6.14002">
        <ele>355.39999389648</ele>
        <time>2017-02-01T14:45:06Z</time>
      </trkpt>
      <trkpt lat="43.36718" lon="6.14002">
        <ele>355.79998779297</ele>
        <time>2017-02-01T14:45:11Z</time>
      </trkpt>
      <trkpt lat="43.36716" lon="6.14002">
        <ele>356</ele>
        <time>2017-02-01T14:45:12Z</time>
      </trkpt>
      <trkpt lat="43.36707" lon="6.14009">
        <ele>355.79998779297</ele>
        <time>2017-02-01T14:45:17Z</time>
      </trkpt>
      <trkpt lat="43.36702" lon="6.14018">
        <ele>355.39999389648</ele>
        <time>2017-02-01T14:45:21Z</time>
      </trkpt>
      <trkpt lat="43.36687" lon="6.14037">
        <ele>355.20001220703</ele>
        <time>2017-02-01T14:45:31Z</time>
      </trkpt>
      <trkpt lat="43.36681" lon="6.14041">
        <ele>355.20001220703</ele>
        <time>2017-02-01T14:45:34Z</time>
      </trkpt>
      <trkpt lat="43.36679" lon="6.14045">
        <ele>355.20001220703</ele>
        <time>2017-02-01T14:45:36Z</time>
      </trkpt>
      <trkpt lat="43.36676" lon="6.14053">
        <ele>355.20001220703</ele>
        <time>2017-02-01T14:45:40Z</time>
      </trkpt>
      <trkpt lat="43.36665" lon="6.1408">
        <ele>355.60000610352</ele>
        <time>2017-02-01T14:45:51Z</time>
      </trkpt>
      <trkpt lat="43.36664" lon="6.14093">
        <ele>355.79998779297</ele>
        <time>2017-02-01T14:45:56Z</time>
      </trkpt>
      <trkpt lat="43.36663" lon="6.14106">
        <ele>356.39999389648</ele>
        <time>2017-02-01T14:46:01Z</time>
      </trkpt>
      <trkpt lat="43.36663" lon="6.14121">
        <ele>357</ele>
        <time>2017-02-01T14:46:08Z</time>
      </trkpt>
      <trkpt lat="43.36664" lon="6.14127">
        <ele>357.20001220703</ele>
        <time>2017-02-01T14:46:11Z</time>
      </trkpt>
      <trkpt lat="43.36664" lon="6.14141">
        <ele>357.79998779297</ele>
        <time>2017-02-01T14:46:18Z</time>
      </trkpt>
      <trkpt lat="43.36665" lon="6.14146">
        <ele>358</ele>
        <time>2017-02-01T14:46:21Z</time>
      </trkpt>
      <trkpt lat="43.36665" lon="6.1415">
        <ele>358</ele>
        <time>2017-02-01T14:46:23Z</time>
      </trkpt>
      <trkpt lat="43.36668" lon="6.14162">
        <ele>358.79998779297</ele>
        <time>2017-02-01T14:46:29Z</time>
      </trkpt>
      <trkpt lat="43.36668" lon="6.14166">
        <ele>359.20001220703</ele>
        <time>2017-02-01T14:46:31Z</time>
      </trkpt>
      <trkpt lat="43.36668" lon="6.14166">
        <ele>359.60000610352</ele>
        <time>2017-02-01T14:46:33Z</time>
      </trkpt>
      <trkpt lat="43.36668" lon="6.14167">
        <ele>359.79998779297</ele>
        <time>2017-02-01T14:46:36Z</time>
      </trkpt>
      <trkpt lat="43.36669" lon="6.14168">
        <ele>359.79998779297</ele>
        <time>2017-02-01T14:46:41Z</time>
      </trkpt>
      <trkpt lat="43.36671" lon="6.14176">
        <ele>360.20001220703</ele>
        <time>2017-02-01T14:46:51Z</time>
      </trkpt>
      <trkpt lat="43.36671" lon="6.14178">
        <ele>360.39999389648</ele>
        <time>2017-02-01T14:46:52Z</time>
      </trkpt>
      <trkpt lat="43.36673" lon="6.14191">
        <ele>361.39999389648</ele>
        <time>2017-02-01T14:47:00Z</time>
      </trkpt>
      <trkpt lat="43.36673" lon="6.14193">
        <ele>361.39999389648</ele>
        <time>2017-02-01T14:47:01Z</time>
      </trkpt>
      <trkpt lat="43.36676" lon="6.1421">
        <ele>362</ele>
        <time>2017-02-01T14:47:11Z</time>
      </trkpt>
      <trkpt lat="43.36676" lon="6.14215">
        <ele>362</ele>
        <time>2017-02-01T14:47:14Z</time>
      </trkpt>
      <trkpt lat="43.36679" lon="6.1423">
        <ele>361.79998779297</ele>
        <time>2017-02-01T14:47:21Z</time>
      </trkpt>
      <trkpt lat="43.36679" lon="6.14253">
        <ele>362.39999389648</ele>
        <time>2017-02-01T14:47:31Z</time>
      </trkpt>
      <trkpt lat="43.36678" lon="6.14276">
        <ele>363</ele>
        <time>2017-02-01T14:47:41Z</time>
      </trkpt>
      <trkpt lat="43.36678" lon="6.14279">
        <ele>363.60000610352</ele>
        <time>2017-02-01T14:47:43Z</time>
      </trkpt>
      <trkpt lat="43.36677" lon="6.14295">
        <ele>364.79998779297</ele>
        <time>2017-02-01T14:47:51Z</time>
      </trkpt>
      <trkpt lat="43.36674" lon="6.14313">
        <ele>365.79998779297</ele>
        <time>2017-02-01T14:48:01Z</time>
      </trkpt>
      <trkpt lat="43.36672" lon="6.14323">
        <ele>365.79998779297</ele>
        <time>2017-02-01T14:48:07Z</time>
      </trkpt>
      <trkpt lat="43.36663" lon="6.14349">
        <ele>366.20001220703</ele>
        <time>2017-02-01T14:48:21Z</time>
      </trkpt>
      <trkpt lat="43.36653" lon="6.14368">
        <ele>366.79998779297</ele>
        <time>2017-02-01T14:48:32Z</time>
      </trkpt>
      <trkpt lat="43.36646" lon="6.14378">
        <ele>367</ele>
        <time>2017-02-01T14:48:38Z</time>
      </trkpt>
      <trkpt lat="43.36642" lon="6.14382">
        <ele>367</ele>
        <time>2017-02-01T14:48:41Z</time>
      </trkpt>
      <trkpt lat="43.36631" lon="6.14393">
        <ele>367.79998779297</ele>
        <time>2017-02-01T14:48:51Z</time>
      </trkpt>
      <trkpt lat="43.36621" lon="6.14405">
        <ele>368.60000610352</ele>
        <time>2017-02-01T14:48:59Z</time>
      </trkpt>
      <trkpt lat="43.36609" lon="6.14425">
        <ele>369.79998779297</ele>
        <time>2017-02-01T14:49:11Z</time>
      </trkpt>
      <trkpt lat="43.36602" lon="6.14443">
        <ele>370.79998779297</ele>
        <time>2017-02-01T14:49:21Z</time>
      </trkpt>
      <trkpt lat="43.36601" lon="6.14445">
        <ele>370.79998779297</ele>
        <time>2017-02-01T14:49:22Z</time>
      </trkpt>
      <trkpt lat="43.36597" lon="6.14458">
        <ele>371.79998779297</ele>
        <time>2017-02-01T14:49:31Z</time>
      </trkpt>
      <trkpt lat="43.36586" lon="6.1446">
        <ele>371.39999389648</ele>
        <time>2017-02-01T14:49:40Z</time>
      </trkpt>
      <trkpt lat="43.36585" lon="6.14458">
        <ele>371.39999389648</ele>
        <time>2017-02-01T14:49:41Z</time>
      </trkpt>
      <trkpt lat="43.36583" lon="6.14436">
        <ele>371.60000610352</ele>
        <time>2017-02-01T14:49:51Z</time>
      </trkpt>
      <trkpt lat="43.36582" lon="6.14422">
        <ele>372</ele>
        <time>2017-02-01T14:49:57Z</time>
      </trkpt>
      <trkpt lat="43.36581" lon="6.14414">
        <ele>373</ele>
        <time>2017-02-01T14:50:01Z</time>
      </trkpt>
      <trkpt lat="43.36581" lon="6.14411">
        <ele>373.20001220703</ele>
        <time>2017-02-01T14:50:02Z</time>
      </trkpt>
      <trkpt lat="43.3658" lon="6.14404">
        <ele>373.60000610352</ele>
        <time>2017-02-01T14:50:05Z</time>
      </trkpt>
      <trkpt lat="43.36578" lon="6.14399">
        <ele>374.20001220703</ele>
        <time>2017-02-01T14:50:07Z</time>
      </trkpt>
      <trkpt lat="43.36576" lon="6.14397">
        <ele>374.39999389648</ele>
        <time>2017-02-01T14:50:08Z</time>
      </trkpt>
      <trkpt lat="43.3657" lon="6.14393">
        <ele>375.39999389648</ele>
        <time>2017-02-01T14:50:12Z</time>
      </trkpt>
      <trkpt lat="43.3656" lon="6.14388">
        <ele>377.60000610352</ele>
        <time>2017-02-01T14:50:18Z</time>
      </trkpt>
      <trkpt lat="43.36558" lon="6.14387">
        <ele>378.20001220703</ele>
        <time>2017-02-01T14:50:20Z</time>
      </trkpt>
      <trkpt lat="43.36556" lon="6.14386">
        <ele>378.39999389648</ele>
        <time>2017-02-01T14:50:21Z</time>
      </trkpt>
      <trkpt lat="43.36553" lon="6.14385">
        <ele>378.79998779297</ele>
        <time>2017-02-01T14:50:23Z</time>
      </trkpt>
      <trkpt lat="43.3654" lon="6.14383">
        <ele>380.60000610352</ele>
        <time>2017-02-01T14:50:33Z</time>
      </trkpt>
      <trkpt lat="43.36538" lon="6.14381">
        <ele>381.39999389648</ele>
        <time>2017-02-01T14:50:36Z</time>
      </trkpt>
      <trkpt lat="43.36533" lon="6.14378">
        <ele>383</ele>
        <time>2017-02-01T14:50:41Z</time>
      </trkpt>
      <trkpt lat="43.3653" lon="6.14378">
        <ele>383.39999389648</ele>
        <time>2017-02-01T14:50:44Z</time>
      </trkpt>
      <trkpt lat="43.36529" lon="6.14382">
        <ele>384</ele>
        <time>2017-02-01T14:50:51Z</time>
      </trkpt>
      <trkpt lat="43.3653" lon="6.14382">
        <ele>383.79998779297</ele>
        <time>2017-02-01T14:50:55Z</time>
      </trkpt>
      <trkpt lat="43.36529" lon="6.14381">
        <ele>383.79998779297</ele>
        <time>2017-02-01T14:51:03Z</time>
      </trkpt>
      <trkpt lat="43.36529" lon="6.14381">
        <ele>383.60000610352</ele>
        <time>2017-02-01T14:51:10Z</time>
      </trkpt>
      <trkpt lat="43.36529" lon="6.14381">
        <ele>383.60000610352</ele>
        <time>2017-02-01T14:51:14Z</time>
      </trkpt>
      <trkpt lat="43.3653" lon="6.14381">
        <ele>383.60000610352</ele>
        <time>2017-02-01T14:51:16Z</time>
      </trkpt>
      <trkpt lat="43.3653" lon="6.14381">
        <ele>383.60000610352</ele>
        <time>2017-02-01T14:51:18Z</time>
      </trkpt>
      <trkpt lat="43.3653" lon="6.14381">
        <ele>383.60000610352</ele>
        <time>2017-02-01T14:51:21Z</time>
      </trkpt>
      <trkpt lat="43.3653" lon="6.14381">
        <ele>383.60000610352</ele>
        <time>2017-02-01T14:51:30Z</time>
      </trkpt>
      <trkpt lat="43.3653" lon="6.14381">
        <ele>383.79998779297</ele>
        <time>2017-02-01T14:51:33Z</time>
      </trkpt>
      <trkpt lat="43.3653" lon="6.14381">
        <ele>384</ele>
        <time>2017-02-01T14:51:37Z</time>
      </trkpt>
      <trkpt lat="43.3653" lon="6.14381">
        <ele>384.20001220703</ele>
        <time>2017-02-01T14:51:40Z</time>
      </trkpt>
      <trkpt lat="43.3653" lon="6.14381">
        <ele>384.20001220703</ele>
        <time>2017-02-01T14:51:45Z</time>
      </trkpt>
      <trkpt lat="43.3653" lon="6.14382">
        <ele>383.39999389648</ele>
        <time>2017-02-01T14:52:07Z</time>
      </trkpt>
      <trkpt lat="43.3653" lon="6.14381">
        <ele>383.39999389648</ele>
        <time>2017-02-01T14:52:42Z</time>
      </trkpt>
      <trkpt lat="43.3653" lon="6.1438">
        <ele>383.39999389648</ele>
        <time>2017-02-01T14:53:14Z</time>
      </trkpt>
      <trkpt lat="43.3653" lon="6.14381">
        <ele>383.39999389648</ele>
        <time>2017-02-01T14:53:34Z</time>
      </trkpt>
      <trkpt lat="43.36531" lon="6.1438">
        <ele>383.39999389648</ele>
        <time>2017-02-01T14:53:54Z</time>
      </trkpt>
      <trkpt lat="43.3653" lon="6.14377">
        <ele>383.39999389648</ele>
        <time>2017-02-01T14:54:09Z</time>
      </trkpt>
      <trkpt lat="43.3653" lon="6.14377">
        <ele>383.39999389648</ele>
        <time>2017-02-01T14:54:13Z</time>
      </trkpt>
      <trkpt lat="43.36529" lon="6.1438">
        <ele>383.39999389648</ele>
        <time>2017-02-01T14:54:33Z</time>
      </trkpt>
      <trkpt lat="43.36528" lon="6.1438">
        <ele>383.39999389648</ele>
        <time>2017-02-01T14:54:38Z</time>
      </trkpt>
      <trkpt lat="43.36529" lon="6.14378">
        <ele>383.39999389648</ele>
        <time>2017-02-01T14:54:44Z</time>
      </trkpt>
      <trkpt lat="43.36529" lon="6.14378">
        <ele>383.39999389648</ele>
        <time>2017-02-01T14:54:55Z</time>
      </trkpt>
      <trkpt lat="43.36529" lon="6.14378">
        <ele>383.39999389648</ele>
        <time>2017-02-01T14:55:05Z</time>
      </trkpt>
      <trkpt lat="43.3653" lon="6.14377">
        <ele>383.39999389648</ele>
        <time>2017-02-01T14:55:14Z</time>
      </trkpt>
      <trkpt lat="43.36532" lon="6.14376">
        <ele>383.39999389648</ele>
        <time>2017-02-01T14:55:25Z</time>
      </trkpt>
      <trkpt lat="43.36531" lon="6.14376">
        <ele>383.39999389648</ele>
        <time>2017-02-01T14:55:34Z</time>
      </trkpt>
      <trkpt lat="43.36529" lon="6.14376">
        <ele>383.39999389648</ele>
        <time>2017-02-01T14:55:41Z</time>
      </trkpt>
      <trkpt lat="43.36529" lon="6.14376">
        <ele>383.39999389648</ele>
        <time>2017-02-01T14:55:54Z</time>
      </trkpt>
      <trkpt lat="43.36529" lon="6.14376">
        <ele>383.39999389648</ele>
        <time>2017-02-01T14:56:14Z</time>
      </trkpt>
      <trkpt lat="43.3653" lon="6.14375">
        <ele>383.39999389648</ele>
        <time>2017-02-01T14:56:20Z</time>
      </trkpt>
      <trkpt lat="43.3653" lon="6.14374">
        <ele>383.39999389648</ele>
        <time>2017-02-01T14:56:24Z</time>
      </trkpt>
      <trkpt lat="43.36531" lon="6.14372">
        <ele>383.39999389648</ele>
        <time>2017-02-01T14:56:34Z</time>
      </trkpt>
      <trkpt lat="43.36532" lon="6.14375">
        <ele>383.39999389648</ele>
        <time>2017-02-01T14:56:44Z</time>
      </trkpt>
      <trkpt lat="43.36532" lon="6.14374">
        <ele>383.39999389648</ele>
        <time>2017-02-01T14:56:54Z</time>
      </trkpt>
      <trkpt lat="43.36533" lon="6.14376">
        <ele>383.39999389648</ele>
        <time>2017-02-01T14:57:04Z</time>
      </trkpt>
      <trkpt lat="43.36532" lon="6.14378">
        <ele>383.39999389648</ele>
        <time>2017-02-01T14:57:14Z</time>
      </trkpt>
      <trkpt lat="43.36533" lon="6.14383">
        <ele>383.39999389648</ele>
        <time>2017-02-01T14:57:17Z</time>
      </trkpt>
      <trkpt lat="43.36534" lon="6.1439">
        <ele>383.79998779297</ele>
        <time>2017-02-01T14:57:20Z</time>
      </trkpt>
      <trkpt lat="43.36536" lon="6.144">
        <ele>383.79998779297</ele>
        <time>2017-02-01T14:57:24Z</time>
      </trkpt>
      <trkpt lat="43.36539" lon="6.14415">
        <ele>383.79998779297</ele>
        <time>2017-02-01T14:57:30Z</time>
      </trkpt>
      <trkpt lat="43.36543" lon="6.14425">
        <ele>383.79998779297</ele>
        <time>2017-02-01T14:57:34Z</time>
      </trkpt>
      <trkpt lat="43.36544" lon="6.14442">
        <ele>384.20001220703</ele>
        <time>2017-02-01T14:57:39Z</time>
      </trkpt>
      <trkpt lat="43.36544" lon="6.1446">
        <ele>384</ele>
        <time>2017-02-01T14:57:44Z</time>
      </trkpt>
      <trkpt lat="43.36539" lon="6.14477">
        <ele>384.39999389648</ele>
        <time>2017-02-01T14:57:50Z</time>
      </trkpt>
      <trkpt lat="43.36534" lon="6.14489">
        <ele>385.20001220703</ele>
        <time>2017-02-01T14:57:54Z</time>
      </trkpt>
      <trkpt lat="43.3653" lon="6.1451">
        <ele>385.60000610352</ele>
        <time>2017-02-01T14:58:01Z</time>
      </trkpt>
      <trkpt lat="43.36531" lon="6.1452">
        <ele>386</ele>
        <time>2017-02-01T14:58:04Z</time>
      </trkpt>
      <trkpt lat="43.36534" lon="6.1454">
        <ele>385.79998779297</ele>
        <time>2017-02-01T14:58:10Z</time>
      </trkpt>
      <trkpt lat="43.36534" lon="6.1455">
        <ele>386.20001220703</ele>
        <time>2017-02-01T14:58:13Z</time>
      </trkpt>
      <trkpt lat="43.36534" lon="6.14554">
        <ele>386.60000610352</ele>
        <time>2017-02-01T14:58:14Z</time>
      </trkpt>
      <trkpt lat="43.36535" lon="6.14557">
        <ele>386.79998779297</ele>
        <time>2017-02-01T14:58:15Z</time>
      </trkpt>
      <trkpt lat="43.36535" lon="6.14568">
        <ele>387.60000610352</ele>
        <time>2017-02-01T14:58:19Z</time>
      </trkpt>
      <trkpt lat="43.36535" lon="6.14571">
        <ele>387.79998779297</ele>
        <time>2017-02-01T14:58:20Z</time>
      </trkpt>
      <trkpt lat="43.36535" lon="6.14584">
        <ele>389</ele>
        <time>2017-02-01T14:58:25Z</time>
      </trkpt>
      <trkpt lat="43.36535" lon="6.14599">
        <ele>390</ele>
        <time>2017-02-01T14:58:32Z</time>
      </trkpt>
      <trkpt lat="43.36535" lon="6.14604">
        <ele>390.39999389648</ele>
        <time>2017-02-01T14:58:34Z</time>
      </trkpt>
      <trkpt lat="43.36532" lon="6.1464">
        <ele>392</ele>
        <time>2017-02-01T14:58:54Z</time>
      </trkpt>
      <trkpt lat="43.36532" lon="6.14646">
        <ele>392.20001220703</ele>
        <time>2017-02-01T14:58:57Z</time>
      </trkpt>
      <trkpt lat="43.36532" lon="6.14655">
        <ele>392.60000610352</ele>
        <time>2017-02-01T14:59:02Z</time>
      </trkpt>
      <trkpt lat="43.36531" lon="6.1466">
        <ele>392.60000610352</ele>
        <time>2017-02-01T14:59:04Z</time>
      </trkpt>
      <trkpt lat="43.36528" lon="6.14666">
        <ele>393.39999389648</ele>
        <time>2017-02-01T14:59:07Z</time>
      </trkpt>
      <trkpt lat="43.36527" lon="6.1467">
        <ele>394.60000610352</ele>
        <time>2017-02-01T14:59:09Z</time>
      </trkpt>
      <trkpt lat="43.36526" lon="6.14675">
        <ele>395.39999389648</ele>
        <time>2017-02-01T14:59:12Z</time>
      </trkpt>
      <trkpt lat="43.36526" lon="6.14676">
        <ele>395.79998779297</ele>
        <time>2017-02-01T14:59:13Z</time>
      </trkpt>
      <trkpt lat="43.36526" lon="6.14678">
        <ele>395.79998779297</ele>
        <time>2017-02-01T14:59:14Z</time>
      </trkpt>
      <trkpt lat="43.36526" lon="6.14681">
        <ele>396.20001220703</ele>
        <time>2017-02-01T14:59:16Z</time>
      </trkpt>
      <trkpt lat="43.36525" lon="6.14687">
        <ele>396.39999389648</ele>
        <time>2017-02-01T14:59:19Z</time>
      </trkpt>
      <trkpt lat="43.36525" lon="6.14694">
        <ele>396.79998779297</ele>
        <time>2017-02-01T14:59:23Z</time>
      </trkpt>
      <trkpt lat="43.36525" lon="6.14696">
        <ele>397</ele>
        <time>2017-02-01T14:59:24Z</time>
      </trkpt>
      <trkpt lat="43.36525" lon="6.14701">
        <ele>397.79998779297</ele>
        <time>2017-02-01T14:59:27Z</time>
      </trkpt>
      <trkpt lat="43.36525" lon="6.14712">
        <ele>398.60000610352</ele>
        <time>2017-02-01T14:59:34Z</time>
      </trkpt>
      <trkpt lat="43.36524" lon="6.14725">
        <ele>400</ele>
        <time>2017-02-01T14:59:43Z</time>
      </trkpt>
      <trkpt lat="43.36523" lon="6.14731">
        <ele>401</ele>
        <time>2017-02-01T14:59:47Z</time>
      </trkpt>
      <trkpt lat="43.36523" lon="6.14741">
        <ele>401.39999389648</ele>
        <time>2017-02-01T14:59:54Z</time>
      </trkpt>
      <trkpt lat="43.36522" lon="6.14753">
        <ele>402.39999389648</ele>
        <time>2017-02-01T15:00:02Z</time>
      </trkpt>
      <trkpt lat="43.36522" lon="6.1476">
        <ele>403</ele>
        <time>2017-02-01T15:00:07Z</time>
      </trkpt>
      <trkpt lat="43.36522" lon="6.14763">
        <ele>403.39999389648</ele>
        <time>2017-02-01T15:00:09Z</time>
      </trkpt>
      <trkpt lat="43.36522" lon="6.14768">
        <ele>404.20001220703</ele>
        <time>2017-02-01T15:00:12Z</time>
      </trkpt>
      <trkpt lat="43.36522" lon="6.14771">
        <ele>404.20001220703</ele>
        <time>2017-02-01T15:00:14Z</time>
      </trkpt>
      <trkpt lat="43.36522" lon="6.14785">
        <ele>405</ele>
        <time>2017-02-01T15:00:24Z</time>
      </trkpt>
      <trkpt lat="43.36522" lon="6.14788">
        <ele>405.20001220703</ele>
        <time>2017-02-01T15:00:26Z</time>
      </trkpt>
      <trkpt lat="43.36524" lon="6.14799">
        <ele>406</ele>
        <time>2017-02-01T15:00:34Z</time>
      </trkpt>
      <trkpt lat="43.36525" lon="6.148">
        <ele>406.20001220703</ele>
        <time>2017-02-01T15:00:35Z</time>
      </trkpt>
      <trkpt lat="43.36523" lon="6.14803">
        <ele>406.39999389648</ele>
        <time>2017-02-01T15:00:44Z</time>
      </trkpt>
      <trkpt lat="43.36523" lon="6.14803">
        <ele>406.39999389648</ele>
        <time>2017-02-01T15:00:50Z</time>
      </trkpt>
      <trkpt lat="43.36523" lon="6.14803">
        <ele>406.60000610352</ele>
        <time>2017-02-01T15:00:52Z</time>
      </trkpt>
      <trkpt lat="43.36523" lon="6.14804">
        <ele>406.79998779297</ele>
        <time>2017-02-01T15:00:54Z</time>
      </trkpt>
      <trkpt lat="43.36524" lon="6.14808">
        <ele>407</ele>
        <time>2017-02-01T15:00:57Z</time>
      </trkpt>
      <trkpt lat="43.36526" lon="6.14812">
        <ele>407.20001220703</ele>
        <time>2017-02-01T15:01:00Z</time>
      </trkpt>
      <trkpt lat="43.36526" lon="6.14818">
        <ele>407.79998779297</ele>
        <time>2017-02-01T15:01:04Z</time>
      </trkpt>
      <trkpt lat="43.36528" lon="6.14823">
        <ele>408.20001220703</ele>
        <time>2017-02-01T15:01:07Z</time>
      </trkpt>
      <trkpt lat="43.36532" lon="6.1484">
        <ele>409.39999389648</ele>
        <time>2017-02-01T15:01:17Z</time>
      </trkpt>
      <trkpt lat="43.36534" lon="6.14849">
        <ele>410.39999389648</ele>
        <time>2017-02-01T15:01:23Z</time>
      </trkpt>
      <trkpt lat="43.36535" lon="6.14851">
        <ele>410.60000610352</ele>
        <time>2017-02-01T15:01:24Z</time>
      </trkpt>
      <trkpt lat="43.36535" lon="6.14853">
        <ele>411</ele>
        <time>2017-02-01T15:01:26Z</time>
      </trkpt>
      <trkpt lat="43.36536" lon="6.14856">
        <ele>411.20001220703</ele>
        <time>2017-02-01T15:01:28Z</time>
      </trkpt>
      <trkpt lat="43.36537" lon="6.14863">
        <ele>411.20001220703</ele>
        <time>2017-02-01T15:01:31Z</time>
      </trkpt>
      <trkpt lat="43.36537" lon="6.14868">
        <ele>411</ele>
        <time>2017-02-01T15:01:34Z</time>
      </trkpt>
      <trkpt lat="43.36539" lon="6.14874">
        <ele>411.60000610352</ele>
        <time>2017-02-01T15:01:39Z</time>
      </trkpt>
      <trkpt lat="43.36539" lon="6.14876">
        <ele>412</ele>
        <time>2017-02-01T15:01:44Z</time>
      </trkpt>
      <trkpt lat="43.3654" lon="6.14874">
        <ele>411.79998779297</ele>
        <time>2017-02-01T15:01:47Z</time>
      </trkpt>
      <trkpt lat="43.3654" lon="6.14874">
        <ele>411.79998779297</ele>
        <time>2017-02-01T15:01:50Z</time>
      </trkpt>
      <trkpt lat="43.3654" lon="6.14874">
        <ele>411.79998779297</ele>
        <time>2017-02-01T15:01:55Z</time>
      </trkpt>
      <trkpt lat="43.3654" lon="6.14874">
        <ele>411.79998779297</ele>
        <time>2017-02-01T15:01:57Z</time>
      </trkpt>
      <trkpt lat="43.3654" lon="6.14874">
        <ele>411.79998779297</ele>
        <time>2017-02-01T15:02:00Z</time>
      </trkpt>
      <trkpt lat="43.3654" lon="6.14874">
        <ele>411.79998779297</ele>
        <time>2017-02-01T15:02:05Z</time>
      </trkpt>
      <trkpt lat="43.3654" lon="6.14874">
        <ele>411.79998779297</ele>
        <time>2017-02-01T15:02:12Z</time>
      </trkpt>
      <trkpt lat="43.3654" lon="6.14873">
        <ele>412</ele>
        <time>2017-02-01T15:02:25Z</time>
      </trkpt>
      <trkpt lat="43.36539" lon="6.14874">
        <ele>411.79998779297</ele>
        <time>2017-02-01T15:02:34Z</time>
      </trkpt>
      <trkpt lat="43.36539" lon="6.14876">
        <ele>412</ele>
        <time>2017-02-01T15:02:44Z</time>
      </trkpt>
      <trkpt lat="43.3654" lon="6.14878">
        <ele>412</ele>
        <time>2017-02-01T15:02:45Z</time>
      </trkpt>
      <trkpt lat="43.3654" lon="6.14882">
        <ele>412</ele>
        <time>2017-02-01T15:02:47Z</time>
      </trkpt>
      <trkpt lat="43.36542" lon="6.14889">
        <ele>412.39999389648</ele>
        <time>2017-02-01T15:02:50Z</time>
      </trkpt>
      <trkpt lat="43.36542" lon="6.14891">
        <ele>412.60000610352</ele>
        <time>2017-02-01T15:02:51Z</time>
      </trkpt>
      <trkpt lat="43.36544" lon="6.14898">
        <ele>412.79998779297</ele>
        <time>2017-02-01T15:02:54Z</time>
      </trkpt>
      <trkpt lat="43.36547" lon="6.14924">
        <ele>413.20001220703</ele>
        <time>2017-02-01T15:03:04Z</time>
      </trkpt>
      <trkpt lat="43.36553" lon="6.14965">
        <ele>413.39999389648</ele>
        <time>2017-02-01T15:03:14Z</time>
      </trkpt>
      <trkpt lat="43.36555" lon="6.15011">
        <ele>412.79998779297</ele>
        <time>2017-02-01T15:03:24Z</time>
      </trkpt>
      <trkpt lat="43.36556" lon="6.15061">
        <ele>412.79998779297</ele>
        <time>2017-02-01T15:03:35Z</time>
      </trkpt>
      <trkpt lat="43.36553" lon="6.15109">
        <ele>414.20001220703</ele>
        <time>2017-02-01T15:03:46Z</time>
      </trkpt>
      <trkpt lat="43.36554" lon="6.15122">
        <ele>414.79998779297</ele>
        <time>2017-02-01T15:03:49Z</time>
      </trkpt>
      <trkpt lat="43.36556" lon="6.15151">
        <ele>415.20001220703</ele>
        <time>2017-02-01T15:03:56Z</time>
      </trkpt>
      <trkpt lat="43.36555" lon="6.15167">
        <ele>415.79998779297</ele>
        <time>2017-02-01T15:04:00Z</time>
      </trkpt>
      <trkpt lat="43.36554" lon="6.15171">
        <ele>415.79998779297</ele>
        <time>2017-02-01T15:04:01Z</time>
      </trkpt>
      <trkpt lat="43.36553" lon="6.1518">
        <ele>416</ele>
        <time>2017-02-01T15:04:03Z</time>
      </trkpt>
      <trkpt lat="43.36559" lon="6.15187">
        <ele>416.20001220703</ele>
        <time>2017-02-01T15:04:06Z</time>
      </trkpt>
      <trkpt lat="43.36577" lon="6.15198">
        <ele>414.60000610352</ele>
        <time>2017-02-01T15:04:12Z</time>
      </trkpt>
      <trkpt lat="43.36589" lon="6.15197">
        <ele>413.60000610352</ele>
        <time>2017-02-01T15:04:16Z</time>
      </trkpt>
      <trkpt lat="43.36599" lon="6.15195">
        <ele>413.39999389648</ele>
        <time>2017-02-01T15:04:20Z</time>
      </trkpt>
      <trkpt lat="43.36607" lon="6.1519">
        <ele>413.79998779297</ele>
        <time>2017-02-01T15:04:26Z</time>
      </trkpt>
      <trkpt lat="43.36607" lon="6.15192">
        <ele>413.39999389648</ele>
        <time>2017-02-01T15:04:31Z</time>
      </trkpt>
      <trkpt lat="43.36607" lon="6.15194">
        <ele>413.20001220703</ele>
        <time>2017-02-01T15:04:36Z</time>
      </trkpt>
      <trkpt lat="43.36608" lon="6.15195">
        <ele>413.20001220703</ele>
        <time>2017-02-01T15:04:39Z</time>
      </trkpt>
      <trkpt lat="43.36609" lon="6.15197">
        <ele>413.39999389648</ele>
        <time>2017-02-01T15:04:46Z</time>
      </trkpt>
      <trkpt lat="43.36609" lon="6.15198">
        <ele>413.39999389648</ele>
        <time>2017-02-01T15:04:50Z</time>
      </trkpt>
      <trkpt lat="43.36609" lon="6.15198">
        <ele>413.39999389648</ele>
        <time>2017-02-01T15:04:53Z</time>
      </trkpt>
      <trkpt lat="43.3661" lon="6.15196">
        <ele>413.39999389648</ele>
        <time>2017-02-01T15:05:16Z</time>
      </trkpt>
      <trkpt lat="43.3661" lon="6.15196">
        <ele>413.39999389648</ele>
        <time>2017-02-01T15:05:26Z</time>
      </trkpt>
      <trkpt lat="43.3661" lon="6.15196">
        <ele>413.39999389648</ele>
        <time>2017-02-01T15:05:36Z</time>
      </trkpt>
      <trkpt lat="43.36612" lon="6.15197">
        <ele>413.39999389648</ele>
        <time>2017-02-01T15:05:41Z</time>
      </trkpt>
      <trkpt lat="43.36617" lon="6.15194">
        <ele>413.39999389648</ele>
        <time>2017-02-01T15:05:44Z</time>
      </trkpt>
      <trkpt lat="43.3662" lon="6.15192">
        <ele>414</ele>
        <time>2017-02-01T15:05:46Z</time>
      </trkpt>
      <trkpt lat="43.36629" lon="6.15189">
        <ele>415.20001220703</ele>
        <time>2017-02-01T15:05:52Z</time>
      </trkpt>
      <trkpt lat="43.36633" lon="6.15188">
        <ele>415.60000610352</ele>
        <time>2017-02-01T15:05:54Z</time>
      </trkpt>
      <trkpt lat="43.36636" lon="6.15187">
        <ele>416</ele>
        <time>2017-02-01T15:05:56Z</time>
      </trkpt>
      <trkpt lat="43.3664" lon="6.15187">
        <ele>416.39999389648</ele>
        <time>2017-02-01T15:05:59Z</time>
      </trkpt>
      <trkpt lat="43.36647" lon="6.15187">
        <ele>416.79998779297</ele>
        <time>2017-02-01T15:06:03Z</time>
      </trkpt>
      <trkpt lat="43.36651" lon="6.15186">
        <ele>417.39999389648</ele>
        <time>2017-02-01T15:06:06Z</time>
      </trkpt>
      <trkpt lat="43.36655" lon="6.15183">
        <ele>418</ele>
        <time>2017-02-01T15:06:09Z</time>
      </trkpt>
      <trkpt lat="43.36663" lon="6.15178">
        <ele>419.20001220703</ele>
        <time>2017-02-01T15:06:16Z</time>
      </trkpt>
      <trkpt lat="43.36678" lon="6.15182">
        <ele>419.60000610352</ele>
        <time>2017-02-01T15:06:26Z</time>
      </trkpt>
      <trkpt lat="43.36691" lon="6.15185">
        <ele>420</ele>
        <time>2017-02-01T15:06:34Z</time>
      </trkpt>
      <trkpt lat="43.36693" lon="6.15185">
        <ele>420.39999389648</ele>
        <time>2017-02-01T15:06:36Z</time>
      </trkpt>
      <trkpt lat="43.36701" lon="6.15188">
        <ele>421</ele>
        <time>2017-02-01T15:06:42Z</time>
      </trkpt>
      <trkpt lat="43.36704" lon="6.15188">
        <ele>421.20001220703</ele>
        <time>2017-02-01T15:06:44Z</time>
      </trkpt>
      <trkpt lat="43.36707" lon="6.15187">
        <ele>421.20001220703</ele>
        <time>2017-02-01T15:06:46Z</time>
      </trkpt>
      <trkpt lat="43.3672" lon="6.15192">
        <ele>422.20001220703</ele>
        <time>2017-02-01T15:06:55Z</time>
      </trkpt>
      <trkpt lat="43.36721" lon="6.15193">
        <ele>422.39999389648</ele>
        <time>2017-02-01T15:06:56Z</time>
      </trkpt>
      <trkpt lat="43.36734" lon="6.152">
        <ele>423.60000610352</ele>
        <time>2017-02-01T15:07:06Z</time>
      </trkpt>
      <trkpt lat="43.36741" lon="6.15209">
        <ele>423.60000610352</ele>
        <time>2017-02-01T15:07:13Z</time>
      </trkpt>
      <trkpt lat="43.36742" lon="6.15214">
        <ele>424.20001220703</ele>
        <time>2017-02-01T15:07:16Z</time>
      </trkpt>
      <trkpt lat="43.36748" lon="6.15227">
        <ele>425.39999389648</ele>
        <time>2017-02-01T15:07:25Z</time>
      </trkpt>
      <trkpt lat="43.36749" lon="6.15228">
        <ele>425.60000610352</ele>
        <time>2017-02-01T15:07:26Z</time>
      </trkpt>
      <trkpt lat="43.36756" lon="6.15231">
        <ele>426.60000610352</ele>
        <time>2017-02-01T15:07:31Z</time>
      </trkpt>
      <trkpt lat="43.36761" lon="6.15234">
        <ele>427.79998779297</ele>
        <time>2017-02-01T15:07:34Z</time>
      </trkpt>
      <trkpt lat="43.36766" lon="6.15235">
        <ele>429.20001220703</ele>
        <time>2017-02-01T15:07:38Z</time>
      </trkpt>
      <trkpt lat="43.3677" lon="6.15235">
        <ele>430</ele>
        <time>2017-02-01T15:07:41Z</time>
      </trkpt>
      <trkpt lat="43.36771" lon="6.15232">
        <ele>430.39999389648</ele>
        <time>2017-02-01T15:07:43Z</time>
      </trkpt>
      <trkpt lat="43.36773" lon="6.15228">
        <ele>430.60000610352</ele>
        <time>2017-02-01T15:07:46Z</time>
      </trkpt>
      <trkpt lat="43.36773" lon="6.15219">
        <ele>430.39999389648</ele>
        <time>2017-02-01T15:07:52Z</time>
      </trkpt>
      <trkpt lat="43.36774" lon="6.15212">
        <ele>430.20001220703</ele>
        <time>2017-02-01T15:07:56Z</time>
      </trkpt>
      <trkpt lat="43.36775" lon="6.15207">
        <ele>430</ele>
        <time>2017-02-01T15:07:59Z</time>
      </trkpt>
      <trkpt lat="43.36776" lon="6.15203">
        <ele>429.79998779297</ele>
        <time>2017-02-01T15:08:02Z</time>
      </trkpt>
      <trkpt lat="43.36778" lon="6.15199">
        <ele>429.79998779297</ele>
        <time>2017-02-01T15:08:06Z</time>
      </trkpt>
      <trkpt lat="43.36781" lon="6.15195">
        <ele>429.79998779297</ele>
        <time>2017-02-01T15:08:10Z</time>
      </trkpt>
      <trkpt lat="43.36787" lon="6.15189">
        <ele>430.39999389648</ele>
        <time>2017-02-01T15:08:16Z</time>
      </trkpt>
      <trkpt lat="43.36795" lon="6.15187">
        <ele>431.20001220703</ele>
        <time>2017-02-01T15:08:23Z</time>
      </trkpt>
      <trkpt lat="43.36799" lon="6.15185">
        <ele>431.60000610352</ele>
        <time>2017-02-01T15:08:26Z</time>
      </trkpt>
      <trkpt lat="43.36803" lon="6.15184">
        <ele>432.20001220703</ele>
        <time>2017-02-01T15:08:30Z</time>
      </trkpt>
      <trkpt lat="43.36803" lon="6.15184">
        <ele>432.79998779297</ele>
        <time>2017-02-01T15:08:36Z</time>
      </trkpt>
      <trkpt lat="43.36803" lon="6.15183">
        <ele>433</ele>
        <time>2017-02-01T15:08:39Z</time>
      </trkpt>
      <trkpt lat="43.36801" lon="6.15183">
        <ele>432.60000610352</ele>
        <time>2017-02-01T15:08:46Z</time>
      </trkpt>
      <trkpt lat="43.368" lon="6.15184">
        <ele>432.39999389648</ele>
        <time>2017-02-01T15:08:49Z</time>
      </trkpt>
      <trkpt lat="43.368" lon="6.15184">
        <ele>432</ele>
        <time>2017-02-01T15:08:52Z</time>
      </trkpt>
      <trkpt lat="43.368" lon="6.15184">
        <ele>431.60000610352</ele>
        <time>2017-02-01T15:08:54Z</time>
      </trkpt>
      <trkpt lat="43.368" lon="6.15184">
        <ele>431.79998779297</ele>
        <time>2017-02-01T15:09:05Z</time>
      </trkpt>
      <trkpt lat="43.36799" lon="6.15185">
        <ele>431.79998779297</ele>
        <time>2017-02-01T15:09:06Z</time>
      </trkpt>
      <trkpt lat="43.36799" lon="6.15185">
        <ele>431.60000610352</ele>
        <time>2017-02-01T15:09:11Z</time>
      </trkpt>
      <trkpt lat="43.36799" lon="6.15186">
        <ele>431.60000610352</ele>
        <time>2017-02-01T15:09:16Z</time>
      </trkpt>
      <trkpt lat="43.36799" lon="6.15186">
        <ele>432.60000610352</ele>
        <time>2017-02-01T15:09:26Z</time>
      </trkpt>
      <trkpt lat="43.36798" lon="6.15186">
        <ele>432</ele>
        <time>2017-02-01T15:09:35Z</time>
      </trkpt>
      <trkpt lat="43.36798" lon="6.15186">
        <ele>431.79998779297</ele>
        <time>2017-02-01T15:09:36Z</time>
      </trkpt>
      <trkpt lat="43.36797" lon="6.15187">
        <ele>431.79998779297</ele>
        <time>2017-02-01T15:09:39Z</time>
      </trkpt>
      <trkpt lat="43.36798" lon="6.15187">
        <ele>431.60000610352</ele>
        <time>2017-02-01T15:09:46Z</time>
      </trkpt>
      <trkpt lat="43.36801" lon="6.1519">
        <ele>431.79998779297</ele>
        <time>2017-02-01T15:09:54Z</time>
      </trkpt>
      <trkpt lat="43.36801" lon="6.1519">
        <ele>432.39999389648</ele>
        <time>2017-02-01T15:09:56Z</time>
      </trkpt>
      <trkpt lat="43.36801" lon="6.15189">
        <ele>432.60000610352</ele>
        <time>2017-02-01T15:09:59Z</time>
      </trkpt>
      <trkpt lat="43.368" lon="6.15188">
        <ele>432.60000610352</ele>
        <time>2017-02-01T15:10:06Z</time>
      </trkpt>
      <trkpt lat="43.368" lon="6.15187">
        <ele>432.39999389648</ele>
        <time>2017-02-01T15:10:12Z</time>
      </trkpt>
      <trkpt lat="43.368" lon="6.15187">
        <ele>432.60000610352</ele>
        <time>2017-02-01T15:10:16Z</time>
      </trkpt>
      <trkpt lat="43.36801" lon="6.15186">
        <ele>432.39999389648</ele>
        <time>2017-02-01T15:10:26Z</time>
      </trkpt>
      <trkpt lat="43.36803" lon="6.15184">
        <ele>432.39999389648</ele>
        <time>2017-02-01T15:10:32Z</time>
      </trkpt>
      <trkpt lat="43.36806" lon="6.15183">
        <ele>432.39999389648</ele>
        <time>2017-02-01T15:10:34Z</time>
      </trkpt>
      <trkpt lat="43.36808" lon="6.15181">
        <ele>432.79998779297</ele>
        <time>2017-02-01T15:10:36Z</time>
      </trkpt>
      <trkpt lat="43.3681" lon="6.15181">
        <ele>433.20001220703</ele>
        <time>2017-02-01T15:10:38Z</time>
      </trkpt>
      <trkpt lat="43.36812" lon="6.1518">
        <ele>433.60000610352</ele>
        <time>2017-02-01T15:10:40Z</time>
      </trkpt>
      <trkpt lat="43.36813" lon="6.1518">
        <ele>434</ele>
        <time>2017-02-01T15:10:42Z</time>
      </trkpt>
      <trkpt lat="43.36813" lon="6.1518">
        <ele>434.20001220703</ele>
        <time>2017-02-01T15:10:45Z</time>
      </trkpt>
      <trkpt lat="43.36813" lon="6.15181">
        <ele>434.20001220703</ele>
        <time>2017-02-01T15:10:46Z</time>
      </trkpt>
      <trkpt lat="43.36812" lon="6.15183">
        <ele>434.39999389648</ele>
        <time>2017-02-01T15:10:56Z</time>
      </trkpt>
      <trkpt lat="43.36814" lon="6.15181">
        <ele>434.79998779297</ele>
        <time>2017-02-01T15:11:02Z</time>
      </trkpt>
      <trkpt lat="43.36814" lon="6.15181">
        <ele>434.79998779297</ele>
        <time>2017-02-01T15:11:06Z</time>
      </trkpt>
      <trkpt lat="43.36813" lon="6.15182">
        <ele>434.79998779297</ele>
        <time>2017-02-01T15:11:16Z</time>
      </trkpt>
      <trkpt lat="43.36813" lon="6.15182">
        <ele>434.79998779297</ele>
        <time>2017-02-01T15:11:22Z</time>
      </trkpt>
      <trkpt lat="43.36817" lon="6.15181">
        <ele>435</ele>
        <time>2017-02-01T15:11:26Z</time>
      </trkpt>
      <trkpt lat="43.3682" lon="6.1518">
        <ele>435.39999389648</ele>
        <time>2017-02-01T15:11:28Z</time>
      </trkpt>
      <trkpt lat="43.36821" lon="6.15179">
        <ele>436</ele>
        <time>2017-02-01T15:11:32Z</time>
      </trkpt>
      <trkpt lat="43.36822" lon="6.15179">
        <ele>436.39999389648</ele>
        <time>2017-02-01T15:11:34Z</time>
      </trkpt>
      <trkpt lat="43.36823" lon="6.15179">
        <ele>436.79998779297</ele>
        <time>2017-02-01T15:11:36Z</time>
      </trkpt>
      <trkpt lat="43.36826" lon="6.15181">
        <ele>437.39999389648</ele>
        <time>2017-02-01T15:11:44Z</time>
      </trkpt>
      <trkpt lat="43.36827" lon="6.15181">
        <ele>437.60000610352</ele>
        <time>2017-02-01T15:11:46Z</time>
      </trkpt>
      <trkpt lat="43.36826" lon="6.15183">
        <ele>437.60000610352</ele>
        <time>2017-02-01T15:11:56Z</time>
      </trkpt>
      <trkpt lat="43.36826" lon="6.15183">
        <ele>437.20001220703</ele>
        <time>2017-02-01T15:12:06Z</time>
      </trkpt>
      <trkpt lat="43.36827" lon="6.15184">
        <ele>437.60000610352</ele>
        <time>2017-02-01T15:12:14Z</time>
      </trkpt>
      <trkpt lat="43.36829" lon="6.15185">
        <ele>437.79998779297</ele>
        <time>2017-02-01T15:12:16Z</time>
      </trkpt>
      <trkpt lat="43.36832" lon="6.15186">
        <ele>438.79998779297</ele>
        <time>2017-02-01T15:12:19Z</time>
      </trkpt>
      <trkpt lat="43.36837" lon="6.15185">
        <ele>439.20001220703</ele>
        <time>2017-02-01T15:12:22Z</time>
      </trkpt>
      <trkpt lat="43.3684" lon="6.15183">
        <ele>439.79998779297</ele>
        <time>2017-02-01T15:12:24Z</time>
      </trkpt>
      <trkpt lat="43.36842" lon="6.15182">
        <ele>440.39999389648</ele>
        <time>2017-02-01T15:12:26Z</time>
      </trkpt>
      <trkpt lat="43.36844" lon="6.15183">
        <ele>441</ele>
        <time>2017-02-01T15:12:27Z</time>
      </trkpt>
      <trkpt lat="43.36845" lon="6.15184">
        <ele>441.20001220703</ele>
        <time>2017-02-01T15:12:28Z</time>
      </trkpt>
      <trkpt lat="43.36846" lon="6.15184">
        <ele>441.60000610352</ele>
        <time>2017-02-01T15:12:29Z</time>
      </trkpt>
      <trkpt lat="43.36847" lon="6.15185">
        <ele>441.79998779297</ele>
        <time>2017-02-01T15:12:30Z</time>
      </trkpt>
      <trkpt lat="43.36848" lon="6.15185">
        <ele>442</ele>
        <time>2017-02-01T15:12:31Z</time>
      </trkpt>
      <trkpt lat="43.3685" lon="6.15185">
        <ele>441.79998779297</ele>
        <time>2017-02-01T15:12:33Z</time>
      </trkpt>
      <trkpt lat="43.36852" lon="6.15186">
        <ele>441.60000610352</ele>
        <time>2017-02-01T15:12:36Z</time>
      </trkpt>
      <trkpt lat="43.36856" lon="6.15185">
        <ele>442</ele>
        <time>2017-02-01T15:12:41Z</time>
      </trkpt>
      <trkpt lat="43.3686" lon="6.15185">
        <ele>442</ele>
        <time>2017-02-01T15:12:46Z</time>
      </trkpt>
      <trkpt lat="43.36861" lon="6.15185">
        <ele>442</ele>
        <time>2017-02-01T15:12:48Z</time>
      </trkpt>
      <trkpt lat="43.36864" lon="6.15186">
        <ele>442.20001220703</ele>
        <time>2017-02-01T15:12:51Z</time>
      </trkpt>
      <trkpt lat="43.36869" lon="6.15187">
        <ele>442</ele>
        <time>2017-02-01T15:12:56Z</time>
      </trkpt>
      <trkpt lat="43.3687" lon="6.15187">
        <ele>442</ele>
        <time>2017-02-01T15:13:00Z</time>
      </trkpt>
      <trkpt lat="43.3687" lon="6.15186">
        <ele>442</ele>
        <time>2017-02-01T15:13:02Z</time>
      </trkpt>
      <trkpt lat="43.36871" lon="6.15186">
        <ele>442.20001220703</ele>
        <time>2017-02-01T15:13:06Z</time>
      </trkpt>
      <trkpt lat="43.36871" lon="6.15186">
        <ele>442.39999389648</ele>
        <time>2017-02-01T15:13:09Z</time>
      </trkpt>
      <trkpt lat="43.36871" lon="6.15186">
        <ele>442.60000610352</ele>
        <time>2017-02-01T15:13:13Z</time>
      </trkpt>
      <trkpt lat="43.36874" lon="6.15187">
        <ele>442.39999389648</ele>
        <time>2017-02-01T15:13:16Z</time>
      </trkpt>
      <trkpt lat="43.36875" lon="6.15187">
        <ele>442.39999389648</ele>
        <time>2017-02-01T15:13:17Z</time>
      </trkpt>
      <trkpt lat="43.3688" lon="6.15192">
        <ele>442.60000610352</ele>
        <time>2017-02-01T15:13:22Z</time>
      </trkpt>
      <trkpt lat="43.36883" lon="6.15195">
        <ele>442.79998779297</ele>
        <time>2017-02-01T15:13:26Z</time>
      </trkpt>
      <trkpt lat="43.36885" lon="6.15196">
        <ele>443</ele>
        <time>2017-02-01T15:13:28Z</time>
      </trkpt>
      <trkpt lat="43.3689" lon="6.15202">
        <ele>442.60000610352</ele>
        <time>2017-02-01T15:13:33Z</time>
      </trkpt>
      <trkpt lat="43.36896" lon="6.15206">
        <ele>442.39999389648</ele>
        <time>2017-02-01T15:13:36Z</time>
      </trkpt>
      <trkpt lat="43.36903" lon="6.15213">
        <ele>441.79998779297</ele>
        <time>2017-02-01T15:13:41Z</time>
      </trkpt>
      <trkpt lat="43.36911" lon="6.15214">
        <ele>441</ele>
        <time>2017-02-01T15:13:46Z</time>
      </trkpt>
      <trkpt lat="43.36913" lon="6.15214">
        <ele>440.60000610352</ele>
        <time>2017-02-01T15:13:47Z</time>
      </trkpt>
      <trkpt lat="43.36928" lon="6.15208">
        <ele>439.60000610352</ele>
        <time>2017-02-01T15:13:53Z</time>
      </trkpt>
      <trkpt lat="43.36932" lon="6.15207">
        <ele>438.60000610352</ele>
        <time>2017-02-01T15:13:55Z</time>
      </trkpt>
      <trkpt lat="43.36935" lon="6.15207">
        <ele>438</ele>
        <time>2017-02-01T15:13:56Z</time>
      </trkpt>
      <trkpt lat="43.3694" lon="6.15208">
        <ele>437.20001220703</ele>
        <time>2017-02-01T15:13:58Z</time>
      </trkpt>
      <trkpt lat="43.36951" lon="6.15204">
        <ele>436.20001220703</ele>
        <time>2017-02-01T15:14:02Z</time>
      </trkpt>
      <trkpt lat="43.36958" lon="6.152">
        <ele>434.60000610352</ele>
        <time>2017-02-01T15:14:04Z</time>
      </trkpt>
      <trkpt lat="43.36965" lon="6.15194">
        <ele>433.60000610352</ele>
        <time>2017-02-01T15:14:06Z</time>
      </trkpt>
      <trkpt lat="43.36978" lon="6.15163">
        <ele>432.39999389648</ele>
        <time>2017-02-01T15:14:13Z</time>
      </trkpt>
      <trkpt lat="43.3698" lon="6.15151">
        <ele>432</ele>
        <time>2017-02-01T15:14:16Z</time>
      </trkpt>
      <trkpt lat="43.3698" lon="6.15147">
        <ele>431.79998779297</ele>
        <time>2017-02-01T15:14:17Z</time>
      </trkpt>
      <trkpt lat="43.36977" lon="6.1514">
        <ele>431.39999389648</ele>
        <time>2017-02-01T15:14:21Z</time>
      </trkpt>
      <trkpt lat="43.36975" lon="6.15136">
        <ele>431</ele>
        <time>2017-02-01T15:14:23Z</time>
      </trkpt>
      <trkpt lat="43.36974" lon="6.15126">
        <ele>430.79998779297</ele>
        <time>2017-02-01T15:14:26Z</time>
      </trkpt>
      <trkpt lat="43.36974" lon="6.15123">
        <ele>430.60000610352</ele>
        <time>2017-02-01T15:14:27Z</time>
      </trkpt>
      <trkpt lat="43.36977" lon="6.15116">
        <ele>430.39999389648</ele>
        <time>2017-02-01T15:14:30Z</time>
      </trkpt>
      <trkpt lat="43.36979" lon="6.15115">
        <ele>430.20001220703</ele>
        <time>2017-02-01T15:14:31Z</time>
      </trkpt>
      <trkpt lat="43.36982" lon="6.15111">
        <ele>430</ele>
        <time>2017-02-01T15:14:33Z</time>
      </trkpt>
      <trkpt lat="43.36986" lon="6.15101">
        <ele>429.79998779297</ele>
        <time>2017-02-01T15:14:36Z</time>
      </trkpt>
      <trkpt lat="43.36982" lon="6.15076">
        <ele>429.60000610352</ele>
        <time>2017-02-01T15:14:42Z</time>
      </trkpt>
      <trkpt lat="43.3698" lon="6.15061">
        <ele>429.60000610352</ele>
        <time>2017-02-01T15:14:46Z</time>
      </trkpt>
      <trkpt lat="43.36981" lon="6.15037">
        <ele>429.60000610352</ele>
        <time>2017-02-01T15:14:53Z</time>
      </trkpt>
      <trkpt lat="43.36986" lon="6.15029">
        <ele>429.39999389648</ele>
        <time>2017-02-01T15:14:56Z</time>
      </trkpt>
      <trkpt lat="43.36992" lon="6.15021">
        <ele>429</ele>
        <time>2017-02-01T15:14:58Z</time>
      </trkpt>
      <trkpt lat="43.36996" lon="6.15011">
        <ele>428.39999389648</ele>
        <time>2017-02-01T15:15:00Z</time>
      </trkpt>
      <trkpt lat="43.36999" lon="6.15001">
        <ele>427.60000610352</ele>
        <time>2017-02-01T15:15:02Z</time>
      </trkpt>
      <trkpt lat="43.37002" lon="6.14992">
        <ele>425.79998779297</ele>
        <time>2017-02-01T15:15:04Z</time>
      </trkpt>
      <trkpt lat="43.37004" lon="6.14984">
        <ele>423.60000610352</ele>
        <time>2017-02-01T15:15:06Z</time>
      </trkpt>
      <trkpt lat="43.37005" lon="6.1498">
        <ele>422.60000610352</ele>
        <time>2017-02-01T15:15:07Z</time>
      </trkpt>
      <trkpt lat="43.37006" lon="6.14975">
        <ele>421.20001220703</ele>
        <time>2017-02-01T15:15:09Z</time>
      </trkpt>
      <trkpt lat="43.37007" lon="6.14971">
        <ele>420</ele>
        <time>2017-02-01T15:15:12Z</time>
      </trkpt>
      <trkpt lat="43.37009" lon="6.14966">
        <ele>419.60000610352</ele>
        <time>2017-02-01T15:15:14Z</time>
      </trkpt>
      <trkpt lat="43.37011" lon="6.14959">
        <ele>419.20001220703</ele>
        <time>2017-02-01T15:15:16Z</time>
      </trkpt>
      <trkpt lat="43.37012" lon="6.14955">
        <ele>418.79998779297</ele>
        <time>2017-02-01T15:15:17Z</time>
      </trkpt>
      <trkpt lat="43.37015" lon="6.14943">
        <ele>417.39999389648</ele>
        <time>2017-02-01T15:15:20Z</time>
      </trkpt>
      <trkpt lat="43.37017" lon="6.14932">
        <ele>416</ele>
        <time>2017-02-01T15:15:23Z</time>
      </trkpt>
      <trkpt lat="43.37021" lon="6.14923">
        <ele>414.20001220703</ele>
        <time>2017-02-01T15:15:26Z</time>
      </trkpt>
      <trkpt lat="43.37023" lon="6.14916">
        <ele>413.39999389648</ele>
        <time>2017-02-01T15:15:28Z</time>
      </trkpt>
      <trkpt lat="43.37026" lon="6.14907">
        <ele>412</ele>
        <time>2017-02-01T15:15:31Z</time>
      </trkpt>
      <trkpt lat="43.37026" lon="6.149">
        <ele>410.60000610352</ele>
        <time>2017-02-01T15:15:34Z</time>
      </trkpt>
      <trkpt lat="43.37026" lon="6.14895">
        <ele>409.39999389648</ele>
        <time>2017-02-01T15:15:36Z</time>
      </trkpt>
      <trkpt lat="43.37026" lon="6.14885">
        <ele>408.20001220703</ele>
        <time>2017-02-01T15:15:39Z</time>
      </trkpt>
      <trkpt lat="43.37027" lon="6.14874">
        <ele>406.39999389648</ele>
        <time>2017-02-01T15:15:43Z</time>
      </trkpt>
      <trkpt lat="43.37028" lon="6.14867">
        <ele>404</ele>
        <time>2017-02-01T15:15:45Z</time>
      </trkpt>
      <trkpt lat="43.37028" lon="6.14863">
        <ele>403.20001220703</ele>
        <time>2017-02-01T15:15:46Z</time>
      </trkpt>
      <trkpt lat="43.37027" lon="6.1486">
        <ele>402.79998779297</ele>
        <time>2017-02-01T15:15:47Z</time>
      </trkpt>
      <trkpt lat="43.37026" lon="6.14851">
        <ele>401.79998779297</ele>
        <time>2017-02-01T15:15:50Z</time>
      </trkpt>
      <trkpt lat="43.37026" lon="6.14849">
        <ele>400.60000610352</ele>
        <time>2017-02-01T15:15:52Z</time>
      </trkpt>
      <trkpt lat="43.37025" lon="6.14848">
        <ele>399.39999389648</ele>
        <time>2017-02-01T15:15:55Z</time>
      </trkpt>
      <trkpt lat="43.37025" lon="6.14848">
        <ele>399.39999389648</ele>
        <time>2017-02-01T15:15:56Z</time>
      </trkpt>
      <trkpt lat="43.37029" lon="6.14848">
        <ele>399.39999389648</ele>
        <time>2017-02-01T15:16:06Z</time>
      </trkpt>
      <trkpt lat="43.3703" lon="6.14847">
        <ele>399.20001220703</ele>
        <time>2017-02-01T15:16:16Z</time>
      </trkpt>
      <trkpt lat="43.3703" lon="6.14846">
        <ele>399.39999389648</ele>
        <time>2017-02-01T15:16:26Z</time>
      </trkpt>
      <trkpt lat="43.3703" lon="6.14846">
        <ele>399.39999389648</ele>
        <time>2017-02-01T15:16:36Z</time>
      </trkpt>
      <trkpt lat="43.3703" lon="6.14844">
        <ele>399.79998779297</ele>
        <time>2017-02-01T15:16:46Z</time>
      </trkpt>
      <trkpt lat="43.37031" lon="6.14841">
        <ele>399.60000610352</ele>
        <time>2017-02-01T15:16:52Z</time>
      </trkpt>
      <trkpt lat="43.37033" lon="6.14832">
        <ele>399</ele>
        <time>2017-02-01T15:16:55Z</time>
      </trkpt>
      <trkpt lat="43.37033" lon="6.14828">
        <ele>398.39999389648</ele>
        <time>2017-02-01T15:16:56Z</time>
      </trkpt>
      <trkpt lat="43.37035" lon="6.14822">
        <ele>396.79998779297</ele>
        <time>2017-02-01T15:16:58Z</time>
      </trkpt>
      <trkpt lat="43.3704" lon="6.14815">
        <ele>395.60000610352</ele>
        <time>2017-02-01T15:17:00Z</time>
      </trkpt>
      <trkpt lat="43.37042" lon="6.14804">
        <ele>395</ele>
        <time>2017-02-01T15:17:03Z</time>
      </trkpt>
      <trkpt lat="43.37043" lon="6.14792">
        <ele>394.39999389648</ele>
        <time>2017-02-01T15:17:06Z</time>
      </trkpt>
      <trkpt lat="43.37044" lon="6.14787">
        <ele>394</ele>
        <time>2017-02-01T15:17:07Z</time>
      </trkpt>
      <trkpt lat="43.37045" lon="6.14777">
        <ele>392.79998779297</ele>
        <time>2017-02-01T15:17:09Z</time>
      </trkpt>
      <trkpt lat="43.37049" lon="6.14757">
        <ele>391.60000610352</ele>
        <time>2017-02-01T15:17:12Z</time>
      </trkpt>
      <trkpt lat="43.37051" lon="6.1475">
        <ele>390.79998779297</ele>
        <time>2017-02-01T15:17:13Z</time>
      </trkpt>
      <trkpt lat="43.37052" lon="6.14744">
        <ele>390.20001220703</ele>
        <time>2017-02-01T15:17:14Z</time>
      </trkpt>
      <trkpt lat="43.37053" lon="6.14727">
        <ele>388.39999389648</ele>
        <time>2017-02-01T15:17:17Z</time>
      </trkpt>
      <trkpt lat="43.37053" lon="6.14715">
        <ele>387.79998779297</ele>
        <time>2017-02-01T15:17:19Z</time>
      </trkpt>
      <trkpt lat="43.37057" lon="6.14699">
        <ele>387.20001220703</ele>
        <time>2017-02-01T15:17:22Z</time>
      </trkpt>
      <trkpt lat="43.37058" lon="6.14692">
        <ele>386.79998779297</ele>
        <time>2017-02-01T15:17:23Z</time>
      </trkpt>
      <trkpt lat="43.37057" lon="6.14686">
        <ele>386.20001220703</ele>
        <time>2017-02-01T15:17:24Z</time>
      </trkpt>
      <trkpt lat="43.37057" lon="6.1468">
        <ele>385.39999389648</ele>
        <time>2017-02-01T15:17:25Z</time>
      </trkpt>
      <trkpt lat="43.37057" lon="6.14665">
        <ele>384.20001220703</ele>
        <time>2017-02-01T15:17:28Z</time>
      </trkpt>
      <trkpt lat="43.37054" lon="6.14637">
        <ele>383</ele>
        <time>2017-02-01T15:17:34Z</time>
      </trkpt>
      <trkpt lat="43.37053" lon="6.14631">
        <ele>382.79998779297</ele>
        <time>2017-02-01T15:17:35Z</time>
      </trkpt>
      <trkpt lat="43.37048" lon="6.14615">
        <ele>382.20001220703</ele>
        <time>2017-02-01T15:17:38Z</time>
      </trkpt>
      <trkpt lat="43.37048" lon="6.14609">
        <ele>382</ele>
        <time>2017-02-01T15:17:39Z</time>
      </trkpt>
      <trkpt lat="43.37048" lon="6.14597">
        <ele>380.79998779297</ele>
        <time>2017-02-01T15:17:41Z</time>
      </trkpt>
      <trkpt lat="43.37053" lon="6.14574">
        <ele>379.79998779297</ele>
        <time>2017-02-01T15:17:45Z</time>
      </trkpt>
      <trkpt lat="43.37057" lon="6.14559">
        <ele>379</ele>
        <time>2017-02-01T15:17:48Z</time>
      </trkpt>
      <trkpt lat="43.37064" lon="6.14546">
        <ele>378.79998779297</ele>
        <time>2017-02-01T15:17:51Z</time>
      </trkpt>
      <trkpt lat="43.37067" lon="6.14524">
        <ele>378</ele>
        <time>2017-02-01T15:17:55Z</time>
      </trkpt>
      <trkpt lat="43.37068" lon="6.14511">
        <ele>377.39999389648</ele>
        <time>2017-02-01T15:17:57Z</time>
      </trkpt>
      <trkpt lat="43.37069" lon="6.14505">
        <ele>377.20001220703</ele>
        <time>2017-02-01T15:17:58Z</time>
      </trkpt>
      <trkpt lat="43.37067" lon="6.14497">
        <ele>376.60000610352</ele>
        <time>2017-02-01T15:18:00Z</time>
      </trkpt>
      <trkpt lat="43.37065" lon="6.14493">
        <ele>376</ele>
        <time>2017-02-01T15:18:01Z</time>
      </trkpt>
      <trkpt lat="43.37062" lon="6.14483">
        <ele>374.79998779297</ele>
        <time>2017-02-01T15:18:03Z</time>
      </trkpt>
      <trkpt lat="43.37061" lon="6.14477">
        <ele>374.60000610352</ele>
        <time>2017-02-01T15:18:04Z</time>
      </trkpt>
      <trkpt lat="43.37061" lon="6.14451">
        <ele>373.79998779297</ele>
        <time>2017-02-01T15:18:08Z</time>
      </trkpt>
      <trkpt lat="43.37062" lon="6.14429">
        <ele>373</ele>
        <time>2017-02-01T15:18:11Z</time>
      </trkpt>
      <trkpt lat="43.37063" lon="6.14422">
        <ele>372.60000610352</ele>
        <time>2017-02-01T15:18:12Z</time>
      </trkpt>
      <trkpt lat="43.37067" lon="6.14405">
        <ele>371.79998779297</ele>
        <time>2017-02-01T15:18:15Z</time>
      </trkpt>
      <trkpt lat="43.37071" lon="6.14402">
        <ele>371.39999389648</ele>
        <time>2017-02-01T15:18:17Z</time>
      </trkpt>
      <trkpt lat="43.37074" lon="6.144">
        <ele>370.79998779297</ele>
        <time>2017-02-01T15:18:18Z</time>
      </trkpt>
      <trkpt lat="43.37084" lon="6.14397">
        <ele>369.79998779297</ele>
        <time>2017-02-01T15:18:21Z</time>
      </trkpt>
      <trkpt lat="43.37088" lon="6.14391">
        <ele>369.20001220703</ele>
        <time>2017-02-01T15:18:23Z</time>
      </trkpt>
      <trkpt lat="43.3709" lon="6.14388">
        <ele>367.79998779297</ele>
        <time>2017-02-01T15:18:26Z</time>
      </trkpt>
      <trkpt lat="43.3709" lon="6.14388">
        <ele>367.60000610352</ele>
        <time>2017-02-01T15:18:28Z</time>
      </trkpt>
      <trkpt lat="43.3709" lon="6.14387">
        <ele>367.39999389648</ele>
        <time>2017-02-01T15:18:38Z</time>
      </trkpt>
      <trkpt lat="43.3709" lon="6.14385">
        <ele>367.39999389648</ele>
        <time>2017-02-01T15:18:41Z</time>
      </trkpt>
      <trkpt lat="43.37088" lon="6.1438">
        <ele>367.39999389648</ele>
        <time>2017-02-01T15:18:43Z</time>
      </trkpt>
      <trkpt lat="43.37087" lon="6.14367">
        <ele>366.79998779297</ele>
        <time>2017-02-01T15:18:46Z</time>
      </trkpt>
      <trkpt lat="43.37087" lon="6.14356">
        <ele>365.39999389648</ele>
        <time>2017-02-01T15:18:48Z</time>
      </trkpt>
      <trkpt lat="43.37089" lon="6.14349">
        <ele>364</ele>
        <time>2017-02-01T15:18:50Z</time>
      </trkpt>
      <trkpt lat="43.37091" lon="6.14348">
        <ele>363.60000610352</ele>
        <time>2017-02-01T15:18:51Z</time>
      </trkpt>
      <trkpt lat="43.37092" lon="6.14347">
        <ele>363.79998779297</ele>
        <time>2017-02-01T15:18:57Z</time>
      </trkpt>
      <trkpt lat="43.37092" lon="6.14347">
        <ele>364.39999389648</ele>
        <time>2017-02-01T15:19:08Z</time>
      </trkpt>
      <trkpt lat="43.37092" lon="6.14347">
        <ele>364</ele>
        <time>2017-02-01T15:19:17Z</time>
      </trkpt>
      <trkpt lat="43.37092" lon="6.14346">
        <ele>364.39999389648</ele>
        <time>2017-02-01T15:19:38Z</time>
      </trkpt>
      <trkpt lat="43.37092" lon="6.14346">
        <ele>364.60000610352</ele>
        <time>2017-02-01T15:19:47Z</time>
      </trkpt>
      <trkpt lat="43.37092" lon="6.14347">
        <ele>364.20001220703</ele>
        <time>2017-02-01T15:20:19Z</time>
      </trkpt>
      <trkpt lat="43.37092" lon="6.14346">
        <ele>364.20001220703</ele>
        <time>2017-02-01T15:20:23Z</time>
      </trkpt>
      <trkpt lat="43.37094" lon="6.14347">
        <ele>364.20001220703</ele>
        <time>2017-02-01T15:20:29Z</time>
      </trkpt>
      <trkpt lat="43.37097" lon="6.1435">
        <ele>364</ele>
        <time>2017-02-01T15:20:31Z</time>
      </trkpt>
      <trkpt lat="43.37112" lon="6.14362">
        <ele>364.39999389648</ele>
        <time>2017-02-01T15:20:39Z</time>
      </trkpt>
      <trkpt lat="43.37125" lon="6.1437">
        <ele>364.60000610352</ele>
        <time>2017-02-01T15:20:44Z</time>
      </trkpt>
      <trkpt lat="43.37141" lon="6.14372">
        <ele>364.60000610352</ele>
        <time>2017-02-01T15:20:49Z</time>
      </trkpt>
      <trkpt lat="43.37162" lon="6.14374">
        <ele>364.20001220703</ele>
        <time>2017-02-01T15:20:59Z</time>
      </trkpt>
      <trkpt lat="43.37173" lon="6.14374">
        <ele>364.60000610352</ele>
        <time>2017-02-01T15:21:04Z</time>
      </trkpt>
      <trkpt lat="43.37175" lon="6.14371">
        <ele>364.60000610352</ele>
        <time>2017-02-01T15:21:05Z</time>
      </trkpt>
      <trkpt lat="43.3718" lon="6.1436">
        <ele>364.79998779297</ele>
        <time>2017-02-01T15:21:09Z</time>
      </trkpt>
      <trkpt lat="43.37186" lon="6.1435">
        <ele>364.60000610352</ele>
        <time>2017-02-01T15:21:19Z</time>
      </trkpt>
      <trkpt lat="43.37191" lon="6.14345">
        <ele>365</ele>
        <time>2017-02-01T15:21:23Z</time>
      </trkpt>
      <trkpt lat="43.37196" lon="6.14346">
        <ele>365.39999389648</ele>
        <time>2017-02-01T15:21:27Z</time>
      </trkpt>
      <trkpt lat="43.37196" lon="6.14346">
        <ele>365.39999389648</ele>
        <time>2017-02-01T15:21:29Z</time>
      </trkpt>
      <trkpt lat="43.37196" lon="6.14346">
        <ele>365.39999389648</ele>
        <time>2017-02-01T15:21:30Z</time>
      </trkpt>
      <trkpt lat="43.37197" lon="6.14346">
        <ele>365.39999389648</ele>
        <time>2017-02-01T15:21:31Z</time>
      </trkpt>
      <trkpt lat="43.37197" lon="6.14346">
        <ele>365.39999389648</ele>
        <time>2017-02-01T15:21:32Z</time>
      </trkpt>
      <trkpt lat="43.37197" lon="6.14346">
        <ele>365.39999389648</ele>
        <time>2017-02-01T15:21:34Z</time>
      </trkpt>
      <trkpt lat="43.37197" lon="6.14346">
        <ele>365.39999389648</ele>
        <time>2017-02-01T15:21:35Z</time>
      </trkpt>
      <trkpt lat="43.37199" lon="6.14346">
        <ele>365.60000610352</ele>
        <time>2017-02-01T15:21:38Z</time>
      </trkpt>
      <trkpt lat="43.37199" lon="6.14345">
        <ele>365.79998779297</ele>
        <time>2017-02-01T15:21:45Z</time>
      </trkpt>
      <trkpt lat="43.37199" lon="6.14345">
        <ele>366</ele>
        <time>2017-02-01T15:21:46Z</time>
      </trkpt>
      <trkpt lat="43.37199" lon="6.14345">
        <ele>366.39999389648</ele>
        <time>2017-02-01T15:21:49Z</time>
      </trkpt>
      <trkpt lat="43.37201" lon="6.14344">
        <ele>366.39999389648</ele>
        <time>2017-02-01T15:21:51Z</time>
      </trkpt>
      <trkpt lat="43.37204" lon="6.14341">
        <ele>366.39999389648</ele>
        <time>2017-02-01T15:21:54Z</time>
      </trkpt>
      <trkpt lat="43.37209" lon="6.14335">
        <ele>366.60000610352</ele>
        <time>2017-02-01T15:21:59Z</time>
      </trkpt>
      <trkpt lat="43.37212" lon="6.14331">
        <ele>366.60000610352</ele>
        <time>2017-02-01T15:22:02Z</time>
      </trkpt>
      <trkpt lat="43.3722" lon="6.14325">
        <ele>367.20001220703</ele>
        <time>2017-02-01T15:22:09Z</time>
      </trkpt>
      <trkpt lat="43.37227" lon="6.14321">
        <ele>367.79998779297</ele>
        <time>2017-02-01T15:22:15Z</time>
      </trkpt>
      <trkpt lat="43.37233" lon="6.14318">
        <ele>368.20001220703</ele>
        <time>2017-02-01T15:22:19Z</time>
      </trkpt>
      <trkpt lat="43.37247" lon="6.14318">
        <ele>368.39999389648</ele>
        <time>2017-02-01T15:22:29Z</time>
      </trkpt>
      <trkpt lat="43.37255" lon="6.14321">
        <ele>369.39999389648</ele>
        <time>2017-02-01T15:22:34Z</time>
      </trkpt>
      <trkpt lat="43.37261" lon="6.14322">
        <ele>370</ele>
        <time>2017-02-01T15:22:39Z</time>
      </trkpt>
      <trkpt lat="43.37262" lon="6.14321">
        <ele>370.20001220703</ele>
        <time>2017-02-01T15:22:40Z</time>
      </trkpt>
      <trkpt lat="43.37269" lon="6.14316">
        <ele>370.20001220703</ele>
        <time>2017-02-01T15:22:47Z</time>
      </trkpt>
      <trkpt lat="43.37273" lon="6.14314">
        <ele>370.60000610352</ele>
        <time>2017-02-01T15:22:50Z</time>
      </trkpt>
      <trkpt lat="43.3728" lon="6.14307">
        <ele>371.39999389648</ele>
        <time>2017-02-01T15:22:57Z</time>
      </trkpt>
      <trkpt lat="43.37283" lon="6.14305">
        <ele>371.79998779297</ele>
        <time>2017-02-01T15:22:59Z</time>
      </trkpt>
      <trkpt lat="43.37285" lon="6.14303">
        <ele>372.39999389648</ele>
        <time>2017-02-01T15:23:01Z</time>
      </trkpt>
      <trkpt lat="43.37286" lon="6.14302">
        <ele>372.60000610352</ele>
        <time>2017-02-01T15:23:02Z</time>
      </trkpt>
      <trkpt lat="43.37287" lon="6.14301">
        <ele>372.79998779297</ele>
        <time>2017-02-01T15:23:03Z</time>
      </trkpt>
      <trkpt lat="43.37288" lon="6.14299">
        <ele>373</ele>
        <time>2017-02-01T15:23:04Z</time>
      </trkpt>
      <trkpt lat="43.3729" lon="6.14296">
        <ele>373.39999389648</ele>
        <time>2017-02-01T15:23:07Z</time>
      </trkpt>
      <trkpt lat="43.37292" lon="6.14294">
        <ele>373.79998779297</ele>
        <time>2017-02-01T15:23:09Z</time>
      </trkpt>
      <trkpt lat="43.37299" lon="6.14292">
        <ele>374.60000610352</ele>
        <time>2017-02-01T15:23:15Z</time>
      </trkpt>
      <trkpt lat="43.37299" lon="6.14292">
        <ele>374.79998779297</ele>
        <time>2017-02-01T15:23:16Z</time>
      </trkpt>
      <trkpt lat="43.37302" lon="6.14291">
        <ele>375.20001220703</ele>
        <time>2017-02-01T15:23:18Z</time>
      </trkpt>
      <trkpt lat="43.37303" lon="6.14291">
        <ele>375.39999389648</ele>
        <time>2017-02-01T15:23:19Z</time>
      </trkpt>
      <trkpt lat="43.37305" lon="6.1429">
        <ele>375.60000610352</ele>
        <time>2017-02-01T15:23:21Z</time>
      </trkpt>
      <trkpt lat="43.37307" lon="6.14288">
        <ele>376</ele>
        <time>2017-02-01T15:23:24Z</time>
      </trkpt>
      <trkpt lat="43.3731" lon="6.14285">
        <ele>376.79998779297</ele>
        <time>2017-02-01T15:23:28Z</time>
      </trkpt>
      <trkpt lat="43.3731" lon="6.14285">
        <ele>377</ele>
        <time>2017-02-01T15:23:29Z</time>
      </trkpt>
      <trkpt lat="43.3731" lon="6.14284">
        <ele>377.20001220703</ele>
        <time>2017-02-01T15:23:32Z</time>
      </trkpt>
      <trkpt lat="43.3731" lon="6.14286">
        <ele>377.39999389648</ele>
        <time>2017-02-01T15:23:39Z</time>
      </trkpt>
      <trkpt lat="43.37313" lon="6.14285">
        <ele>377.60000610352</ele>
        <time>2017-02-01T15:23:49Z</time>
      </trkpt>
      <trkpt lat="43.37313" lon="6.14285">
        <ele>377.79998779297</ele>
        <time>2017-02-01T15:23:52Z</time>
      </trkpt>
      <trkpt lat="43.37314" lon="6.14285">
        <ele>378.20001220703</ele>
        <time>2017-02-01T15:23:54Z</time>
      </trkpt>
      <trkpt lat="43.37316" lon="6.14283">
        <ele>378.79998779297</ele>
        <time>2017-02-01T15:23:59Z</time>
      </trkpt>
      <trkpt lat="43.37317" lon="6.1428">
        <ele>378.60000610352</ele>
        <time>2017-02-01T15:24:09Z</time>
      </trkpt>
      <trkpt lat="43.37316" lon="6.1428">
        <ele>378.60000610352</ele>
        <time>2017-02-01T15:24:15Z</time>
      </trkpt>
      <trkpt lat="43.37317" lon="6.1428">
        <ele>378.60000610352</ele>
        <time>2017-02-01T15:24:16Z</time>
      </trkpt>
      <trkpt lat="43.37318" lon="6.14279">
        <ele>378.60000610352</ele>
        <time>2017-02-01T15:24:18Z</time>
      </trkpt>
      <trkpt lat="43.3732" lon="6.14277">
        <ele>378.79998779297</ele>
        <time>2017-02-01T15:24:20Z</time>
      </trkpt>
      <trkpt lat="43.37322" lon="6.14274">
        <ele>379.39999389648</ele>
        <time>2017-02-01T15:24:22Z</time>
      </trkpt>
      <trkpt lat="43.37328" lon="6.14267">
        <ele>380.20001220703</ele>
        <time>2017-02-01T15:24:28Z</time>
      </trkpt>
      <trkpt lat="43.37329" lon="6.14264">
        <ele>380.39999389648</ele>
        <time>2017-02-01T15:24:30Z</time>
      </trkpt>
      <trkpt lat="43.37334" lon="6.14257">
        <ele>382.20001220703</ele>
        <time>2017-02-01T15:24:35Z</time>
      </trkpt>
      <trkpt lat="43.37341" lon="6.14253">
        <ele>383</ele>
        <time>2017-02-01T15:24:40Z</time>
      </trkpt>
      <trkpt lat="43.37346" lon="6.14248">
        <ele>383.60000610352</ele>
        <time>2017-02-01T15:24:44Z</time>
      </trkpt>
      <trkpt lat="43.3735" lon="6.14242">
        <ele>384</ele>
        <time>2017-02-01T15:24:49Z</time>
      </trkpt>
      <trkpt lat="43.37354" lon="6.14237">
        <ele>384.20001220703</ele>
        <time>2017-02-01T15:24:55Z</time>
      </trkpt>
      <trkpt lat="43.37354" lon="6.14236">
        <ele>384.60000610352</ele>
        <time>2017-02-01T15:25:03Z</time>
      </trkpt>
      <trkpt lat="43.37354" lon="6.14236">
        <ele>384.39999389648</ele>
        <time>2017-02-01T15:25:09Z</time>
      </trkpt>
      <trkpt lat="43.37354" lon="6.14236">
        <ele>384.60000610352</ele>
        <time>2017-02-01T15:25:17Z</time>
      </trkpt>
      <trkpt lat="43.37354" lon="6.14236">
        <ele>384.60000610352</ele>
        <time>2017-02-01T15:25:26Z</time>
      </trkpt>
      <trkpt lat="43.37354" lon="6.14236">
        <ele>384.60000610352</ele>
        <time>2017-02-01T15:25:32Z</time>
      </trkpt>
      <trkpt lat="43.37353" lon="6.14236">
        <ele>384.60000610352</ele>
        <time>2017-02-01T15:25:59Z</time>
      </trkpt>
      <trkpt lat="43.37353" lon="6.14237">
        <ele>384.39999389648</ele>
        <time>2017-02-01T15:26:09Z</time>
      </trkpt>
      <trkpt lat="43.37354" lon="6.14237">
        <ele>384.39999389648</ele>
        <time>2017-02-01T15:26:15Z</time>
      </trkpt>
      <trkpt lat="43.37354" lon="6.14237">
        <ele>384.39999389648</ele>
        <time>2017-02-01T15:26:19Z</time>
      </trkpt>
      <trkpt lat="43.37354" lon="6.14237">
        <ele>384.39999389648</ele>
        <time>2017-02-01T15:26:24Z</time>
      </trkpt>
      <trkpt lat="43.37355" lon="6.14236">
        <ele>384.39999389648</ele>
        <time>2017-02-01T15:26:29Z</time>
      </trkpt>
      <trkpt lat="43.37357" lon="6.14233">
        <ele>384.39999389648</ele>
        <time>2017-02-01T15:26:31Z</time>
      </trkpt>
      <trkpt lat="43.37358" lon="6.1423">
        <ele>384.20001220703</ele>
        <time>2017-02-01T15:26:33Z</time>
      </trkpt>
      <trkpt lat="43.37361" lon="6.14223">
        <ele>381.79998779297</ele>
        <time>2017-02-01T15:26:36Z</time>
      </trkpt>
      <trkpt lat="43.37363" lon="6.14215">
        <ele>381.79998779297</ele>
        <time>2017-02-01T15:26:39Z</time>
      </trkpt>
      <trkpt lat="43.37381" lon="6.14193">
        <ele>381.20001220703</ele>
        <time>2017-02-01T15:26:48Z</time>
      </trkpt>
      <trkpt lat="43.37384" lon="6.14193">
        <ele>381</ele>
        <time>2017-02-01T15:26:49Z</time>
      </trkpt>
      <trkpt lat="43.37404" lon="6.14189">
        <ele>380.60000610352</ele>
        <time>2017-02-01T15:26:56Z</time>
      </trkpt>
      <trkpt lat="43.37413" lon="6.14185">
        <ele>379.39999389648</ele>
        <time>2017-02-01T15:26:59Z</time>
      </trkpt>
      <trkpt lat="43.3742" lon="6.14183">
        <ele>378.20001220703</ele>
        <time>2017-02-01T15:27:01Z</time>
      </trkpt>
      <trkpt lat="43.37434" lon="6.14174">
        <ele>376.79998779297</ele>
        <time>2017-02-01T15:27:05Z</time>
      </trkpt>
      <trkpt lat="43.37443" lon="6.14171">
        <ele>375.39999389648</ele>
        <time>2017-02-01T15:27:07Z</time>
      </trkpt>
      <trkpt lat="43.37448" lon="6.14168">
        <ele>374.60000610352</ele>
        <time>2017-02-01T15:27:08Z</time>
      </trkpt>
      <trkpt lat="43.37453" lon="6.14164">
        <ele>373.79998779297</ele>
        <time>2017-02-01T15:27:09Z</time>
      </trkpt>
      <trkpt lat="43.37458" lon="6.14162">
        <ele>373</ele>
        <time>2017-02-01T15:27:10Z</time>
      </trkpt>
      <trkpt lat="43.37463" lon="6.1416">
        <ele>372.60000610352</ele>
        <time>2017-02-01T15:27:11Z</time>
      </trkpt>
      <trkpt lat="43.37468" lon="6.14158">
        <ele>372</ele>
        <time>2017-02-01T15:27:12Z</time>
      </trkpt>
      <trkpt lat="43.37473" lon="6.14156">
        <ele>371.39999389648</ele>
        <time>2017-02-01T15:27:13Z</time>
      </trkpt>
      <trkpt lat="43.3748" lon="6.14149">
        <ele>370.60000610352</ele>
        <time>2017-02-01T15:27:15Z</time>
      </trkpt>
      <trkpt lat="43.37483" lon="6.14145">
        <ele>370.20001220703</ele>
        <time>2017-02-01T15:27:16Z</time>
      </trkpt>
      <trkpt lat="43.37501" lon="6.14124">
        <ele>367.20001220703</ele>
        <time>2017-02-01T15:27:21Z</time>
      </trkpt>
      <trkpt lat="43.37507" lon="6.14115">
        <ele>366</ele>
        <time>2017-02-01T15:27:23Z</time>
      </trkpt>
      <trkpt lat="43.37513" lon="6.14106">
        <ele>365.20001220703</ele>
        <time>2017-02-01T15:27:25Z</time>
      </trkpt>
      <trkpt lat="43.37515" lon="6.14101">
        <ele>365</ele>
        <time>2017-02-01T15:27:26Z</time>
      </trkpt>
      <trkpt lat="43.37518" lon="6.14084">
        <ele>364.60000610352</ele>
        <time>2017-02-01T15:27:29Z</time>
      </trkpt>
      <trkpt lat="43.37519" lon="6.14061">
        <ele>370.39999389648</ele>
        <time>2017-02-01T15:27:33Z</time>
      </trkpt>
      <trkpt lat="43.37525" lon="6.14044">
        <ele>371.39999389648</ele>
        <time>2017-02-01T15:27:36Z</time>
      </trkpt>
      <trkpt lat="43.37532" lon="6.14028">
        <ele>371.60000610352</ele>
        <time>2017-02-01T15:27:39Z</time>
      </trkpt>
      <trkpt lat="43.37538" lon="6.14">
        <ele>370.39999389648</ele>
        <time>2017-02-01T15:27:44Z</time>
      </trkpt>
      <trkpt lat="43.3754" lon="6.13976">
        <ele>369.39999389648</ele>
        <time>2017-02-01T15:27:49Z</time>
      </trkpt>
      <trkpt lat="43.37549" lon="6.13948">
        <ele>369.20001220703</ele>
        <time>2017-02-01T15:27:55Z</time>
      </trkpt>
      <trkpt lat="43.37554" lon="6.13933">
        <ele>368</ele>
        <time>2017-02-01T15:27:58Z</time>
      </trkpt>
      <trkpt lat="43.37555" lon="6.13928">
        <ele>367.79998779297</ele>
        <time>2017-02-01T15:27:59Z</time>
      </trkpt>
      <trkpt lat="43.37559" lon="6.13914">
        <ele>367</ele>
        <time>2017-02-01T15:28:02Z</time>
      </trkpt>
      <trkpt lat="43.37563" lon="6.139">
        <ele>366</ele>
        <time>2017-02-01T15:28:05Z</time>
      </trkpt>
      <trkpt lat="43.37566" lon="6.1388">
        <ele>365.60000610352</ele>
        <time>2017-02-01T15:28:09Z</time>
      </trkpt>
      <trkpt lat="43.37567" lon="6.13859">
        <ele>365.79998779297</ele>
        <time>2017-02-01T15:28:14Z</time>
      </trkpt>
      <trkpt lat="43.37568" lon="6.13845">
        <ele>365</ele>
        <time>2017-02-01T15:28:19Z</time>
      </trkpt>
      <trkpt lat="43.37568" lon="6.13843">
        <ele>365</ele>
        <time>2017-02-01T15:28:20Z</time>
      </trkpt>
      <trkpt lat="43.37569" lon="6.13842">
        <ele>364.79998779297</ele>
        <time>2017-02-01T15:28:29Z</time>
      </trkpt>
      <trkpt lat="43.37571" lon="6.13834">
        <ele>365</ele>
        <time>2017-02-01T15:28:33Z</time>
      </trkpt>
      <trkpt lat="43.37573" lon="6.13818">
        <ele>364.79998779297</ele>
        <time>2017-02-01T15:28:38Z</time>
      </trkpt>
      <trkpt lat="43.37573" lon="6.13814">
        <ele>364.79998779297</ele>
        <time>2017-02-01T15:28:39Z</time>
      </trkpt>
      <trkpt lat="43.37573" lon="6.13795">
        <ele>364.79998779297</ele>
        <time>2017-02-01T15:28:43Z</time>
      </trkpt>
      <trkpt lat="43.37572" lon="6.13779">
        <ele>364</ele>
        <time>2017-02-01T15:28:46Z</time>
      </trkpt>
      <trkpt lat="43.3757" lon="6.13761">
        <ele>363.60000610352</ele>
        <time>2017-02-01T15:28:49Z</time>
      </trkpt>
      <trkpt lat="43.37566" lon="6.13727">
        <ele>362.79998779297</ele>
        <time>2017-02-01T15:28:54Z</time>
      </trkpt>
      <trkpt lat="43.37561" lon="6.13705">
        <ele>361.79998779297</ele>
        <time>2017-02-01T15:28:57Z</time>
      </trkpt>
      <trkpt lat="43.37558" lon="6.13688">
        <ele>361.39999389648</ele>
        <time>2017-02-01T15:28:59Z</time>
      </trkpt>
      <trkpt lat="43.37558" lon="6.13679">
        <ele>361</ele>
        <time>2017-02-01T15:29:00Z</time>
      </trkpt>
      <trkpt lat="43.37558" lon="6.13671">
        <ele>360.79998779297</ele>
        <time>2017-02-01T15:29:01Z</time>
      </trkpt>
      <trkpt lat="43.37558" lon="6.13663">
        <ele>360.39999389648</ele>
        <time>2017-02-01T15:29:02Z</time>
      </trkpt>
      <trkpt lat="43.37557" lon="6.13649">
        <ele>359.60000610352</ele>
        <time>2017-02-01T15:29:04Z</time>
      </trkpt>
      <trkpt lat="43.37555" lon="6.13635">
        <ele>359.20001220703</ele>
        <time>2017-02-01T15:29:06Z</time>
      </trkpt>
      <trkpt lat="43.37548" lon="6.13616">
        <ele>358.60000610352</ele>
        <time>2017-02-01T15:29:09Z</time>
      </trkpt>
      <trkpt lat="43.37539" lon="6.13583">
        <ele>357.39999389648</ele>
        <time>2017-02-01T15:29:14Z</time>
      </trkpt>
      <trkpt lat="43.37535" lon="6.13569">
        <ele>355.39999389648</ele>
        <time>2017-02-01T15:29:16Z</time>
      </trkpt>
      <trkpt lat="43.37532" lon="6.13555">
        <ele>354.20001220703</ele>
        <time>2017-02-01T15:29:18Z</time>
      </trkpt>
      <trkpt lat="43.37532" lon="6.13548">
        <ele>353.79998779297</ele>
        <time>2017-02-01T15:29:19Z</time>
      </trkpt>
      <trkpt lat="43.37531" lon="6.13525">
        <ele>353.20001220703</ele>
        <time>2017-02-01T15:29:22Z</time>
      </trkpt>
      <trkpt lat="43.3753" lon="6.13511">
        <ele>353.20001220703</ele>
        <time>2017-02-01T15:29:24Z</time>
      </trkpt>
      <trkpt lat="43.37528" lon="6.13498">
        <ele>353</ele>
        <time>2017-02-01T15:29:26Z</time>
      </trkpt>
      <trkpt lat="43.37525" lon="6.13481">
        <ele>352.20001220703</ele>
        <time>2017-02-01T15:29:29Z</time>
      </trkpt>
      <trkpt lat="43.37523" lon="6.13458">
        <ele>351.20001220703</ele>
        <time>2017-02-01T15:29:37Z</time>
      </trkpt>
      <trkpt lat="43.37522" lon="6.1345">
        <ele>351</ele>
        <time>2017-02-01T15:29:39Z</time>
      </trkpt>
      <trkpt lat="43.37527" lon="6.13422">
        <ele>350</ele>
        <time>2017-02-01T15:29:45Z</time>
      </trkpt>
      <trkpt lat="43.3753" lon="6.13414">
        <ele>349.39999389648</ele>
        <time>2017-02-01T15:29:49Z</time>
      </trkpt>
      <trkpt lat="43.37531" lon="6.13412">
        <ele>349.39999389648</ele>
        <time>2017-02-01T15:29:50Z</time>
      </trkpt>
      <trkpt lat="43.37535" lon="6.13391">
        <ele>348.79998779297</ele>
        <time>2017-02-01T15:29:57Z</time>
      </trkpt>
      <trkpt lat="43.37535" lon="6.13386">
        <ele>348.39999389648</ele>
        <time>2017-02-01T15:29:59Z</time>
      </trkpt>
      <trkpt lat="43.37544" lon="6.13368">
        <ele>348</ele>
        <time>2017-02-01T15:30:09Z</time>
      </trkpt>
      <trkpt lat="43.37548" lon="6.13361">
        <ele>347.79998779297</ele>
        <time>2017-02-01T15:30:13Z</time>
      </trkpt>
      <trkpt lat="43.37555" lon="6.13349">
        <ele>347.60000610352</ele>
        <time>2017-02-01T15:30:18Z</time>
      </trkpt>
      <trkpt lat="43.37557" lon="6.13347">
        <ele>347.39999389648</ele>
        <time>2017-02-01T15:30:19Z</time>
      </trkpt>
      <trkpt lat="43.37567" lon="6.13339">
        <ele>347.20001220703</ele>
        <time>2017-02-01T15:30:23Z</time>
      </trkpt>
      <trkpt lat="43.37571" lon="6.13323">
        <ele>348</ele>
        <time>2017-02-01T15:30:29Z</time>
      </trkpt>
      <trkpt lat="43.37571" lon="6.13304">
        <ele>346.60000610352</ele>
        <time>2017-02-01T15:30:33Z</time>
      </trkpt>
      <trkpt lat="43.37572" lon="6.13288">
        <ele>345.39999389648</ele>
        <time>2017-02-01T15:30:36Z</time>
      </trkpt>
      <trkpt lat="43.37573" lon="6.13273">
        <ele>344.20001220703</ele>
        <time>2017-02-01T15:30:39Z</time>
      </trkpt>
      <trkpt lat="43.37577" lon="6.13227">
        <ele>343.39999389648</ele>
        <time>2017-02-01T15:30:49Z</time>
      </trkpt>
      <trkpt lat="43.37577" lon="6.13221">
        <ele>343.20001220703</ele>
        <time>2017-02-01T15:30:50Z</time>
      </trkpt>
      <trkpt lat="43.37581" lon="6.13201">
        <ele>342.79998779297</ele>
        <time>2017-02-01T15:30:53Z</time>
      </trkpt>
      <trkpt lat="43.37589" lon="6.13172">
        <ele>342</ele>
        <time>2017-02-01T15:30:57Z</time>
      </trkpt>
      <trkpt lat="43.37595" lon="6.13158">
        <ele>340.79998779297</ele>
        <time>2017-02-01T15:30:59Z</time>
      </trkpt>
      <trkpt lat="43.37601" lon="6.13144">
        <ele>339.39999389648</ele>
        <time>2017-02-01T15:31:01Z</time>
      </trkpt>
      <trkpt lat="43.37616" lon="6.13117">
        <ele>338.39999389648</ele>
        <time>2017-02-01T15:31:05Z</time>
      </trkpt>
      <trkpt lat="43.37634" lon="6.13091">
        <ele>337.60000610352</ele>
        <time>2017-02-01T15:31:09Z</time>
      </trkpt>
      <trkpt lat="43.37643" lon="6.13077">
        <ele>337.39999389648</ele>
        <time>2017-02-01T15:31:11Z</time>
      </trkpt>
      <trkpt lat="43.37656" lon="6.13056">
        <ele>336.20001220703</ele>
        <time>2017-02-01T15:31:14Z</time>
      </trkpt>
      <trkpt lat="43.37671" lon="6.13029">
        <ele>335.60000610352</ele>
        <time>2017-02-01T15:31:18Z</time>
      </trkpt>
      <trkpt lat="43.37674" lon="6.13022">
        <ele>335.20001220703</ele>
        <time>2017-02-01T15:31:19Z</time>
      </trkpt>
      <trkpt lat="43.37674" lon="6.13016">
        <ele>335</ele>
        <time>2017-02-01T15:31:20Z</time>
      </trkpt>
      <trkpt lat="43.37669" lon="6.12994">
        <ele>334.79998779297</ele>
        <time>2017-02-01T15:31:25Z</time>
      </trkpt>
      <trkpt lat="43.37666" lon="6.12989">
        <ele>334.79998779297</ele>
        <time>2017-02-01T15:31:28Z</time>
      </trkpt>
      <trkpt lat="43.37666" lon="6.12987">
        <ele>334.79998779297</ele>
        <time>2017-02-01T15:31:29Z</time>
      </trkpt>
      <trkpt lat="43.37665" lon="6.12987">
        <ele>334.39999389648</ele>
        <time>2017-02-01T15:31:35Z</time>
      </trkpt>
      <trkpt lat="43.37665" lon="6.12987">
        <ele>334.39999389648</ele>
        <time>2017-02-01T15:31:37Z</time>
      </trkpt>
      <trkpt lat="43.37665" lon="6.12987">
        <ele>334.39999389648</ele>
        <time>2017-02-01T15:31:39Z</time>
      </trkpt>
      <trkpt lat="43.37665" lon="6.12987">
        <ele>334.20001220703</ele>
        <time>2017-02-01T15:31:41Z</time>
      </trkpt>
      <trkpt lat="43.37664" lon="6.12986">
        <ele>334.20001220703</ele>
        <time>2017-02-01T15:31:43Z</time>
      </trkpt>
      <trkpt lat="43.37661" lon="6.12983">
        <ele>334</ele>
        <time>2017-02-01T15:31:45Z</time>
      </trkpt>
      <trkpt lat="43.37655" lon="6.12973">
        <ele>334.20001220703</ele>
        <time>2017-02-01T15:31:49Z</time>
      </trkpt>
      <trkpt lat="43.37654" lon="6.12968">
        <ele>334.20001220703</ele>
        <time>2017-02-01T15:31:51Z</time>
      </trkpt>
      <trkpt lat="43.37656" lon="6.12962">
        <ele>333.60000610352</ele>
        <time>2017-02-01T15:31:55Z</time>
      </trkpt>
      <trkpt lat="43.37661" lon="6.12958">
        <ele>333</ele>
        <time>2017-02-01T15:31:59Z</time>
      </trkpt>
      <trkpt lat="43.37664" lon="6.12958">
        <ele>332.39999389648</ele>
        <time>2017-02-01T15:32:09Z</time>
      </trkpt>
      <trkpt lat="43.37662" lon="6.12958">
        <ele>332.20001220703</ele>
        <time>2017-02-01T15:32:15Z</time>
      </trkpt>
      <trkpt lat="43.37659" lon="6.1296">
        <ele>332.79998779297</ele>
        <time>2017-02-01T15:32:18Z</time>
      </trkpt>
      <trkpt lat="43.37658" lon="6.12962">
        <ele>333.20001220703</ele>
        <time>2017-02-01T15:32:20Z</time>
      </trkpt>
      <trkpt lat="43.37656" lon="6.12976">
        <ele>333.79998779297</ele>
        <time>2017-02-01T15:32:30Z</time>
      </trkpt>
      <trkpt lat="43.37657" lon="6.12979">
        <ele>334</ele>
        <time>2017-02-01T15:32:32Z</time>
      </trkpt>
      <trkpt lat="43.37662" lon="6.12987">
        <ele>334.20001220703</ele>
        <time>2017-02-01T15:32:40Z</time>
      </trkpt>
      <trkpt lat="43.37664" lon="6.12989">
        <ele>334.39999389648</ele>
        <time>2017-02-01T15:32:50Z</time>
      </trkpt>
      <trkpt lat="43.37666" lon="6.12987">
        <ele>334</ele>
        <time>2017-02-01T15:33:00Z</time>
      </trkpt>
      <trkpt lat="43.37668" lon="6.12985">
        <ele>334.39999389648</ele>
        <time>2017-02-01T15:33:10Z</time>
      </trkpt>
      <trkpt lat="43.37673" lon="6.12988">
        <ele>333.60000610352</ele>
        <time>2017-02-01T15:33:19Z</time>
      </trkpt>
      <trkpt lat="43.37675" lon="6.12989">
        <ele>333.60000610352</ele>
        <time>2017-02-01T15:33:20Z</time>
      </trkpt>
      <trkpt lat="43.37677" lon="6.12988">
        <ele>333.60000610352</ele>
        <time>2017-02-01T15:33:22Z</time>
      </trkpt>
      <trkpt lat="43.37684" lon="6.12962">
        <ele>333.39999389648</ele>
        <time>2017-02-01T15:33:30Z</time>
      </trkpt>
      <trkpt lat="43.37696" lon="6.12936">
        <ele>333.39999389648</ele>
        <time>2017-02-01T15:33:41Z</time>
      </trkpt>
      <trkpt lat="43.37704" lon="6.12906">
        <ele>333.39999389648</ele>
        <time>2017-02-01T15:33:51Z</time>
      </trkpt>
      <trkpt lat="43.37711" lon="6.12866">
        <ele>333</ele>
        <time>2017-02-01T15:34:02Z</time>
      </trkpt>
      <trkpt lat="43.37711" lon="6.12862">
        <ele>332.79998779297</ele>
        <time>2017-02-01T15:34:03Z</time>
      </trkpt>
      <trkpt lat="43.37712" lon="6.12822">
        <ele>331.60000610352</ele>
        <time>2017-02-01T15:34:11Z</time>
      </trkpt>
      <trkpt lat="43.37711" lon="6.12814">
        <ele>331.60000610352</ele>
        <time>2017-02-01T15:34:12Z</time>
      </trkpt>
      <trkpt lat="43.37708" lon="6.12791">
        <ele>330.60000610352</ele>
        <time>2017-02-01T15:34:15Z</time>
      </trkpt>
      <trkpt lat="43.37703" lon="6.12731">
        <ele>328.39999389648</ele>
        <time>2017-02-01T15:34:22Z</time>
      </trkpt>
      <trkpt lat="43.37704" lon="6.12704">
        <ele>327.39999389648</ele>
        <time>2017-02-01T15:34:25Z</time>
      </trkpt>
      <trkpt lat="43.37708" lon="6.12645">
        <ele>326.20001220703</ele>
        <time>2017-02-01T15:34:32Z</time>
      </trkpt>
      <trkpt lat="43.37709" lon="6.12613">
        <ele>325.20001220703</ele>
        <time>2017-02-01T15:34:36Z</time>
      </trkpt>
      <trkpt lat="43.37709" lon="6.12598">
        <ele>324.79998779297</ele>
        <time>2017-02-01T15:34:38Z</time>
      </trkpt>
      <trkpt lat="43.37708" lon="6.12574">
        <ele>324</ele>
        <time>2017-02-01T15:34:41Z</time>
      </trkpt>
      <trkpt lat="43.37709" lon="6.12565">
        <ele>323.39999389648</ele>
        <time>2017-02-01T15:34:42Z</time>
      </trkpt>
      <trkpt lat="43.3771" lon="6.12547">
        <ele>322.79998779297</ele>
        <time>2017-02-01T15:34:44Z</time>
      </trkpt>
      <trkpt lat="43.37714" lon="6.12511">
        <ele>322.20001220703</ele>
        <time>2017-02-01T15:34:48Z</time>
      </trkpt>
      <trkpt lat="43.37723" lon="6.1248">
        <ele>322.39999389648</ele>
        <time>2017-02-01T15:34:52Z</time>
      </trkpt>
      <trkpt lat="43.37727" lon="6.12464">
        <ele>322.20001220703</ele>
        <time>2017-02-01T15:34:54Z</time>
      </trkpt>
      <trkpt lat="43.37729" lon="6.12456">
        <ele>321.60000610352</ele>
        <time>2017-02-01T15:34:55Z</time>
      </trkpt>
      <trkpt lat="43.3773" lon="6.12443">
        <ele>320.79998779297</ele>
        <time>2017-02-01T15:34:57Z</time>
      </trkpt>
      <trkpt lat="43.3773" lon="6.12436">
        <ele>320.39999389648</ele>
        <time>2017-02-01T15:34:58Z</time>
      </trkpt>
      <trkpt lat="43.37734" lon="6.12397">
        <ele>319.60000610352</ele>
        <time>2017-02-01T15:35:03Z</time>
      </trkpt>
      <trkpt lat="43.37735" lon="6.12389">
        <ele>319.20001220703</ele>
        <time>2017-02-01T15:35:04Z</time>
      </trkpt>
      <trkpt lat="43.37738" lon="6.12367">
        <ele>318</ele>
        <time>2017-02-01T15:35:07Z</time>
      </trkpt>
      <trkpt lat="43.3774" lon="6.1234">
        <ele>317</ele>
        <time>2017-02-01T15:35:12Z</time>
      </trkpt>
      <trkpt lat="43.37738" lon="6.12335">
        <ele>316.60000610352</ele>
        <time>2017-02-01T15:35:13Z</time>
      </trkpt>
      <trkpt lat="43.37729" lon="6.12322">
        <ele>315.79998779297</ele>
        <time>2017-02-01T15:35:16Z</time>
      </trkpt>
      <trkpt lat="43.37728" lon="6.12309">
        <ele>315.20001220703</ele>
        <time>2017-02-01T15:35:18Z</time>
      </trkpt>
      <trkpt lat="43.3773" lon="6.12298">
        <ele>314.79998779297</ele>
        <time>2017-02-01T15:35:20Z</time>
      </trkpt>
      <trkpt lat="43.37734" lon="6.12288">
        <ele>314.60000610352</ele>
        <time>2017-02-01T15:35:22Z</time>
      </trkpt>
      <trkpt lat="43.37762" lon="6.12247">
        <ele>313.39999389648</ele>
        <time>2017-02-01T15:35:30Z</time>
      </trkpt>
      <trkpt lat="43.37771" lon="6.12236">
        <ele>312.20001220703</ele>
        <time>2017-02-01T15:35:32Z</time>
      </trkpt>
      <trkpt lat="43.37774" lon="6.12229">
        <ele>312</ele>
        <time>2017-02-01T15:35:33Z</time>
      </trkpt>
      <trkpt lat="43.37789" lon="6.12193">
        <ele>312</ele>
        <time>2017-02-01T15:35:39Z</time>
      </trkpt>
      <trkpt lat="43.37796" lon="6.12166">
        <ele>311.79998779297</ele>
        <time>2017-02-01T15:35:43Z</time>
      </trkpt>
      <trkpt lat="43.37806" lon="6.12127">
        <ele>311.20001220703</ele>
        <time>2017-02-01T15:35:48Z</time>
      </trkpt>
      <trkpt lat="43.37814" lon="6.12103">
        <ele>310</ele>
        <time>2017-02-01T15:35:51Z</time>
      </trkpt>
      <trkpt lat="43.37822" lon="6.12061">
        <ele>308.20001220703</ele>
        <time>2017-02-01T15:35:56Z</time>
      </trkpt>
      <trkpt lat="43.37828" lon="6.12035">
        <ele>307.39999389648</ele>
        <time>2017-02-01T15:35:59Z</time>
      </trkpt>
      <trkpt lat="43.37829" lon="6.12027">
        <ele>307.20001220703</ele>
        <time>2017-02-01T15:36:00Z</time>
      </trkpt>
      <trkpt lat="43.37837" lon="6.11993">
        <ele>306.39999389648</ele>
        <time>2017-02-01T15:36:04Z</time>
      </trkpt>
      <trkpt lat="43.37841" lon="6.11976">
        <ele>305.79998779297</ele>
        <time>2017-02-01T15:36:06Z</time>
      </trkpt>
      <trkpt lat="43.37848" lon="6.11955">
        <ele>305</ele>
        <time>2017-02-01T15:36:09Z</time>
      </trkpt>
      <trkpt lat="43.3785" lon="6.11942">
        <ele>304</ele>
        <time>2017-02-01T15:36:11Z</time>
      </trkpt>
      <trkpt lat="43.37849" lon="6.11926">
        <ele>303.39999389648</ele>
        <time>2017-02-01T15:36:13Z</time>
      </trkpt>
      <trkpt lat="43.37847" lon="6.1191">
        <ele>302.79998779297</ele>
        <time>2017-02-01T15:36:15Z</time>
      </trkpt>
      <trkpt lat="43.37842" lon="6.11885">
        <ele>301.60000610352</ele>
        <time>2017-02-01T15:36:18Z</time>
      </trkpt>
      <trkpt lat="43.37835" lon="6.11862">
        <ele>300.20001220703</ele>
        <time>2017-02-01T15:36:21Z</time>
      </trkpt>
      <trkpt lat="43.37833" lon="6.11848">
        <ele>299.39999389648</ele>
        <time>2017-02-01T15:36:23Z</time>
      </trkpt>
      <trkpt lat="43.37834" lon="6.11834">
        <ele>299.20001220703</ele>
        <time>2017-02-01T15:36:25Z</time>
      </trkpt>
      <trkpt lat="43.37837" lon="6.11821">
        <ele>299.20001220703</ele>
        <time>2017-02-01T15:36:27Z</time>
      </trkpt>
      <trkpt lat="43.37854" lon="6.11788">
        <ele>297.79998779297</ele>
        <time>2017-02-01T15:36:32Z</time>
      </trkpt>
      <trkpt lat="43.37857" lon="6.11781">
        <ele>297.39999389648</ele>
        <time>2017-02-01T15:36:33Z</time>
      </trkpt>
      <trkpt lat="43.37862" lon="6.11765">
        <ele>297</ele>
        <time>2017-02-01T15:36:35Z</time>
      </trkpt>
      <trkpt lat="43.37872" lon="6.11717">
        <ele>296</ele>
        <time>2017-02-01T15:36:41Z</time>
      </trkpt>
      <trkpt lat="43.37876" lon="6.11699">
        <ele>295</ele>
        <time>2017-02-01T15:36:43Z</time>
      </trkpt>
      <trkpt lat="43.37882" lon="6.11659">
        <ele>293.79998779297</ele>
        <time>2017-02-01T15:36:47Z</time>
      </trkpt>
      <trkpt lat="43.37888" lon="6.1163">
        <ele>292.60000610352</ele>
        <time>2017-02-01T15:36:50Z</time>
      </trkpt>
      <trkpt lat="43.37895" lon="6.11601">
        <ele>292</ele>
        <time>2017-02-01T15:36:53Z</time>
      </trkpt>
      <trkpt lat="43.37905" lon="6.11555">
        <ele>291.60000610352</ele>
        <time>2017-02-01T15:36:58Z</time>
      </trkpt>
      <trkpt lat="43.37913" lon="6.11511">
        <ele>290.60000610352</ele>
        <time>2017-02-01T15:37:03Z</time>
      </trkpt>
      <trkpt lat="43.37915" lon="6.11503">
        <ele>290.39999389648</ele>
        <time>2017-02-01T15:37:04Z</time>
      </trkpt>
      <trkpt lat="43.37922" lon="6.11463">
        <ele>289.20001220703</ele>
        <time>2017-02-01T15:37:09Z</time>
      </trkpt>
      <trkpt lat="43.37931" lon="6.11433">
        <ele>288.20001220703</ele>
        <time>2017-02-01T15:37:13Z</time>
      </trkpt>
      <trkpt lat="43.37933" lon="6.11427">
        <ele>287.79998779297</ele>
        <time>2017-02-01T15:37:14Z</time>
      </trkpt>
      <trkpt lat="43.37935" lon="6.11422">
        <ele>287.60000610352</ele>
        <time>2017-02-01T15:37:15Z</time>
      </trkpt>
      <trkpt lat="43.3794" lon="6.11411">
        <ele>287</ele>
        <time>2017-02-01T15:37:17Z</time>
      </trkpt>
      <trkpt lat="43.37943" lon="6.11406">
        <ele>286.79998779297</ele>
        <time>2017-02-01T15:37:18Z</time>
      </trkpt>
      <trkpt lat="43.37946" lon="6.11401">
        <ele>286.60000610352</ele>
        <time>2017-02-01T15:37:19Z</time>
      </trkpt>
      <trkpt lat="43.37962" lon="6.11383">
        <ele>286.20001220703</ele>
        <time>2017-02-01T15:37:23Z</time>
      </trkpt>
      <trkpt lat="43.3797" lon="6.11375">
        <ele>286.20001220703</ele>
        <time>2017-02-01T15:37:25Z</time>
      </trkpt>
      <trkpt lat="43.37986" lon="6.11354">
        <ele>286</ele>
        <time>2017-02-01T15:37:30Z</time>
      </trkpt>
      <trkpt lat="43.37988" lon="6.1135">
        <ele>285.79998779297</ele>
        <time>2017-02-01T15:37:31Z</time>
      </trkpt>
      <trkpt lat="43.37992" lon="6.11344">
        <ele>285.60000610352</ele>
        <time>2017-02-01T15:37:33Z</time>
      </trkpt>
      <trkpt lat="43.38" lon="6.11334">
        <ele>286.39999389648</ele>
        <time>2017-02-01T15:37:43Z</time>
      </trkpt>
      <trkpt lat="43.38" lon="6.11333">
        <ele>286.39999389648</ele>
        <time>2017-02-01T15:37:53Z</time>
      </trkpt>
      <trkpt lat="43.38" lon="6.11332">
        <ele>286.39999389648</ele>
        <time>2017-02-01T15:38:03Z</time>
      </trkpt>
      <trkpt lat="43.38" lon="6.11332">
        <ele>286.20001220703</ele>
        <time>2017-02-01T15:38:09Z</time>
      </trkpt>
      <trkpt lat="43.38" lon="6.11331">
        <ele>286.20001220703</ele>
        <time>2017-02-01T15:38:13Z</time>
      </trkpt>
      <trkpt lat="43.38002" lon="6.11325">
        <ele>286.20001220703</ele>
        <time>2017-02-01T15:38:16Z</time>
      </trkpt>
      <trkpt lat="43.38007" lon="6.11312">
        <ele>286</ele>
        <time>2017-02-01T15:38:20Z</time>
      </trkpt>
      <trkpt lat="43.38012" lon="6.113">
        <ele>285.79998779297</ele>
        <time>2017-02-01T15:38:23Z</time>
      </trkpt>
      <trkpt lat="43.38033" lon="6.11252">
        <ele>285.79998779297</ele>
        <time>2017-02-01T15:38:33Z</time>
      </trkpt>
      <trkpt lat="43.38043" lon="6.11231">
        <ele>285.60000610352</ele>
        <time>2017-02-01T15:38:37Z</time>
      </trkpt>
      <trkpt lat="43.38053" lon="6.11212">
        <ele>285.79998779297</ele>
        <time>2017-02-01T15:38:41Z</time>
      </trkpt>
      <trkpt lat="43.38058" lon="6.11204">
        <ele>286</ele>
        <time>2017-02-01T15:38:43Z</time>
      </trkpt>
      <trkpt lat="43.38097" lon="6.11163">
        <ele>285.39999389648</ele>
        <time>2017-02-01T15:38:53Z</time>
      </trkpt>
      <trkpt lat="43.38108" lon="6.11152">
        <ele>284.20001220703</ele>
        <time>2017-02-01T15:38:55Z</time>
      </trkpt>
      <trkpt lat="43.38121" lon="6.1114">
        <ele>283.20001220703</ele>
        <time>2017-02-01T15:38:57Z</time>
      </trkpt>
      <trkpt lat="43.38133" lon="6.11128">
        <ele>282</ele>
        <time>2017-02-01T15:38:59Z</time>
      </trkpt>
      <trkpt lat="43.38149" lon="6.11105">
        <ele>281</ele>
        <time>2017-02-01T15:39:02Z</time>
      </trkpt>
      <trkpt lat="43.38153" lon="6.11096">
        <ele>280.79998779297</ele>
        <time>2017-02-01T15:39:03Z</time>
      </trkpt>
      <trkpt lat="43.38173" lon="6.11033">
        <ele>279.60000610352</ele>
        <time>2017-02-01T15:39:10Z</time>
      </trkpt>
      <trkpt lat="43.38176" lon="6.11018">
        <ele>279.20001220703</ele>
        <time>2017-02-01T15:39:12Z</time>
      </trkpt>
      <trkpt lat="43.38177" lon="6.11011">
        <ele>279</ele>
        <time>2017-02-01T15:39:13Z</time>
      </trkpt>
      <trkpt lat="43.38178" lon="6.11003">
        <ele>278.60000610352</ele>
        <time>2017-02-01T15:39:14Z</time>
      </trkpt>
      <trkpt lat="43.38183" lon="6.10978">
        <ele>277.60000610352</ele>
        <time>2017-02-01T15:39:17Z</time>
      </trkpt>
      <trkpt lat="43.38191" lon="6.10943">
        <ele>276.39999389648</ele>
        <time>2017-02-01T15:39:21Z</time>
      </trkpt>
      <trkpt lat="43.38194" lon="6.10927">
        <ele>276</ele>
        <time>2017-02-01T15:39:23Z</time>
      </trkpt>
      <trkpt lat="43.38199" lon="6.10895">
        <ele>275.60000610352</ele>
        <time>2017-02-01T15:39:27Z</time>
      </trkpt>
      <trkpt lat="43.38201" lon="6.10889">
        <ele>275.39999389648</ele>
        <time>2017-02-01T15:39:28Z</time>
      </trkpt>
      <trkpt lat="43.38203" lon="6.10886">
        <ele>275.20001220703</ele>
        <time>2017-02-01T15:39:29Z</time>
      </trkpt>
      <trkpt lat="43.38221" lon="6.10891">
        <ele>274.39999389648</ele>
        <time>2017-02-01T15:39:33Z</time>
      </trkpt>
      <trkpt lat="43.38237" lon="6.10898">
        <ele>274.39999389648</ele>
        <time>2017-02-01T15:39:36Z</time>
      </trkpt>
      <trkpt lat="43.38243" lon="6.109">
        <ele>274.39999389648</ele>
        <time>2017-02-01T15:39:37Z</time>
      </trkpt>
      <trkpt lat="43.3826" lon="6.10906">
        <ele>274.39999389648</ele>
        <time>2017-02-01T15:39:40Z</time>
      </trkpt>
      <trkpt lat="43.38304" lon="6.10919">
        <ele>274.60000610352</ele>
        <time>2017-02-01T15:39:48Z</time>
      </trkpt>
      <trkpt lat="43.38325" lon="6.10927">
        <ele>274.79998779297</ele>
        <time>2017-02-01T15:39:52Z</time>
      </trkpt>
      <trkpt lat="43.3835" lon="6.10937">
        <ele>275.20001220703</ele>
        <time>2017-02-01T15:39:57Z</time>
      </trkpt>
      <trkpt lat="43.38379" lon="6.10945">
        <ele>275.60000610352</ele>
        <time>2017-02-01T15:40:03Z</time>
      </trkpt>
      <trkpt lat="43.38403" lon="6.10951">
        <ele>276.39999389648</ele>
        <time>2017-02-01T15:40:08Z</time>
      </trkpt>
      <trkpt lat="43.38409" lon="6.10953">
        <ele>276.39999389648</ele>
        <time>2017-02-01T15:40:09Z</time>
      </trkpt>
      <trkpt lat="43.38414" lon="6.10954">
        <ele>276.60000610352</ele>
        <time>2017-02-01T15:40:10Z</time>
      </trkpt>
      <trkpt lat="43.38424" lon="6.10956">
        <ele>276.79998779297</ele>
        <time>2017-02-01T15:40:12Z</time>
      </trkpt>
      <trkpt lat="43.38428" lon="6.10957">
        <ele>276.79998779297</ele>
        <time>2017-02-01T15:40:13Z</time>
      </trkpt>
      <trkpt lat="43.38446" lon="6.1096">
        <ele>277.60000610352</ele>
        <time>2017-02-01T15:40:17Z</time>
      </trkpt>
      <trkpt lat="43.38451" lon="6.10961">
        <ele>277.79998779297</ele>
        <time>2017-02-01T15:40:18Z</time>
      </trkpt>
      <trkpt lat="43.38454" lon="6.10962">
        <ele>278</ele>
        <time>2017-02-01T15:40:19Z</time>
      </trkpt>
      <trkpt lat="43.38461" lon="6.10963">
        <ele>278</ele>
        <time>2017-02-01T15:40:21Z</time>
      </trkpt>
      <trkpt lat="43.38467" lon="6.10963">
        <ele>278.20001220703</ele>
        <time>2017-02-01T15:40:23Z</time>
      </trkpt>
      <trkpt lat="43.38469" lon="6.10963">
        <ele>278.39999389648</ele>
        <time>2017-02-01T15:40:24Z</time>
      </trkpt>
      <trkpt lat="43.38474" lon="6.10963">
        <ele>278.60000610352</ele>
        <time>2017-02-01T15:40:26Z</time>
      </trkpt>
      <trkpt lat="43.38478" lon="6.10963">
        <ele>278.79998779297</ele>
        <time>2017-02-01T15:40:28Z</time>
      </trkpt>
      <trkpt lat="43.38482" lon="6.10964">
        <ele>279</ele>
        <time>2017-02-01T15:40:30Z</time>
      </trkpt>
      <trkpt lat="43.38496" lon="6.10968">
        <ele>279.79998779297</ele>
        <time>2017-02-01T15:40:36Z</time>
      </trkpt>
      <trkpt lat="43.38505" lon="6.1097">
        <ele>280.60000610352</ele>
        <time>2017-02-01T15:40:39Z</time>
      </trkpt>
      <trkpt lat="43.38511" lon="6.10971">
        <ele>281</ele>
        <time>2017-02-01T15:40:41Z</time>
      </trkpt>
      <trkpt lat="43.38517" lon="6.10972">
        <ele>281.79998779297</ele>
        <time>2017-02-01T15:40:43Z</time>
      </trkpt>
      <trkpt lat="43.3852" lon="6.10973">
        <ele>282</ele>
        <time>2017-02-01T15:40:44Z</time>
      </trkpt>
      <trkpt lat="43.38522" lon="6.10974">
        <ele>282.39999389648</ele>
        <time>2017-02-01T15:40:45Z</time>
      </trkpt>
      <trkpt lat="43.38525" lon="6.10975">
        <ele>282.79998779297</ele>
        <time>2017-02-01T15:40:46Z</time>
      </trkpt>
      <trkpt lat="43.38526" lon="6.10976">
        <ele>283.20001220703</ele>
        <time>2017-02-01T15:40:47Z</time>
      </trkpt>
      <trkpt lat="43.38536" lon="6.10979">
        <ele>284.20001220703</ele>
        <time>2017-02-01T15:40:52Z</time>
      </trkpt>
      <trkpt lat="43.38544" lon="6.10983">
        <ele>284.39999389648</ele>
        <time>2017-02-01T15:40:56Z</time>
      </trkpt>
      <trkpt lat="43.38553" lon="6.10988">
        <ele>284.60000610352</ele>
        <time>2017-02-01T15:41:00Z</time>
      </trkpt>
      <trkpt lat="43.38557" lon="6.1099">
        <ele>284.79998779297</ele>
        <time>2017-02-01T15:41:02Z</time>
      </trkpt>
      <trkpt lat="43.38559" lon="6.10991">
        <ele>285</ele>
        <time>2017-02-01T15:41:03Z</time>
      </trkpt>
      <trkpt lat="43.38564" lon="6.10991">
        <ele>285.20001220703</ele>
        <time>2017-02-01T15:41:05Z</time>
      </trkpt>
      <trkpt lat="43.38578" lon="6.10991">
        <ele>286.39999389648</ele>
        <time>2017-02-01T15:41:12Z</time>
      </trkpt>
      <trkpt lat="43.3858" lon="6.1099">
        <ele>286.60000610352</ele>
        <time>2017-02-01T15:41:13Z</time>
      </trkpt>
      <trkpt lat="43.38584" lon="6.1099">
        <ele>287</ele>
        <time>2017-02-01T15:41:15Z</time>
      </trkpt>
      <trkpt lat="43.38588" lon="6.1099">
        <ele>287.20001220703</ele>
        <time>2017-02-01T15:41:17Z</time>
      </trkpt>
      <trkpt lat="43.38589" lon="6.10989">
        <ele>287.39999389648</ele>
        <time>2017-02-01T15:41:18Z</time>
      </trkpt>
      <trkpt lat="43.38597" lon="6.10988">
        <ele>287.79998779297</ele>
        <time>2017-02-01T15:41:22Z</time>
      </trkpt>
      <trkpt lat="43.38599" lon="6.10988">
        <ele>287.79998779297</ele>
        <time>2017-02-01T15:41:23Z</time>
      </trkpt>
      <trkpt lat="43.38616" lon="6.10995">
        <ele>288.39999389648</ele>
        <time>2017-02-01T15:41:31Z</time>
      </trkpt>
      <trkpt lat="43.3862" lon="6.10998">
        <ele>288.39999389648</ele>
        <time>2017-02-01T15:41:33Z</time>
      </trkpt>
      <trkpt lat="43.38627" lon="6.11005">
        <ele>288</ele>
        <time>2017-02-01T15:41:37Z</time>
      </trkpt>
      <trkpt lat="43.38634" lon="6.11009">
        <ele>287.79998779297</ele>
        <time>2017-02-01T15:41:40Z</time>
      </trkpt>
      <trkpt lat="43.38641" lon="6.11004">
        <ele>287.20001220703</ele>
        <time>2017-02-01T15:41:43Z</time>
      </trkpt>
      <trkpt lat="43.38644" lon="6.11003">
        <ele>286.79998779297</ele>
        <time>2017-02-01T15:41:44Z</time>
      </trkpt>
      <trkpt lat="43.38654" lon="6.11004">
        <ele>286</ele>
        <time>2017-02-01T15:41:47Z</time>
      </trkpt>
      <trkpt lat="43.38658" lon="6.11003">
        <ele>285.39999389648</ele>
        <time>2017-02-01T15:41:48Z</time>
      </trkpt>
      <trkpt lat="43.3866" lon="6.11">
        <ele>284.79998779297</ele>
        <time>2017-02-01T15:41:49Z</time>
      </trkpt>
      <trkpt lat="43.38661" lon="6.10996">
        <ele>284.60000610352</ele>
        <time>2017-02-01T15:41:50Z</time>
      </trkpt>
      <trkpt lat="43.38662" lon="6.10984">
        <ele>284.60000610352</ele>
        <time>2017-02-01T15:41:53Z</time>
      </trkpt>
      <trkpt lat="43.3867" lon="6.10939">
        <ele>283.79998779297</ele>
        <time>2017-02-01T15:42:03Z</time>
      </trkpt>
      <trkpt lat="43.38672" lon="6.10929">
        <ele>283.79998779297</ele>
        <time>2017-02-01T15:42:05Z</time>
      </trkpt>
      <trkpt lat="43.38682" lon="6.10894">
        <ele>284</ele>
        <time>2017-02-01T15:42:13Z</time>
      </trkpt>
      <trkpt lat="43.38688" lon="6.10869">
        <ele>283.39999389648</ele>
        <time>2017-02-01T15:42:20Z</time>
      </trkpt>
      <trkpt lat="43.38689" lon="6.10861">
        <ele>283.39999389648</ele>
        <time>2017-02-01T15:42:23Z</time>
      </trkpt>
      <trkpt lat="43.38696" lon="6.10829">
        <ele>284.79998779297</ele>
        <time>2017-02-01T15:42:33Z</time>
      </trkpt>
      <trkpt lat="43.38726" lon="6.10799">
        <ele>282.79998779297</ele>
        <time>2017-02-01T15:42:44Z</time>
      </trkpt>
      <trkpt lat="43.3873" lon="6.10795">
        <ele>282.60000610352</ele>
        <time>2017-02-01T15:42:45Z</time>
      </trkpt>
      <trkpt lat="43.38739" lon="6.10773">
        <ele>283.39999389648</ele>
        <time>2017-02-01T15:42:51Z</time>
      </trkpt>
      <trkpt lat="43.38744" lon="6.1077">
        <ele>283.39999389648</ele>
        <time>2017-02-01T15:42:53Z</time>
      </trkpt>
      <trkpt lat="43.38771" lon="6.10759">
        <ele>281.60000610352</ele>
        <time>2017-02-01T15:43:03Z</time>
      </trkpt>
      <trkpt lat="43.38773" lon="6.10759">
        <ele>281.39999389648</ele>
        <time>2017-02-01T15:43:04Z</time>
      </trkpt>
      <trkpt lat="43.38789" lon="6.10759">
        <ele>280.39999389648</ele>
        <time>2017-02-01T15:43:08Z</time>
      </trkpt>
      <trkpt lat="43.38811" lon="6.10759">
        <ele>279.20001220703</ele>
        <time>2017-02-01T15:43:12Z</time>
      </trkpt>
      <trkpt lat="43.38816" lon="6.10759">
        <ele>278.79998779297</ele>
        <time>2017-02-01T15:43:13Z</time>
      </trkpt>
      <trkpt lat="43.38827" lon="6.10758">
        <ele>278.60000610352</ele>
        <time>2017-02-01T15:43:15Z</time>
      </trkpt>
      <trkpt lat="43.38843" lon="6.10757">
        <ele>278</ele>
        <time>2017-02-01T15:43:18Z</time>
      </trkpt>
      <trkpt lat="43.38869" lon="6.10756">
        <ele>277.20001220703</ele>
        <time>2017-02-01T15:43:23Z</time>
      </trkpt>
      <trkpt lat="43.38886" lon="6.1076">
        <ele>276.79998779297</ele>
        <time>2017-02-01T15:43:26Z</time>
      </trkpt>
      <trkpt lat="43.38908" lon="6.10767">
        <ele>276</ele>
        <time>2017-02-01T15:43:30Z</time>
      </trkpt>
      <trkpt lat="43.38912" lon="6.10772">
        <ele>275.79998779297</ele>
        <time>2017-02-01T15:43:31Z</time>
      </trkpt>
      <trkpt lat="43.38918" lon="6.10784">
        <ele>275.79998779297</ele>
        <time>2017-02-01T15:43:33Z</time>
      </trkpt>
      <trkpt lat="43.38927" lon="6.10811">
        <ele>275.60000610352</ele>
        <time>2017-02-01T15:43:37Z</time>
      </trkpt>
      <trkpt lat="43.38935" lon="6.10822">
        <ele>275.79998779297</ele>
        <time>2017-02-01T15:43:39Z</time>
      </trkpt>
      <trkpt lat="43.38956" lon="6.10834">
        <ele>275.39999389648</ele>
        <time>2017-02-01T15:43:43Z</time>
      </trkpt>
      <trkpt lat="43.38993" lon="6.10847">
        <ele>274.79998779297</ele>
        <time>2017-02-01T15:43:50Z</time>
      </trkpt>
      <trkpt lat="43.38998" lon="6.10847">
        <ele>274.79998779297</ele>
        <time>2017-02-01T15:43:51Z</time>
      </trkpt>
      <trkpt lat="43.39008" lon="6.10843">
        <ele>275</ele>
        <time>2017-02-01T15:43:53Z</time>
      </trkpt>
      <trkpt lat="43.39019" lon="6.10837">
        <ele>275</ele>
        <time>2017-02-01T15:43:55Z</time>
      </trkpt>
      <trkpt lat="43.39037" lon="6.1083">
        <ele>274.60000610352</ele>
        <time>2017-02-01T15:43:58Z</time>
      </trkpt>
      <trkpt lat="43.39063" lon="6.1082">
        <ele>273.39999389648</ele>
        <time>2017-02-01T15:44:02Z</time>
      </trkpt>
      <trkpt lat="43.39069" lon="6.10817">
        <ele>273.39999389648</ele>
        <time>2017-02-01T15:44:03Z</time>
      </trkpt>
      <trkpt lat="43.39079" lon="6.10808">
        <ele>274</ele>
        <time>2017-02-01T15:44:05Z</time>
      </trkpt>
      <trkpt lat="43.39092" lon="6.1079">
        <ele>274.20001220703</ele>
        <time>2017-02-01T15:44:08Z</time>
      </trkpt>
      <trkpt lat="43.39102" lon="6.1078">
        <ele>273.79998779297</ele>
        <time>2017-02-01T15:44:10Z</time>
      </trkpt>
      <trkpt lat="43.3912" lon="6.10767">
        <ele>272.79998779297</ele>
        <time>2017-02-01T15:44:13Z</time>
      </trkpt>
      <trkpt lat="43.39144" lon="6.10751">
        <ele>271.60000610352</ele>
        <time>2017-02-01T15:44:17Z</time>
      </trkpt>
      <trkpt lat="43.39156" lon="6.1074">
        <ele>271</ele>
        <time>2017-02-01T15:44:19Z</time>
      </trkpt>
      <trkpt lat="43.39164" lon="6.10724">
        <ele>270.60000610352</ele>
        <time>2017-02-01T15:44:21Z</time>
      </trkpt>
      <trkpt lat="43.39168" lon="6.10707">
        <ele>270</ele>
        <time>2017-02-01T15:44:23Z</time>
      </trkpt>
      <trkpt lat="43.3917" lon="6.107">
        <ele>269.60000610352</ele>
        <time>2017-02-01T15:44:24Z</time>
      </trkpt>
      <trkpt lat="43.39172" lon="6.10691">
        <ele>269.39999389648</ele>
        <time>2017-02-01T15:44:26Z</time>
      </trkpt>
      <trkpt lat="43.39183" lon="6.10677">
        <ele>269.79998779297</ele>
        <time>2017-02-01T15:44:31Z</time>
      </trkpt>
      <trkpt lat="43.39185" lon="6.1067">
        <ele>269.60000610352</ele>
        <time>2017-02-01T15:44:33Z</time>
      </trkpt>
      <trkpt lat="43.39206" lon="6.10638">
        <ele>269.79998779297</ele>
        <time>2017-02-01T15:44:43Z</time>
      </trkpt>
      <trkpt lat="43.39214" lon="6.10629">
        <ele>269.79998779297</ele>
        <time>2017-02-01T15:44:46Z</time>
      </trkpt>
      <trkpt lat="43.39236" lon="6.10606">
        <ele>270</ele>
        <time>2017-02-01T15:44:53Z</time>
      </trkpt>
      <trkpt lat="43.39252" lon="6.10592">
        <ele>270.20001220703</ele>
        <time>2017-02-01T15:44:58Z</time>
      </trkpt>
      <trkpt lat="43.39264" lon="6.10569">
        <ele>269.79998779297</ele>
        <time>2017-02-01T15:45:03Z</time>
      </trkpt>
      <trkpt lat="43.39284" lon="6.10519">
        <ele>269.79998779297</ele>
        <time>2017-02-01T15:45:13Z</time>
      </trkpt>
      <trkpt lat="43.39296" lon="6.10491">
        <ele>268.60000610352</ele>
        <time>2017-02-01T15:45:18Z</time>
      </trkpt>
      <trkpt lat="43.39305" lon="6.10473">
        <ele>267.79998779297</ele>
        <time>2017-02-01T15:45:21Z</time>
      </trkpt>
      <trkpt lat="43.39311" lon="6.1046">
        <ele>267.39999389648</ele>
        <time>2017-02-01T15:45:23Z</time>
      </trkpt>
      <trkpt lat="43.39314" lon="6.10454">
        <ele>267</ele>
        <time>2017-02-01T15:45:24Z</time>
      </trkpt>
      <trkpt lat="43.3932" lon="6.10448">
        <ele>266.60000610352</ele>
        <time>2017-02-01T15:45:26Z</time>
      </trkpt>
      <trkpt lat="43.39323" lon="6.10445">
        <ele>266.20001220703</ele>
        <time>2017-02-01T15:45:28Z</time>
      </trkpt>
      <trkpt lat="43.39334" lon="6.10429">
        <ele>266</ele>
        <time>2017-02-01T15:45:33Z</time>
      </trkpt>
      <trkpt lat="43.3934" lon="6.10422">
        <ele>265.79998779297</ele>
        <time>2017-02-01T15:45:35Z</time>
      </trkpt>
      <trkpt lat="43.39348" lon="6.10419">
        <ele>265.79998779297</ele>
        <time>2017-02-01T15:45:37Z</time>
      </trkpt>
      <trkpt lat="43.39352" lon="6.10419">
        <ele>265.60000610352</ele>
        <time>2017-02-01T15:45:38Z</time>
      </trkpt>
      <trkpt lat="43.39357" lon="6.10419">
        <ele>265.39999389648</ele>
        <time>2017-02-01T15:45:39Z</time>
      </trkpt>
      <trkpt lat="43.39365" lon="6.10415">
        <ele>264.79998779297</ele>
        <time>2017-02-01T15:45:41Z</time>
      </trkpt>
      <trkpt lat="43.39368" lon="6.10411">
        <ele>264.39999389648</ele>
        <time>2017-02-01T15:45:42Z</time>
      </trkpt>
      <trkpt lat="43.3937" lon="6.10406">
        <ele>264.20001220703</ele>
        <time>2017-02-01T15:45:43Z</time>
      </trkpt>
      <trkpt lat="43.39377" lon="6.10383">
        <ele>263.39999389648</ele>
        <time>2017-02-01T15:45:48Z</time>
      </trkpt>
      <trkpt lat="43.39388" lon="6.10357">
        <ele>262.79998779297</ele>
        <time>2017-02-01T15:45:53Z</time>
      </trkpt>
      <trkpt lat="43.39403" lon="6.1033">
        <ele>262.60000610352</ele>
        <time>2017-02-01T15:46:02Z</time>
      </trkpt>
      <trkpt lat="43.39404" lon="6.10328">
        <ele>262.60000610352</ele>
        <time>2017-02-01T15:46:03Z</time>
      </trkpt>
      <trkpt lat="43.39405" lon="6.10324">
        <ele>262.60000610352</ele>
        <time>2017-02-01T15:46:05Z</time>
      </trkpt>
      <trkpt lat="43.39409" lon="6.10319">
        <ele>262.39999389648</ele>
        <time>2017-02-01T15:46:09Z</time>
      </trkpt>
      <trkpt lat="43.39416" lon="6.10312">
        <ele>262.60000610352</ele>
        <time>2017-02-01T15:46:13Z</time>
      </trkpt>
      <trkpt lat="43.39439" lon="6.10293">
        <ele>262.39999389648</ele>
        <time>2017-02-01T15:46:23Z</time>
      </trkpt>
      <trkpt lat="43.39458" lon="6.10276">
        <ele>261.20001220703</ele>
        <time>2017-02-01T15:46:30Z</time>
      </trkpt>
      <trkpt lat="43.39466" lon="6.10269">
        <ele>260.60000610352</ele>
        <time>2017-02-01T15:46:32Z</time>
      </trkpt>
      <trkpt lat="43.39473" lon="6.10262">
        <ele>260.20001220703</ele>
        <time>2017-02-01T15:46:34Z</time>
      </trkpt>
      <trkpt lat="43.39487" lon="6.10243">
        <ele>258.60000610352</ele>
        <time>2017-02-01T15:46:38Z</time>
      </trkpt>
      <trkpt lat="43.39493" lon="6.1023">
        <ele>257.60000610352</ele>
        <time>2017-02-01T15:46:40Z</time>
      </trkpt>
      <trkpt lat="43.39495" lon="6.10223">
        <ele>257.39999389648</ele>
        <time>2017-02-01T15:46:41Z</time>
      </trkpt>
      <trkpt lat="43.395" lon="6.1021">
        <ele>256.79998779297</ele>
        <time>2017-02-01T15:46:43Z</time>
      </trkpt>
      <trkpt lat="43.39508" lon="6.10178">
        <ele>256.60000610352</ele>
        <time>2017-02-01T15:46:48Z</time>
      </trkpt>
      <trkpt lat="43.39513" lon="6.10159">
        <ele>256.39999389648</ele>
        <time>2017-02-01T15:46:51Z</time>
      </trkpt>
      <trkpt lat="43.39517" lon="6.10146">
        <ele>256</ele>
        <time>2017-02-01T15:46:53Z</time>
      </trkpt>
      <trkpt lat="43.3953" lon="6.10105">
        <ele>255.19999694824</ele>
        <time>2017-02-01T15:47:00Z</time>
      </trkpt>
      <trkpt lat="43.39539" lon="6.10091">
        <ele>254.19999694824</ele>
        <time>2017-02-01T15:47:03Z</time>
      </trkpt>
      <trkpt lat="43.39541" lon="6.10086">
        <ele>253.80000305176</ele>
        <time>2017-02-01T15:47:04Z</time>
      </trkpt>
      <trkpt lat="43.39556" lon="6.10033">
        <ele>253.19999694824</ele>
        <time>2017-02-01T15:47:13Z</time>
      </trkpt>
      <trkpt lat="43.39558" lon="6.10026">
        <ele>252.80000305176</ele>
        <time>2017-02-01T15:47:15Z</time>
      </trkpt>
      <trkpt lat="43.39558" lon="6.1002">
        <ele>253</ele>
        <time>2017-02-01T15:47:17Z</time>
      </trkpt>
      <trkpt lat="43.39552" lon="6.10008">
        <ele>253.19999694824</ele>
        <time>2017-02-01T15:47:22Z</time>
      </trkpt>
      <trkpt lat="43.39552" lon="6.10001">
        <ele>253</ele>
        <time>2017-02-01T15:47:25Z</time>
      </trkpt>
      <trkpt lat="43.39554" lon="6.0998">
        <ele>253</ele>
        <time>2017-02-01T15:47:33Z</time>
      </trkpt>
      <trkpt lat="43.39555" lon="6.09964">
        <ele>253.39999389648</ele>
        <time>2017-02-01T15:47:38Z</time>
      </trkpt>
      <trkpt lat="43.39555" lon="6.09946">
        <ele>253.80000305176</ele>
        <time>2017-02-01T15:47:43Z</time>
      </trkpt>
      <trkpt lat="43.39552" lon="6.09938">
        <ele>254.39999389648</ele>
        <time>2017-02-01T15:47:45Z</time>
      </trkpt>
      <trkpt lat="43.39551" lon="6.09935">
        <ele>254.80000305176</ele>
        <time>2017-02-01T15:47:46Z</time>
      </trkpt>
      <trkpt lat="43.39548" lon="6.09929">
        <ele>255.80000305176</ele>
        <time>2017-02-01T15:47:48Z</time>
      </trkpt>
      <trkpt lat="43.39547" lon="6.09927">
        <ele>256.20001220703</ele>
        <time>2017-02-01T15:47:49Z</time>
      </trkpt>
      <trkpt lat="43.39545" lon="6.09924">
        <ele>256.39999389648</ele>
        <time>2017-02-01T15:47:50Z</time>
      </trkpt>
      <trkpt lat="43.39544" lon="6.09921">
        <ele>256.60000610352</ele>
        <time>2017-02-01T15:47:51Z</time>
      </trkpt>
      <trkpt lat="43.39544" lon="6.09918">
        <ele>256.79998779297</ele>
        <time>2017-02-01T15:47:52Z</time>
      </trkpt>
      <trkpt lat="43.39544" lon="6.09913">
        <ele>257.20001220703</ele>
        <time>2017-02-01T15:47:54Z</time>
      </trkpt>
      <trkpt lat="43.39545" lon="6.09906">
        <ele>257.39999389648</ele>
        <time>2017-02-01T15:47:57Z</time>
      </trkpt>
      <trkpt lat="43.39548" lon="6.09899">
        <ele>257.79998779297</ele>
        <time>2017-02-01T15:48:01Z</time>
      </trkpt>
      <trkpt lat="43.39551" lon="6.09896">
        <ele>258</ele>
        <time>2017-02-01T15:48:03Z</time>
      </trkpt>
      <trkpt lat="43.39553" lon="6.0989">
        <ele>258</ele>
        <time>2017-02-01T15:48:06Z</time>
      </trkpt>
      <trkpt lat="43.39554" lon="6.09888">
        <ele>258.20001220703</ele>
        <time>2017-02-01T15:48:07Z</time>
      </trkpt>
      <trkpt lat="43.39556" lon="6.09884">
        <ele>258</ele>
        <time>2017-02-01T15:48:09Z</time>
      </trkpt>
      <trkpt lat="43.39557" lon="6.09882">
        <ele>258</ele>
        <time>2017-02-01T15:48:10Z</time>
      </trkpt>
      <trkpt lat="43.39557" lon="6.09877">
        <ele>258</ele>
        <time>2017-02-01T15:48:13Z</time>
      </trkpt>
      <trkpt lat="43.39558" lon="6.09871">
        <ele>258</ele>
        <time>2017-02-01T15:48:17Z</time>
      </trkpt>
      <trkpt lat="43.3956" lon="6.0986">
        <ele>258</ele>
        <time>2017-02-01T15:48:23Z</time>
      </trkpt>
      <trkpt lat="43.3956" lon="6.09848">
        <ele>258</ele>
        <time>2017-02-01T15:48:29Z</time>
      </trkpt>
      <trkpt lat="43.39562" lon="6.0984">
        <ele>257.79998779297</ele>
        <time>2017-02-01T15:48:33Z</time>
      </trkpt>
      <trkpt lat="43.39564" lon="6.09831">
        <ele>258</ele>
        <time>2017-02-01T15:48:37Z</time>
      </trkpt>
      <trkpt lat="43.39564" lon="6.0983">
        <ele>258.20001220703</ele>
        <time>2017-02-01T15:48:38Z</time>
      </trkpt>
      <trkpt lat="43.39567" lon="6.09814">
        <ele>258</ele>
        <time>2017-02-01T15:48:43Z</time>
      </trkpt>
      <trkpt lat="43.39573" lon="6.09783">
        <ele>258.20001220703</ele>
        <time>2017-02-01T15:48:50Z</time>
      </trkpt>
      <trkpt lat="43.39577" lon="6.09769">
        <ele>258.39999389648</ele>
        <time>2017-02-01T15:48:53Z</time>
      </trkpt>
      <trkpt lat="43.39585" lon="6.09741">
        <ele>258</ele>
        <time>2017-02-01T15:48:58Z</time>
      </trkpt>
      <trkpt lat="43.39592" lon="6.09717">
        <ele>257.20001220703</ele>
        <time>2017-02-01T15:49:02Z</time>
      </trkpt>
      <trkpt lat="43.39593" lon="6.0971">
        <ele>257.20001220703</ele>
        <time>2017-02-01T15:49:03Z</time>
      </trkpt>
      <trkpt lat="43.39602" lon="6.09672">
        <ele>257.60000610352</ele>
        <time>2017-02-01T15:49:09Z</time>
      </trkpt>
      <trkpt lat="43.39606" lon="6.09645">
        <ele>257.60000610352</ele>
        <time>2017-02-01T15:49:13Z</time>
      </trkpt>
      <trkpt lat="43.39616" lon="6.096">
        <ele>257.39999389648</ele>
        <time>2017-02-01T15:49:20Z</time>
      </trkpt>
      <trkpt lat="43.39622" lon="6.09585">
        <ele>257.60000610352</ele>
        <time>2017-02-01T15:49:23Z</time>
      </trkpt>
      <trkpt lat="43.39626" lon="6.09576">
        <ele>257.60000610352</ele>
        <time>2017-02-01T15:49:25Z</time>
      </trkpt>
      <trkpt lat="43.39633" lon="6.0955">
        <ele>257.39999389648</ele>
        <time>2017-02-01T15:49:29Z</time>
      </trkpt>
      <trkpt lat="43.3964" lon="6.09539">
        <ele>256.39999389648</ele>
        <time>2017-02-01T15:49:31Z</time>
      </trkpt>
      <trkpt lat="43.39649" lon="6.09528">
        <ele>255.80000305176</ele>
        <time>2017-02-01T15:49:33Z</time>
      </trkpt>
      <trkpt lat="43.39654" lon="6.09521">
        <ele>255.39999389648</ele>
        <time>2017-02-01T15:49:34Z</time>
      </trkpt>
      <trkpt lat="43.39662" lon="6.09504">
        <ele>254.19999694824</ele>
        <time>2017-02-01T15:49:36Z</time>
      </trkpt>
      <trkpt lat="43.39668" lon="6.09488">
        <ele>252.19999694824</ele>
        <time>2017-02-01T15:49:38Z</time>
      </trkpt>
      <trkpt lat="43.39672" lon="6.09474">
        <ele>250.60000610352</ele>
        <time>2017-02-01T15:49:40Z</time>
      </trkpt>
      <trkpt lat="43.39673" lon="6.09465">
        <ele>249.19999694824</ele>
        <time>2017-02-01T15:49:42Z</time>
      </trkpt>
      <trkpt lat="43.39673" lon="6.09463">
        <ele>248.60000610352</ele>
        <time>2017-02-01T15:49:43Z</time>
      </trkpt>
      <trkpt lat="43.39676" lon="6.09461">
        <ele>248</ele>
        <time>2017-02-01T15:49:45Z</time>
      </trkpt>
      <trkpt lat="43.39677" lon="6.09461">
        <ele>247.80000305176</ele>
        <time>2017-02-01T15:49:46Z</time>
      </trkpt>
      <trkpt lat="43.39683" lon="6.09465">
        <ele>246.80000305176</ele>
        <time>2017-02-01T15:49:49Z</time>
      </trkpt>
      <trkpt lat="43.39692" lon="6.09467">
        <ele>244.39999389648</ele>
        <time>2017-02-01T15:49:51Z</time>
      </trkpt>
      <trkpt lat="43.39694" lon="6.09465">
        <ele>243.39999389648</ele>
        <time>2017-02-01T15:49:52Z</time>
      </trkpt>
      <trkpt lat="43.39696" lon="6.09463">
        <ele>242.80000305176</ele>
        <time>2017-02-01T15:49:53Z</time>
      </trkpt>
      <trkpt lat="43.39699" lon="6.09459">
        <ele>242.19999694824</ele>
        <time>2017-02-01T15:49:55Z</time>
      </trkpt>
      <trkpt lat="43.39701" lon="6.09454">
        <ele>242.19999694824</ele>
        <time>2017-02-01T15:49:57Z</time>
      </trkpt>
      <trkpt lat="43.3971" lon="6.0944">
        <ele>242.19999694824</ele>
        <time>2017-02-01T15:50:03Z</time>
      </trkpt>
      <trkpt lat="43.39727" lon="6.09413">
        <ele>241.60000610352</ele>
        <time>2017-02-01T15:50:12Z</time>
      </trkpt>
      <trkpt lat="43.39737" lon="6.09394">
        <ele>241.19999694824</ele>
        <time>2017-02-01T15:50:18Z</time>
      </trkpt>
      <trkpt lat="43.39744" lon="6.09377">
        <ele>241</ele>
        <time>2017-02-01T15:50:23Z</time>
      </trkpt>
      <trkpt lat="43.39764" lon="6.09338">
        <ele>240.39999389648</ele>
        <time>2017-02-01T15:50:33Z</time>
      </trkpt>
      <trkpt lat="43.39774" lon="6.09318">
        <ele>240</ele>
        <time>2017-02-01T15:50:37Z</time>
      </trkpt>
      <trkpt lat="43.39783" lon="6.09294">
        <ele>240.19999694824</ele>
        <time>2017-02-01T15:50:42Z</time>
      </trkpt>
      <trkpt lat="43.39795" lon="6.09239">
        <ele>240.60000610352</ele>
        <time>2017-02-01T15:50:53Z</time>
      </trkpt>
      <trkpt lat="43.39798" lon="6.09197">
        <ele>241.19999694824</ele>
        <time>2017-02-01T15:51:02Z</time>
      </trkpt>
      <trkpt lat="43.398" lon="6.09171">
        <ele>241.60000610352</ele>
        <time>2017-02-01T15:51:09Z</time>
      </trkpt>
      <trkpt lat="43.398" lon="6.09162">
        <ele>242.19999694824</ele>
        <time>2017-02-01T15:51:12Z</time>
      </trkpt>
      <trkpt lat="43.39803" lon="6.0914">
        <ele>242.80000305176</ele>
        <time>2017-02-01T15:51:18Z</time>
      </trkpt>
      <trkpt lat="43.39805" lon="6.09129">
        <ele>243</ele>
        <time>2017-02-01T15:51:21Z</time>
      </trkpt>
      <trkpt lat="43.39806" lon="6.09122">
        <ele>243.19999694824</ele>
        <time>2017-02-01T15:51:23Z</time>
      </trkpt>
      <trkpt lat="43.39809" lon="6.09111">
        <ele>243.60000610352</ele>
        <time>2017-02-01T15:51:26Z</time>
      </trkpt>
      <trkpt lat="43.39813" lon="6.09095">
        <ele>244</ele>
        <time>2017-02-01T15:51:30Z</time>
      </trkpt>
      <trkpt lat="43.39817" lon="6.09081">
        <ele>244</ele>
        <time>2017-02-01T15:51:34Z</time>
      </trkpt>
      <trkpt lat="43.39826" lon="6.09059">
        <ele>244</ele>
        <time>2017-02-01T15:51:40Z</time>
      </trkpt>
      <trkpt lat="43.39837" lon="6.09044">
        <ele>243.39999389648</ele>
        <time>2017-02-01T15:51:44Z</time>
      </trkpt>
      <trkpt lat="43.39848" lon="6.09034">
        <ele>242.60000610352</ele>
        <time>2017-02-01T15:51:47Z</time>
      </trkpt>
      <trkpt lat="43.39856" lon="6.09025">
        <ele>242.19999694824</ele>
        <time>2017-02-01T15:51:49Z</time>
      </trkpt>
      <trkpt lat="43.3987" lon="6.09006">
        <ele>240.80000305176</ele>
        <time>2017-02-01T15:51:53Z</time>
      </trkpt>
      <trkpt lat="43.39878" lon="6.08999">
        <ele>240.39999389648</ele>
        <time>2017-02-01T15:51:55Z</time>
      </trkpt>
      <trkpt lat="43.39893" lon="6.08992">
        <ele>240.19999694824</ele>
        <time>2017-02-01T15:51:58Z</time>
      </trkpt>
      <trkpt lat="43.39902" lon="6.08991">
        <ele>239.60000610352</ele>
        <time>2017-02-01T15:52:00Z</time>
      </trkpt>
      <trkpt lat="43.39922" lon="6.08991">
        <ele>238.80000305176</ele>
        <time>2017-02-01T15:52:04Z</time>
      </trkpt>
      <trkpt lat="43.39928" lon="6.08991">
        <ele>238.19999694824</ele>
        <time>2017-02-01T15:52:05Z</time>
      </trkpt>
      <trkpt lat="43.39939" lon="6.08989">
        <ele>237.19999694824</ele>
        <time>2017-02-01T15:52:07Z</time>
      </trkpt>
      <trkpt lat="43.39958" lon="6.08985">
        <ele>236</ele>
        <time>2017-02-01T15:52:10Z</time>
      </trkpt>
      <trkpt lat="43.39977" lon="6.08981">
        <ele>235.39999389648</ele>
        <time>2017-02-01T15:52:13Z</time>
      </trkpt>
      <trkpt lat="43.39983" lon="6.0898">
        <ele>235.19999694824</ele>
        <time>2017-02-01T15:52:14Z</time>
      </trkpt>
      <trkpt lat="43.40005" lon="6.08974">
        <ele>235.19999694824</ele>
        <time>2017-02-01T15:52:18Z</time>
      </trkpt>
      <trkpt lat="43.40021" lon="6.08967">
        <ele>235.19999694824</ele>
        <time>2017-02-01T15:52:21Z</time>
      </trkpt>
      <trkpt lat="43.4003" lon="6.08957">
        <ele>235.19999694824</ele>
        <time>2017-02-01T15:52:24Z</time>
      </trkpt>
      <trkpt lat="43.40035" lon="6.08931">
        <ele>235</ele>
        <time>2017-02-01T15:52:29Z</time>
      </trkpt>
      <trkpt lat="43.4004" lon="6.08905">
        <ele>235</ele>
        <time>2017-02-01T15:52:33Z</time>
      </trkpt>
      <trkpt lat="43.40042" lon="6.08898">
        <ele>235</ele>
        <time>2017-02-01T15:52:34Z</time>
      </trkpt>
      <trkpt lat="43.40046" lon="6.08884">
        <ele>234.80000305176</ele>
        <time>2017-02-01T15:52:36Z</time>
      </trkpt>
      <trkpt lat="43.40054" lon="6.08857">
        <ele>235</ele>
        <time>2017-02-01T15:52:40Z</time>
      </trkpt>
      <trkpt lat="43.4006" lon="6.08838">
        <ele>235.19999694824</ele>
        <time>2017-02-01T15:52:43Z</time>
      </trkpt>
      <trkpt lat="43.40063" lon="6.08831">
        <ele>235.19999694824</ele>
        <time>2017-02-01T15:52:44Z</time>
      </trkpt>
      <trkpt lat="43.40072" lon="6.08805">
        <ele>235.19999694824</ele>
        <time>2017-02-01T15:52:48Z</time>
      </trkpt>
      <trkpt lat="43.40085" lon="6.08769">
        <ele>235.39999389648</ele>
        <time>2017-02-01T15:52:54Z</time>
      </trkpt>
      <trkpt lat="43.40097" lon="6.08729">
        <ele>234.80000305176</ele>
        <time>2017-02-01T15:53:00Z</time>
      </trkpt>
      <trkpt lat="43.40102" lon="6.08698">
        <ele>234</ele>
        <time>2017-02-01T15:53:04Z</time>
      </trkpt>
      <trkpt lat="43.40102" lon="6.08682">
        <ele>233.80000305176</ele>
        <time>2017-02-01T15:53:06Z</time>
      </trkpt>
      <trkpt lat="43.40099" lon="6.08658">
        <ele>233</ele>
        <time>2017-02-01T15:53:09Z</time>
      </trkpt>
      <trkpt lat="43.401" lon="6.08642">
        <ele>232</ele>
        <time>2017-02-01T15:53:11Z</time>
      </trkpt>
      <trkpt lat="43.40107" lon="6.08628">
        <ele>230.80000305176</ele>
        <time>2017-02-01T15:53:13Z</time>
      </trkpt>
      <trkpt lat="43.40111" lon="6.08623">
        <ele>230.60000610352</ele>
        <time>2017-02-01T15:53:14Z</time>
      </trkpt>
      <trkpt lat="43.40121" lon="6.08613">
        <ele>230</ele>
        <time>2017-02-01T15:53:16Z</time>
      </trkpt>
      <trkpt lat="43.40141" lon="6.08594">
        <ele>229.39999389648</ele>
        <time>2017-02-01T15:53:20Z</time>
      </trkpt>
      <trkpt lat="43.40158" lon="6.08585">
        <ele>229.39999389648</ele>
        <time>2017-02-01T15:53:23Z</time>
      </trkpt>
      <trkpt lat="43.40164" lon="6.08574">
        <ele>229.39999389648</ele>
        <time>2017-02-01T15:53:25Z</time>
      </trkpt>
      <trkpt lat="43.40165" lon="6.08561">
        <ele>229</ele>
        <time>2017-02-01T15:53:27Z</time>
      </trkpt>
      <trkpt lat="43.40164" lon="6.08531">
        <ele>230.39999389648</ele>
        <time>2017-02-01T15:53:32Z</time>
      </trkpt>
      <trkpt lat="43.40164" lon="6.08519">
        <ele>231.19999694824</ele>
        <time>2017-02-01T15:53:34Z</time>
      </trkpt>
      <trkpt lat="43.40165" lon="6.08513">
        <ele>231.60000610352</ele>
        <time>2017-02-01T15:53:35Z</time>
      </trkpt>
      <trkpt lat="43.40173" lon="6.08454">
        <ele>231.80000305176</ele>
        <time>2017-02-01T15:53:44Z</time>
      </trkpt>
      <trkpt lat="43.40176" lon="6.08434">
        <ele>231.80000305176</ele>
        <time>2017-02-01T15:53:47Z</time>
      </trkpt>
      <trkpt lat="43.40179" lon="6.08405">
        <ele>231.60000610352</ele>
        <time>2017-02-01T15:53:51Z</time>
      </trkpt>
      <trkpt lat="43.40184" lon="6.08316">
        <ele>230.60000610352</ele>
        <time>2017-02-01T15:54:02Z</time>
      </trkpt>
      <trkpt lat="43.40185" lon="6.08301">
        <ele>230.60000610352</ele>
        <time>2017-02-01T15:54:04Z</time>
      </trkpt>
      <trkpt lat="43.40186" lon="6.08294">
        <ele>230.60000610352</ele>
        <time>2017-02-01T15:54:05Z</time>
      </trkpt>
      <trkpt lat="43.40188" lon="6.0827">
        <ele>230.39999389648</ele>
        <time>2017-02-01T15:54:09Z</time>
      </trkpt>
      <trkpt lat="43.40187" lon="6.08263">
        <ele>230.39999389648</ele>
        <time>2017-02-01T15:54:14Z</time>
      </trkpt>
      <trkpt lat="43.40187" lon="6.08263">
        <ele>230.39999389648</ele>
        <time>2017-02-01T15:54:19Z</time>
      </trkpt>
      <trkpt lat="43.40187" lon="6.08263">
        <ele>230.39999389648</ele>
        <time>2017-02-01T15:54:24Z</time>
      </trkpt>
      <trkpt lat="43.40185" lon="6.0825">
        <ele>230.39999389648</ele>
        <time>2017-02-01T15:54:31Z</time>
      </trkpt>
      <trkpt lat="43.40184" lon="6.08234">
        <ele>230.19999694824</ele>
        <time>2017-02-01T15:54:34Z</time>
      </trkpt>
      <trkpt lat="43.40187" lon="6.08212">
        <ele>230</ele>
        <time>2017-02-01T15:54:38Z</time>
      </trkpt>
      <trkpt lat="43.40198" lon="6.08171">
        <ele>229.80000305176</ele>
        <time>2017-02-01T15:54:44Z</time>
      </trkpt>
      <trkpt lat="43.402" lon="6.08137">
        <ele>228.80000305176</ele>
        <time>2017-02-01T15:54:48Z</time>
      </trkpt>
      <trkpt lat="43.40199" lon="6.08129">
        <ele>228.60000610352</ele>
        <time>2017-02-01T15:54:49Z</time>
      </trkpt>
      <trkpt lat="43.40193" lon="6.0811">
        <ele>227.60000610352</ele>
        <time>2017-02-01T15:54:52Z</time>
      </trkpt>
      <trkpt lat="43.40193" lon="6.08095">
        <ele>227.39999389648</ele>
        <time>2017-02-01T15:54:54Z</time>
      </trkpt>
      <trkpt lat="43.40197" lon="6.08079">
        <ele>226.80000305176</ele>
        <time>2017-02-01T15:54:56Z</time>
      </trkpt>
      <trkpt lat="43.40203" lon="6.08064">
        <ele>226</ele>
        <time>2017-02-01T15:54:58Z</time>
      </trkpt>
      <trkpt lat="43.40224" lon="6.08037">
        <ele>225.39999389648</ele>
        <time>2017-02-01T15:55:02Z</time>
      </trkpt>
      <trkpt lat="43.40236" lon="6.08022">
        <ele>225</ele>
        <time>2017-02-01T15:55:04Z</time>
      </trkpt>
      <trkpt lat="43.40249" lon="6.08006">
        <ele>224</ele>
        <time>2017-02-01T15:55:06Z</time>
      </trkpt>
      <trkpt lat="43.40256" lon="6.07997">
        <ele>223.60000610352</ele>
        <time>2017-02-01T15:55:07Z</time>
      </trkpt>
      <trkpt lat="43.40262" lon="6.07987">
        <ele>223.19999694824</ele>
        <time>2017-02-01T15:55:08Z</time>
      </trkpt>
      <trkpt lat="43.40268" lon="6.07978">
        <ele>222.80000305176</ele>
        <time>2017-02-01T15:55:09Z</time>
      </trkpt>
      <trkpt lat="43.40284" lon="6.07945">
        <ele>222</ele>
        <time>2017-02-01T15:55:12Z</time>
      </trkpt>
      <trkpt lat="43.4029" lon="6.0792">
        <ele>221.39999389648</ele>
        <time>2017-02-01T15:55:14Z</time>
      </trkpt>
      <trkpt lat="43.40292" lon="6.07908">
        <ele>220.39999389648</ele>
        <time>2017-02-01T15:55:15Z</time>
      </trkpt>
      <trkpt lat="43.403" lon="6.07856">
        <ele>219.39999389648</ele>
        <time>2017-02-01T15:55:19Z</time>
      </trkpt>
      <trkpt lat="43.40302" lon="6.07843">
        <ele>219.19999694824</ele>
        <time>2017-02-01T15:55:20Z</time>
      </trkpt>
      <trkpt lat="43.40303" lon="6.0783">
        <ele>219.19999694824</ele>
        <time>2017-02-01T15:55:21Z</time>
      </trkpt>
      <trkpt lat="43.40306" lon="6.07804">
        <ele>219</ele>
        <time>2017-02-01T15:55:23Z</time>
      </trkpt>
      <trkpt lat="43.40308" lon="6.07792">
        <ele>218.80000305176</ele>
        <time>2017-02-01T15:55:24Z</time>
      </trkpt>
      <trkpt lat="43.40311" lon="6.07767">
        <ele>218.19999694824</ele>
        <time>2017-02-01T15:55:26Z</time>
      </trkpt>
      <trkpt lat="43.40312" lon="6.07755">
        <ele>218</ele>
        <time>2017-02-01T15:55:27Z</time>
      </trkpt>
      <trkpt lat="43.40319" lon="6.07721">
        <ele>217.39999389648</ele>
        <time>2017-02-01T15:55:30Z</time>
      </trkpt>
      <trkpt lat="43.40323" lon="6.0771">
        <ele>217</ele>
        <time>2017-02-01T15:55:31Z</time>
      </trkpt>
      <trkpt lat="43.40328" lon="6.07701">
        <ele>216.80000305176</ele>
        <time>2017-02-01T15:55:32Z</time>
      </trkpt>
      <trkpt lat="43.4036" lon="6.07661">
        <ele>216.19999694824</ele>
        <time>2017-02-01T15:55:37Z</time>
      </trkpt>
      <trkpt lat="43.40369" lon="6.07641">
        <ele>216.19999694824</ele>
        <time>2017-02-01T15:55:39Z</time>
      </trkpt>
      <trkpt lat="43.40372" lon="6.07629">
        <ele>216</ele>
        <time>2017-02-01T15:55:40Z</time>
      </trkpt>
      <trkpt lat="43.40375" lon="6.07607">
        <ele>215.80000305176</ele>
        <time>2017-02-01T15:55:42Z</time>
      </trkpt>
      <trkpt lat="43.40376" lon="6.07597">
        <ele>216</ele>
        <time>2017-02-01T15:55:43Z</time>
      </trkpt>
      <trkpt lat="43.40376" lon="6.07552">
        <ele>216.60000610352</ele>
        <time>2017-02-01T15:55:48Z</time>
      </trkpt>
      <trkpt lat="43.40376" lon="6.07535">
        <ele>217.19999694824</ele>
        <time>2017-02-01T15:55:50Z</time>
      </trkpt>
      <trkpt lat="43.40379" lon="6.07503">
        <ele>217.60000610352</ele>
        <time>2017-02-01T15:55:54Z</time>
      </trkpt>
      <trkpt lat="43.40393" lon="6.07421">
        <ele>217.19999694824</ele>
        <time>2017-02-01T15:56:04Z</time>
      </trkpt>
      <trkpt lat="43.4039" lon="6.07354">
        <ele>216.80000305176</ele>
        <time>2017-02-01T15:56:12Z</time>
      </trkpt>
      <trkpt lat="43.40388" lon="6.07338">
        <ele>216.60000610352</ele>
        <time>2017-02-01T15:56:14Z</time>
      </trkpt>
      <trkpt lat="43.40384" lon="6.07315">
        <ele>216.19999694824</ele>
        <time>2017-02-01T15:56:17Z</time>
      </trkpt>
      <trkpt lat="43.40384" lon="6.07298">
        <ele>215.80000305176</ele>
        <time>2017-02-01T15:56:19Z</time>
      </trkpt>
      <trkpt lat="43.40392" lon="6.07286">
        <ele>215.19999694824</ele>
        <time>2017-02-01T15:56:21Z</time>
      </trkpt>
      <trkpt lat="43.40397" lon="6.07282">
        <ele>214.80000305176</ele>
        <time>2017-02-01T15:56:22Z</time>
      </trkpt>
      <trkpt lat="43.40403" lon="6.0728">
        <ele>214.60000610352</ele>
        <time>2017-02-01T15:56:23Z</time>
      </trkpt>
      <trkpt lat="43.40417" lon="6.07282">
        <ele>214</ele>
        <time>2017-02-01T15:56:25Z</time>
      </trkpt>
      <trkpt lat="43.40425" lon="6.07282">
        <ele>213.60000610352</ele>
        <time>2017-02-01T15:56:26Z</time>
      </trkpt>
      <trkpt lat="43.40448" lon="6.07282">
        <ele>212</ele>
        <time>2017-02-01T15:56:29Z</time>
      </trkpt>
      <trkpt lat="43.40474" lon="6.07282">
        <ele>210.80000305176</ele>
        <time>2017-02-01T15:56:32Z</time>
      </trkpt>
      <trkpt lat="43.4049" lon="6.07282">
        <ele>209.80000305176</ele>
        <time>2017-02-01T15:56:34Z</time>
      </trkpt>
      <trkpt lat="43.40498" lon="6.07283">
        <ele>209.39999389648</ele>
        <time>2017-02-01T15:56:35Z</time>
      </trkpt>
      <trkpt lat="43.40512" lon="6.07292">
        <ele>209</ele>
        <time>2017-02-01T15:56:37Z</time>
      </trkpt>
      <trkpt lat="43.40522" lon="6.07302">
        <ele>208.80000305176</ele>
        <time>2017-02-01T15:56:39Z</time>
      </trkpt>
      <trkpt lat="43.40533" lon="6.07303">
        <ele>208.80000305176</ele>
        <time>2017-02-01T15:56:41Z</time>
      </trkpt>
      <trkpt lat="43.40552" lon="6.07305">
        <ele>208.80000305176</ele>
        <time>2017-02-01T15:56:44Z</time>
      </trkpt>
      <trkpt lat="43.40562" lon="6.07307">
        <ele>208.80000305176</ele>
        <time>2017-02-01T15:56:48Z</time>
      </trkpt>
      <trkpt lat="43.40563" lon="6.07307">
        <ele>209</ele>
        <time>2017-02-01T15:56:54Z</time>
      </trkpt>
      <trkpt lat="43.40563" lon="6.07307">
        <ele>209</ele>
        <time>2017-02-01T15:57:14Z</time>
      </trkpt>
      <trkpt lat="43.40563" lon="6.07307">
        <ele>209.19999694824</ele>
        <time>2017-02-01T15:58:35Z</time>
      </trkpt>
      <trkpt lat="43.40571" lon="6.07308">
        <ele>209</ele>
        <time>2017-02-01T15:58:39Z</time>
      </trkpt>
      <trkpt lat="43.40574" lon="6.07308">
        <ele>208.80000305176</ele>
        <time>2017-02-01T15:58:40Z</time>
      </trkpt>
      <trkpt lat="43.40583" lon="6.07305">
        <ele>208.39999389648</ele>
        <time>2017-02-01T15:58:42Z</time>
      </trkpt>
      <trkpt lat="43.40587" lon="6.07303">
        <ele>208.19999694824</ele>
        <time>2017-02-01T15:58:43Z</time>
      </trkpt>
      <trkpt lat="43.40591" lon="6.07301">
        <ele>208.19999694824</ele>
        <time>2017-02-01T15:58:44Z</time>
      </trkpt>
      <trkpt lat="43.40617" lon="6.07325">
        <ele>207.19999694824</ele>
        <time>2017-02-01T15:58:51Z</time>
      </trkpt>
      <trkpt lat="43.40622" lon="6.07336">
        <ele>207</ele>
        <time>2017-02-01T15:58:54Z</time>
      </trkpt>
      <trkpt lat="43.40628" lon="6.07341">
        <ele>207</ele>
        <time>2017-02-01T15:58:56Z</time>
      </trkpt>
      <trkpt lat="43.40646" lon="6.07324">
        <ele>206.60000610352</ele>
        <time>2017-02-01T15:59:01Z</time>
      </trkpt>
      <trkpt lat="43.40662" lon="6.07314">
        <ele>206.19999694824</ele>
        <time>2017-02-01T15:59:04Z</time>
      </trkpt>
      <trkpt lat="43.40668" lon="6.0731">
        <ele>206</ele>
        <time>2017-02-01T15:59:05Z</time>
      </trkpt>
      <trkpt lat="43.40682" lon="6.07302">
        <ele>205.60000610352</ele>
        <time>2017-02-01T15:59:07Z</time>
      </trkpt>
      <trkpt lat="43.40697" lon="6.07294">
        <ele>204.80000305176</ele>
        <time>2017-02-01T15:59:09Z</time>
      </trkpt>
      <trkpt lat="43.40721" lon="6.0728">
        <ele>203.60000610352</ele>
        <time>2017-02-01T15:59:12Z</time>
      </trkpt>
      <trkpt lat="43.40737" lon="6.07271">
        <ele>203.19999694824</ele>
        <time>2017-02-01T15:59:14Z</time>
      </trkpt>
      <trkpt lat="43.40762" lon="6.07256">
        <ele>203</ele>
        <time>2017-02-01T15:59:17Z</time>
      </trkpt>
      <trkpt lat="43.40785" lon="6.0724">
        <ele>202.60000610352</ele>
        <time>2017-02-01T15:59:20Z</time>
      </trkpt>
      <trkpt lat="43.40812" lon="6.0721">
        <ele>201.80000305176</ele>
        <time>2017-02-01T15:59:24Z</time>
      </trkpt>
      <trkpt lat="43.40818" lon="6.07201">
        <ele>201.80000305176</ele>
        <time>2017-02-01T15:59:25Z</time>
      </trkpt>
      <trkpt lat="43.40844" lon="6.07135">
        <ele>202</ele>
        <time>2017-02-01T15:59:32Z</time>
      </trkpt>
      <trkpt lat="43.40848" lon="6.07117">
        <ele>201.80000305176</ele>
        <time>2017-02-01T15:59:34Z</time>
      </trkpt>
      <trkpt lat="43.4085" lon="6.07098">
        <ele>201.60000610352</ele>
        <time>2017-02-01T15:59:36Z</time>
      </trkpt>
      <trkpt lat="43.40851" lon="6.07088">
        <ele>201.60000610352</ele>
        <time>2017-02-01T15:59:37Z</time>
      </trkpt>
      <trkpt lat="43.4085" lon="6.07059">
        <ele>201.60000610352</ele>
        <time>2017-02-01T15:59:40Z</time>
      </trkpt>
      <trkpt lat="43.40846" lon="6.07024">
        <ele>201.80000305176</ele>
        <time>2017-02-01T15:59:44Z</time>
      </trkpt>
      <trkpt lat="43.40846" lon="6.07017">
        <ele>201.60000610352</ele>
        <time>2017-02-01T15:59:45Z</time>
      </trkpt>
      <trkpt lat="43.40854" lon="6.0701">
        <ele>201.60000610352</ele>
        <time>2017-02-01T15:59:47Z</time>
      </trkpt>
      <trkpt lat="43.40888" lon="6.07002">
        <ele>201.80000305176</ele>
        <time>2017-02-01T15:59:53Z</time>
      </trkpt>
      <trkpt lat="43.40895" lon="6.06999">
        <ele>201.80000305176</ele>
        <time>2017-02-01T15:59:54Z</time>
      </trkpt>
      <trkpt lat="43.40905" lon="6.06989">
        <ele>201.80000305176</ele>
        <time>2017-02-01T15:59:56Z</time>
      </trkpt>
      <trkpt lat="43.40911" lon="6.06964">
        <ele>202</ele>
        <time>2017-02-01T15:59:59Z</time>
      </trkpt>
      <trkpt lat="43.4092" lon="6.06953">
        <ele>202.19999694824</ele>
        <time>2017-02-01T16:00:01Z</time>
      </trkpt>
      <trkpt lat="43.40932" lon="6.06949">
        <ele>202.19999694824</ele>
        <time>2017-02-01T16:00:03Z</time>
      </trkpt>
      <trkpt lat="43.40938" lon="6.06948">
        <ele>202</ele>
        <time>2017-02-01T16:00:04Z</time>
      </trkpt>
      <trkpt lat="43.40945" lon="6.06947">
        <ele>201.80000305176</ele>
        <time>2017-02-01T16:00:05Z</time>
      </trkpt>
      <trkpt lat="43.40998" lon="6.06929">
        <ele>201.19999694824</ele>
        <time>2017-02-01T16:00:13Z</time>
      </trkpt>
      <trkpt lat="43.41004" lon="6.06926">
        <ele>201.39999389648</ele>
        <time>2017-02-01T16:00:14Z</time>
      </trkpt>
      <trkpt lat="43.4101" lon="6.06922">
        <ele>201.39999389648</ele>
        <time>2017-02-01T16:00:15Z</time>
      </trkpt>
      <trkpt lat="43.41018" lon="6.06911">
        <ele>201.39999389648</ele>
        <time>2017-02-01T16:00:17Z</time>
      </trkpt>
      <trkpt lat="43.41022" lon="6.06897">
        <ele>201.60000610352</ele>
        <time>2017-02-01T16:00:19Z</time>
      </trkpt>
      <trkpt lat="43.4103" lon="6.06887">
        <ele>201.60000610352</ele>
        <time>2017-02-01T16:00:21Z</time>
      </trkpt>
      <trkpt lat="43.41044" lon="6.06878">
        <ele>201.80000305176</ele>
        <time>2017-02-01T16:00:24Z</time>
      </trkpt>
      <trkpt lat="43.41055" lon="6.06873">
        <ele>202.80000305176</ele>
        <time>2017-02-01T16:00:27Z</time>
      </trkpt>
      <trkpt lat="43.41065" lon="6.06869">
        <ele>204</ele>
        <time>2017-02-01T16:00:30Z</time>
      </trkpt>
      <trkpt lat="43.41066" lon="6.06867">
        <ele>204</ele>
        <time>2017-02-01T16:00:31Z</time>
      </trkpt>
      <trkpt lat="43.41068" lon="6.06858">
        <ele>203.80000305176</ele>
        <time>2017-02-01T16:00:33Z</time>
      </trkpt>
      <trkpt lat="43.41069" lon="6.06852">
        <ele>203.60000610352</ele>
        <time>2017-02-01T16:00:34Z</time>
      </trkpt>
      <trkpt lat="43.41071" lon="6.06833">
        <ele>202.80000305176</ele>
        <time>2017-02-01T16:00:37Z</time>
      </trkpt>
      <trkpt lat="43.41075" lon="6.06823">
        <ele>202.60000610352</ele>
        <time>2017-02-01T16:00:39Z</time>
      </trkpt>
      <trkpt lat="43.4108" lon="6.06813">
        <ele>202.39999389648</ele>
        <time>2017-02-01T16:00:41Z</time>
      </trkpt>
      <trkpt lat="43.41084" lon="6.068">
        <ele>202.39999389648</ele>
        <time>2017-02-01T16:00:43Z</time>
      </trkpt>
      <trkpt lat="43.41085" lon="6.06793">
        <ele>202.39999389648</ele>
        <time>2017-02-01T16:00:44Z</time>
      </trkpt>
      <trkpt lat="43.41088" lon="6.06765">
        <ele>202.19999694824</ele>
        <time>2017-02-01T16:00:48Z</time>
      </trkpt>
      <trkpt lat="43.41092" lon="6.06754">
        <ele>202.19999694824</ele>
        <time>2017-02-01T16:00:50Z</time>
      </trkpt>
      <trkpt lat="43.41108" lon="6.0674">
        <ele>202.19999694824</ele>
        <time>2017-02-01T16:00:54Z</time>
      </trkpt>
      <trkpt lat="43.41116" lon="6.06733">
        <ele>202.39999389648</ele>
        <time>2017-02-01T16:00:56Z</time>
      </trkpt>
      <trkpt lat="43.4114" lon="6.06721">
        <ele>202.39999389648</ele>
        <time>2017-02-01T16:01:01Z</time>
      </trkpt>
      <trkpt lat="43.41155" lon="6.06718">
        <ele>202.19999694824</ele>
        <time>2017-02-01T16:01:04Z</time>
      </trkpt>
      <trkpt lat="43.412" lon="6.0672">
        <ele>203</ele>
        <time>2017-02-01T16:01:14Z</time>
      </trkpt>
      <trkpt lat="43.41233" lon="6.06718">
        <ele>203.80000305176</ele>
        <time>2017-02-01T16:01:21Z</time>
      </trkpt>
      <trkpt lat="43.41241" lon="6.06716">
        <ele>204.60000610352</ele>
        <time>2017-02-01T16:01:24Z</time>
      </trkpt>
      <trkpt lat="43.41245" lon="6.06716">
        <ele>204.60000610352</ele>
        <time>2017-02-01T16:01:26Z</time>
      </trkpt>
      <trkpt lat="43.41248" lon="6.06718">
        <ele>205</ele>
        <time>2017-02-01T16:01:28Z</time>
      </trkpt>
      <trkpt lat="43.41254" lon="6.06721">
        <ele>205.39999389648</ele>
        <time>2017-02-01T16:01:32Z</time>
      </trkpt>
      <trkpt lat="43.41258" lon="6.06724">
        <ele>205.60000610352</ele>
        <time>2017-02-01T16:01:34Z</time>
      </trkpt>
      <trkpt lat="43.4127" lon="6.06746">
        <ele>206</ele>
        <time>2017-02-01T16:01:40Z</time>
      </trkpt>
      <trkpt lat="43.41279" lon="6.06763">
        <ele>206.39999389648</ele>
        <time>2017-02-01T16:01:44Z</time>
      </trkpt>
      <trkpt lat="43.41297" lon="6.06788">
        <ele>207</ele>
        <time>2017-02-01T16:01:50Z</time>
      </trkpt>
      <trkpt lat="43.41312" lon="6.06801">
        <ele>207.19999694824</ele>
        <time>2017-02-01T16:01:54Z</time>
      </trkpt>
      <trkpt lat="43.41346" lon="6.06822">
        <ele>208.19999694824</ele>
        <time>2017-02-01T16:02:02Z</time>
      </trkpt>
      <trkpt lat="43.41354" lon="6.06826">
        <ele>208.39999389648</ele>
        <time>2017-02-01T16:02:04Z</time>
      </trkpt>
      <trkpt lat="43.41381" lon="6.0684">
        <ele>208.80000305176</ele>
        <time>2017-02-01T16:02:11Z</time>
      </trkpt>
      <trkpt lat="43.41391" lon="6.06847">
        <ele>208.80000305176</ele>
        <time>2017-02-01T16:02:14Z</time>
      </trkpt>
      <trkpt lat="43.41399" lon="6.06856">
        <ele>208.80000305176</ele>
        <time>2017-02-01T16:02:17Z</time>
      </trkpt>
      <trkpt lat="43.41406" lon="6.06864">
        <ele>208.39999389648</ele>
        <time>2017-02-01T16:02:20Z</time>
      </trkpt>
      <trkpt lat="43.41413" lon="6.06875">
        <ele>208.19999694824</ele>
        <time>2017-02-01T16:02:24Z</time>
      </trkpt>
      <trkpt lat="43.41419" lon="6.06902">
        <ele>208.19999694824</ele>
        <time>2017-02-01T16:02:30Z</time>
      </trkpt>
      <trkpt lat="43.41424" lon="6.06913">
        <ele>208.19999694824</ele>
        <time>2017-02-01T16:02:32Z</time>
      </trkpt>
      <trkpt lat="43.41432" lon="6.06921">
        <ele>208</ele>
        <time>2017-02-01T16:02:34Z</time>
      </trkpt>
      <trkpt lat="43.41442" lon="6.06926">
        <ele>208.19999694824</ele>
        <time>2017-02-01T16:02:36Z</time>
      </trkpt>
      <trkpt lat="43.41456" lon="6.06927">
        <ele>208</ele>
        <time>2017-02-01T16:02:39Z</time>
      </trkpt>
      <trkpt lat="43.41464" lon="6.06933">
        <ele>207.80000305176</ele>
        <time>2017-02-01T16:02:41Z</time>
      </trkpt>
      <trkpt lat="43.41478" lon="6.06956">
        <ele>207.80000305176</ele>
        <time>2017-02-01T16:02:46Z</time>
      </trkpt>
      <trkpt lat="43.41483" lon="6.06965">
        <ele>207.60000610352</ele>
        <time>2017-02-01T16:02:48Z</time>
      </trkpt>
      <trkpt lat="43.4149" lon="6.0697">
        <ele>207.39999389648</ele>
        <time>2017-02-01T16:02:50Z</time>
      </trkpt>
      <trkpt lat="43.415" lon="6.06968">
        <ele>207.39999389648</ele>
        <time>2017-02-01T16:02:54Z</time>
      </trkpt>
      <trkpt lat="43.41501" lon="6.06968">
        <ele>207.39999389648</ele>
        <time>2017-02-01T16:02:55Z</time>
      </trkpt>
      <trkpt lat="43.41512" lon="6.06974">
        <ele>207.80000305176</ele>
        <time>2017-02-01T16:02:59Z</time>
      </trkpt>
      <trkpt lat="43.41529" lon="6.06974">
        <ele>207.60000610352</ele>
        <time>2017-02-01T16:03:04Z</time>
      </trkpt>
      <trkpt lat="43.41555" lon="6.06975">
        <ele>208.19999694824</ele>
        <time>2017-02-01T16:03:14Z</time>
      </trkpt>
      <trkpt lat="43.41571" lon="6.06979">
        <ele>208.80000305176</ele>
        <time>2017-02-01T16:03:24Z</time>
      </trkpt>
      <trkpt lat="43.41574" lon="6.06985">
        <ele>208.80000305176</ele>
        <time>2017-02-01T16:03:28Z</time>
      </trkpt>
      <trkpt lat="43.41576" lon="6.07002">
        <ele>208.60000610352</ele>
        <time>2017-02-01T16:03:34Z</time>
      </trkpt>
      <trkpt lat="43.41578" lon="6.07031">
        <ele>209</ele>
        <time>2017-02-01T16:03:44Z</time>
      </trkpt>
      <trkpt lat="43.41579" lon="6.07039">
        <ele>208.80000305176</ele>
        <time>2017-02-01T16:03:48Z</time>
      </trkpt>
      <trkpt lat="43.41579" lon="6.07039">
        <ele>208.80000305176</ele>
        <time>2017-02-01T16:03:54Z</time>
      </trkpt>
      <trkpt lat="43.41579" lon="6.07039">
        <ele>209.19999694824</ele>
        <time>2017-02-01T16:04:36Z</time>
      </trkpt>
    </trkseg>
  </trk>
</gpx>